[[{"header":{"parameterUnit":"m.s-1","parameterCategory":1,"la1":30.6,"la2":29.2853,"lo1":-89.7004,"lo2":-87.6739,"dy":0.0162,"dx":0.0183,"nx":112,"ny":82,"refTime":"2023-08-13T12:00:00:Z","depth":0,"parameterNumber":2,"parameterNumberName":"U-component_of_WINDS"},"data":[0.0,0.0,0.0,0.0,0.0,0.0,0.0,0.0,0.0,0.0,0.0,0.0,0.0,0.0,0.0,0.0,0.0,0.0,0.0,0.0,0.0,0.0,0.0,0.0,0.0,0.0,0.0,0.0,0.0,0.0,0.0,0.0,0.0,0.0,0.0,0.0,0.0,0.0,0.0,0.0,0.0,0.0,0.0,0.0,0.0,0.0,0.0,0.0,0.0,0.0,0.0,0.0,0.0,0.0,0.0,0.0,0.0,0.0,0.0,0.0,0.0,0.0,0.0,0.0,0.0,0.0,0.0,0.0,0.0,0.0,0.0,0.0,0.0,0.0,0.0,0.0,0.0,0.0,0.0,0.0,0.0,0.0,0.0,0.0,0.0,0.0,0.0,0.0,0.0,0.0,-0.4095,-0.4686,-0.5636,-0.6334,-0.6458,-0.6682,-0.6353,-0.546,0.0,0.0,0.0,0.0,0.0,0.0,0.0,0.0,0.0,0.0,0.0,0.0,0.0,0.0,0.0,0.0,0.0,0.0,0.0,0.0,0.0,0.0,0.0,0.0,0.0,0.0,0.0,0.0,0.0,0.0,0.0,0.0,0.0,0.0,0.0,0.0,0.0,0.0,0.0,0.0,0.0,0.0,0.0,0.0,0.0,0.0,0.0,0.0,0.0,0.0,0.0,0.0,0.0,0.0,0.0,0.0,0.0,0.0,0.0,0.0,0.0,0.0,0.0,0.0,0.0,0.0,0.0,0.0,0.0,0.0,0.0,0.0,0.0,0.0,0.0,0.0,0.0,0.0,0.0,0.0,0.0,0.0,0.0,0.0,0.0,0.0,0.0,0.0,0.0,0.0,0.0,0.0,0.0,0.0,0.0,0.0,0.0,0.0,0.0,0.0,0.0,0.0,0.0,0.0,-0.4379,-0.4992,-0.5646,-0.6086,-0.628,-0.6182,-0.5906,-0.5427,0.0,0.0,0.0,0.0,0.0,0.0,0.0,0.0,0.0,0.0,0.0,0.0,0.0,0.0,0.0,0.0,0.0,0.0,0.0,0.0,0.0,0.0,0.0,0.0,0.0,0.0,0.0,0.0,0.0,0.0,0.0,0.0,0.0,0.0,0.0,0.0,0.0,0.0,0.0,0.0,0.0,0.0,0.0,0.0,0.0,0.0,0.0,0.0,0.0,0.0,0.0,0.0,0.0,0.0,0.0,0.0,0.0,0.0,0.0,0.0,0.0,0.0,0.0,0.0,0.0,0.0,0.0,0.0,0.0,0.0,0.0,0.0,0.0,0.0,0.0,0.0,0.0,0.0,0.0,0.0,0.0,0.0,0.0,0.0,0.0,0.0,0.0,0.0,0.0,0.0,0.0,0.0,0.0,0.0,0.0,0.0,0.0,0.0,0.0,0.0,0.0,0.0,0.0,-0.4355,-0.4674,-0.5199,-0.5676,-0.6044,-0.6135,-0.6169,-0.5888,-0.5275,-0.5265,0.0,0.0,0.0,0.0,0.0,0.0,0.0,0.0,0.0,0.0,0.0,0.0,0.0,0.0,0.0,0.0,0.0,0.0,0.0,0.0,0.0,0.0,0.0,0.0,0.0,0.0,0.0,0.0,0.0,0.0,0.0,0.0,0.0,0.0,0.0,0.0,0.0,0.0,0.0,0.0,0.0,0.0,0.0,0.0,0.0,0.0,0.0,0.0,0.0,0.0,0.0,0.0,0.0,0.0,0.0,0.0,0.0,0.0,0.0,0.0,0.0,0.0,0.0,0.0,0.0,0.0,0.0,0.0,0.0,0.0,0.0,0.0,0.0,0.0,0.0,0.0,0.0,0.0,0.0,0.0,0.0,0.0,0.0,0.0,0.0,0.0,0.0,0.0,0.0,0.0,0.0,0.0,0.0,0.0,0.0,0.0,0.0,0.0,0.0,0.0,0.0,0.0,-0.4503,-0.4814,-0.5294,-0.5676,-0.5941,-0.5941,-0.6049,-0.5778,-0.5116,-0.504,0.0,0.0,0.0,0.0,0.0,0.0,0.0,0.0,0.0,0.0,0.0,0.0,0.0,0.0,0.0,0.0,0.0,0.0,0.0,0.0,0.0,0.0,0.0,0.0,0.0,0.0,0.0,0.0,0.0,0.0,0.0,0.0,0.0,0.0,0.0,0.0,0.0,0.0,0.0,0.0,0.0,0.0,0.0,0.0,0.0,0.0,0.0,0.0,0.0,0.0,0.0,0.0,0.0,0.0,0.0,0.0,0.0,0.0,0.0,0.0,0.0,0.0,0.0,0.0,0.0,0.0,0.0,0.0,0.0,0.0,0.0,0.0,0.0,0.0,0.0,0.0,0.0,0.0,0.0,0.0,0.0,0.0,0.0,0.0,0.0,0.0,0.0,0.0,0.0,0.0,0.0,0.0,0.0,0.0,0.0,0.0,0.0,0.0,0.0,0.0,0.0,0.0,-0.4491,-0.4691,-0.5091,-0.5523,-0.5783,-0.5783,-0.56,-0.5339,-0.509,-0.4733,0.0,0.0,0.0,0.0,0.0,0.0,0.0,0.0,0.0,0.0,0.0,0.0,0.0,0.0,0.0,0.0,0.0,0.0,0.0,0.0,0.0,0.0,0.0,0.0,0.0,0.0,0.0,0.0,0.0,0.0,0.0,0.0,0.0,0.0,0.0,0.0,0.0,0.0,0.0,0.0,0.0,0.0,0.0,0.0,0.0,0.0,0.0,0.0,0.0,0.0,0.0,0.0,0.0,0.0,0.0,0.0,0.0,0.0,0.0,0.0,0.0,0.0,0.0,0.0,0.0,0.0,0.0,0.0,0.0,0.0,0.0,0.0,0.0,0.0,0.0,0.0,0.0,0.0,0.0,0.0,0.0,0.0,0.0,0.0,0.0,0.0,0.0,0.0,0.0,0.0,0.0,0.0,0.0,0.0,0.0,0.0,0.0,0.0,0.0,0.0,0.0,0.0,-0.4557,-0.4752,-0.5091,-0.5421,-0.5699,-0.5674,-0.5489,-0.53,-0.5014,0.0,0.0,0.0,0.0,0.0,0.0,0.0,0.0,0.0,0.0,0.0,0.0,0.0,0.0,0.0,0.0,0.0,0.0,0.0,0.0,0.0,0.0,0.0,0.0,0.0,0.0,0.0,0.0,0.0,0.0,0.0,0.0,0.0,0.0,0.0,0.0,0.0,0.0,0.0,0.0,0.0,0.0,0.0,0.0,0.0,0.0,0.0,0.0,0.0,0.0,0.0,0.0,0.0,0.0,0.0,0.0,0.0,0.0,0.0,0.0,0.0,0.0,0.0,0.0,0.0,0.0,0.0,0.0,0.0,0.0,0.0,0.0,0.0,0.0,0.0,0.0,0.0,0.0,0.0,0.0,0.0,0.0,0.0,0.0,0.0,0.0,0.0,0.0,0.0,0.0,0.0,0.0,0.0,0.0,0.0,0.0,0.0,0.0,0.0,0.0,0.0,0.0,-0.4455,-0.4517,-0.4691,-0.5026,-0.5359,-0.5525,-0.5561,-0.5312,-0.5118,-0.4982,0.0,0.0,0.0,0.0,0.0,0.0,0.0,0.0,0.0,0.0,0.0,0.0,0.0,0.0,0.0,0.0,0.0,0.0,0.0,0.0,0.0,0.0,0.0,0.0,0.0,0.0,0.0,0.0,0.0,0.0,0.0,0.0,0.0,0.0,0.0,0.0,0.0,0.0,0.0,0.0,0.0,0.0,0.0,0.0,0.0,0.0,0.0,0.0,0.0,0.0,0.0,0.0,0.0,0.0,0.0,0.0,0.0,0.0,0.0,0.0,0.0,0.0,0.0,0.0,0.0,0.0,0.0,0.0,0.0,0.0,0.0,0.0,0.0,0.0,0.0,0.0,0.0,0.0,0.0,0.0,0.0,0.0,0.0,0.0,0.0,0.0,0.0,0.0,0.0,0.0,0.0,0.0,0.0,0.0,0.0,0.0,0.0,0.0,0.0,0.0,0.0,0.0,-0.4455,-0.4307,-0.4391,-0.4882,-0.5219,-0.5428,-0.5428,-0.4951,-0.4839,0.0,0.0,0.0,0.0,0.0,0.0,0.0,0.0,0.0,0.0,0.0,0.0,0.0,0.0,0.0,0.0,0.0,0.0,0.0,0.0,0.0,0.0,0.0,0.0,0.0,0.0,0.0,0.0,0.0,0.0,0.0,0.0,0.0,0.0,0.0,0.0,0.0,0.0,0.0,0.0,0.0,0.0,0.0,0.0,0.0,0.0,0.0,0.0,0.0,0.0,0.0,0.0,0.0,0.0,0.0,0.0,0.0,0.0,0.0,0.0,0.0,0.0,0.0,0.0,0.0,0.0,0.0,0.0,0.0,0.0,0.0,0.0,0.0,0.0,0.0,0.0,0.0,0.0,0.0,0.0,0.0,0.0,0.0,0.0,0.0,0.0,0.0,0.0,0.0,0.0,0.0,0.0,0.0,0.0,0.0,0.0,0.0,0.0,0.0,0.0,0.0,0.0,0.0,-0.4455,-0.4307,-0.4356,-0.4827,-0.5041,-0.5223,-0.5362,-0.5156,-0.4989,-0.511,0.0,0.0,0.0,0.0,0.0,0.0,0.0,0.0,0.0,0.0,0.0,0.0,0.0,0.0,0.0,0.0,0.0,0.0,0.0,0.0,0.0,0.0,0.0,0.0,0.0,0.0,0.0,0.0,0.0,0.0,0.0,0.0,0.0,0.0,0.0,0.0,0.0,0.0,0.0,0.0,0.0,0.0,0.0,0.0,0.0,0.0,0.0,0.0,0.0,0.0,0.0,0.0,0.0,0.0,0.0,0.0,0.0,0.0,0.0,0.0,0.0,0.0,0.0,0.0,0.0,0.0,0.0,0.0,0.0,0.0,0.0,0.0,0.0,0.0,0.0,0.0,0.0,0.0,0.0,0.0,0.0,0.0,0.0,0.0,0.0,0.0,0.0,0.0,0.0,0.0,0.0,0.0,0.0,0.0,0.0,0.0,0.0,0.0,0.0,0.0,0.0,0.0,-0.3628,-0.3948,-0.4349,-0.4805,-0.4937,-0.5087,-0.5362,-0.5292,-0.5214,-0.5209,0.0,0.0,0.0,0.0,0.0,0.0,0.0,0.0,0.0,0.0,0.0,0.0,0.0,0.0,0.0,0.0,0.0,0.0,0.0,0.0,0.0,0.0,0.0,0.0,0.0,0.0,0.0,0.0,0.0,0.0,0.0,0.0,0.0,0.0,0.0,0.0,0.0,0.0,0.0,0.0,0.0,0.0,0.0,0.0,0.0,0.0,0.0,0.0,0.0,0.0,0.0,0.0,0.0,0.0,0.0,0.0,0.0,0.0,0.0,0.0,0.0,0.0,0.0,0.0,0.0,0.0,0.0,0.0,0.0,0.0,0.0,0.0,0.0,0.0,0.0,0.0,0.0,0.0,0.0,0.0,0.0,0.0,0.0,0.0,0.0,0.0,0.0,0.0,0.0,0.0,0.0,0.0,0.0,0.0,0.0,0.0,0.0,0.0,0.0,0.0,0.0,0.0,-0.2396,-0.3154,-0.4067,-0.4691,-0.481,-0.4885,-0.5163,-0.5302,-0.5392,-0.5389,0.0,0.0,0.0,0.0,0.0,0.0,0.0,0.0,0.0,0.0,0.0,0.0,0.0,0.0,0.0,0.0,0.0,0.0,0.0,0.0,0.0,0.0,0.0,0.0,0.0,0.0,0.0,0.0,0.0,0.0,0.0,0.0,0.0,0.0,0.0,0.0,0.0,0.0,0.0,0.0,0.0,0.0,0.0,0.0,0.0,0.0,0.0,0.0,0.0,0.0,0.0,0.0,0.0,0.0,0.0,0.0,0.0,0.0,0.0,0.0,-0.0,-0.0,0.0,0.0,0.0,0.0,0.0,0.0,0.0,0.0,0.0,0.0,0.0,0.0,0.0,0.0,0.0,0.0,0.0,0.0,0.0,0.0,0.0,0.0,0.0,0.0,0.0,0.0,0.0,0.0,0.0,0.0,0.0,0.0,0.0,0.0,0.0,0.0,0.0,0.0,0.0,0.0,-0.2379,-0.1431,-0.1842,-0.4294,-0.4745,-0.4425,-0.337,-0.4602,-0.5371,-0.5393,-0.2485,0.0,0.0,0.0,0.0,0.0,0.0,0.0,0.0,0.0,0.0,0.0,0.0,0.0,0.0,0.0,0.0,0.0,0.0,0.0,0.0,0.0,0.0,0.0,0.0,0.0,0.0,0.0,0.0,0.0,0.0,0.0,0.0,0.0,0.0,0.0,0.0,0.0,0.0,0.0,0.0,0.0,0.0,0.0,0.0,0.0,0.0,0.0,0.0,0.0,0.0,0.0,0.0,0.0,0.0,0.0,0.0,0.0,0.0,0.0,-0.0,-0.0,0.0,0.0,0.0,0.0,0.0,0.0,0.0,0.0,0.0,0.0,0.0,0.0,0.0,0.0,0.0,0.0,0.0,0.0,0.0,0.0,0.0,0.0,0.0,0.0,0.0,0.0,0.0,0.0,0.0,0.0,0.0,0.0,0.0,0.0,0.0,0.0,0.0,0.0,0.0,0.0,-0.1415,-0.1741,-0.2185,-0.2313,-0.3764,-0.452,-0.4066,-0.3248,-0.2832,-0.2782,-0.1066,0.0,0.0,0.0,0.0,0.0,0.0,0.0,0.0,0.0,0.0,0.0,0.0,0.0,0.0,0.0,0.0,0.0,0.0,0.0,0.0,0.0,0.0,0.0,0.0,0.0,0.0,0.0,0.0,0.0,0.0,0.0,0.0,0.0,0.0,0.0,0.0,0.0,0.0,0.0,0.0,0.0,0.0,0.0,0.0,0.0,0.0,0.0,0.0,0.0,0.0,0.0,0.0,0.0,-0.0,-0.0,-0.0,-0.0,-0.0,-0.0,-0.0,-0.0,-0.0,-0.0,0.0,0.0,0.0,0.0,0.0,0.0,0.0,0.0,0.0,0.0,0.0,0.0,0.0,0.0,0.0,0.0,0.0,0.0,0.0,0.0,0.0,0.0,-0.0,-0.0,-0.0,-0.0,-0.0,0.0,0.0,0.0,0.0,0.0,0.0,0.0,0.0,0.0,0.0,0.0,-0.1024,-0.2523,-0.279,-0.0267,-0.2228,-0.3931,-0.4411,-0.1688,-0.0,-0.0,-0.0,-0.0,0.0,0.0,0.0,0.0,0.0,0.0,0.0,0.0,0.0,0.0,0.0,0.0,0.0,0.0,0.0,0.0,0.0,0.0,0.0,0.0,0.0,0.0,0.0,0.0,0.0,0.0,0.0,0.0,0.0,0.0,0.0,0.0,0.5262,0.5163,0.0,0.0,0.0,0.0,0.0,0.0,0.0,0.0,0.0,0.0,0.0,0.0,0.0,0.2091,-0.0,0.0511,0.0445,-0.0,-0.0,-0.0,-0.0,-0.0,-0.0,-0.0,-0.0,0.0,-0.0,-0.0,0.0,0.0,0.0,0.0,0.0,0.0,0.0,0.0,0.0,0.0,0.0,0.0,0.0,0.0,0.0,0.0,0.0,0.0,0.0,0.0,0.0,0.0,-0.0,-0.0,-0.0,-0.0,-0.0,-0.0,-0.0,-0.0,-0.0,-0.0,0.0,0.0,0.0,0.0,0.0,0.0,-0.3629,-0.1971,-0.0464,-0.0067,-0.0337,-0.0607,-0.0674,-0.027,-0.0,-0.0,-0.0,-0.0,-0.0,-0.0,0.0,0.0,0.0,0.0,0.0,0.0,0.0,0.0,0.0,0.0,0.0,0.0,0.0,0.0,0.0,0.0,0.0,0.0,0.0,0.0,0.0,0.0,0.0,0.0,0.0,0.0,0.0,0.0,0.0,0.54,0.5549,0.5315,0.5638,0.5845,0.0,0.0,0.0,0.0,0.0,0.0,0.0,0.0,0.0,0.6909,0.5499,0.4059,0.2729,0.0907,0.0921,0.277,0.088,-0.0,-0.0,-0.0,-0.0,-0.0,-0.0,-0.0,-0.0,-0.0,-0.0,-0.0,0.0,0.0,0.0,0.0,-0.0,-0.0,-0.0,-0.0,-0.0,-0.0,0.0,0.0,0.0,0.0,0.0,0.0,0.0,-0.0,-0.0,-0.0,-0.0,-0.0,-0.0,-0.0,-0.0,-0.0,-0.0,-0.0,-0.0,-0.0,-0.0,-0.0,0.0,0.0,0.0,-0.2652,-0.5182,-0.347,-0.1957,-0.1755,-0.1619,-0.1079,-0.0067,-0.0,-0.0,-0.0,-0.0,-0.0,-0.0,-0.0,-0.0,0.0,0.0,0.0,0.0,0.0,0.0,0.0,0.0,0.0,0.0,0.0,0.0,0.0,0.0,0.0,0.0,0.0,0.0,0.0,0.0,0.0,0.0,0.0,0.0,0.0,0.0,0.0,0.0,0.5533,0.5728,0.5457,0.5879,0.6061,0.0,0.0,0.0,0.0,0.0,0.0,0.6617,0.6716,0.682,0.6841,0.6893,0.625,0.4958,0.333,0.2871,0.3689,0.2893,0.1601,-0.0,-0.0,-0.0,-0.0,-0.0,-0.0,-0.0,-0.0,-0.0,-0.0,-0.0,-0.0,-0.0,-0.0,-0.0,-0.0,-0.0,-0.0,-0.0,-0.0,-0.0,-0.0,-0.0,0.0,0.0,0.0,0.0,-0.0,-0.0,-0.0,-0.0,-0.0,-0.0,-0.0,-0.0,-0.0,-0.0,-0.0,-0.0,-0.0,-0.0,-0.0,0.0,-0.1626,-0.3044,-0.4521,-0.6073,-0.5154,-0.4294,-0.3939,-0.3727,-0.2984,-0.1482,-0.0539,-0.0,-0.0,-0.0,-0.0,-0.0,-0.0,-0.0,-0.0,0.0,0.0,0.0,0.0,0.0,0.0,0.0,0.0,0.0,0.0,0.0,0.0,0.0,0.0,0.0,0.0,0.0,0.0,0.0,0.0,0.0,0.0,0.0,0.0,0.0,0.0,0.0,0.0,0.0,0.5454,0.6156,0.0,0.0,0.0,0.0,0.6659,0.7188,0.7552,0.7519,0.7935,0.7421,0.5556,0.7666,0.7564,0.4928,0.7837,0.6231,0.0369,0.6374,0.6014,-0.0,-0.0,-0.0,-0.0,-0.0,-0.0,-0.0,-0.0,-0.0,-0.0,-0.0,-0.0,-0.0,-0.0,-0.0,-0.0,-0.0,-0.0,-0.0,-0.0,-0.0,-0.0,-0.0,-0.0,0.0,0.0,-0.0,-0.0,-0.0,-0.0,-0.0,-0.0,-0.0,-0.0,-0.0,-0.0,-0.0,-0.0,-0.0,-0.0,-0.0,0.0,-0.1512,-0.6032,-0.6427,-0.6212,-0.6308,-0.6458,-0.6458,-0.614,-0.614,-0.5835,-0.5205,-0.1946,-0.0,-0.0,-0.0,-0.0,-0.0,-0.0,-0.0,-0.0,-0.0,0.0,0.0,0.0,0.0,0.0,0.0,0.0,0.0,0.0,0.0,0.0,0.0,0.0,0.0,0.0,0.0,0.0,0.0,0.0,0.0,0.0,0.0,0.0,0.0,0.0,0.0,0.0,0.0,0.6467,0.7126,0.0,0.7312,0.744,0.7613,0.7563,0.7863,0.8136,0.816,0.8607,0.859,0.7968,0.9109,0.9214,0.8122,0.9214,0.762,0.3213,0.3325,0.4438,0.6198,0.1977,-0.0,-0.0,-0.0,-0.0,-0.0,-0.0,-0.0,-0.0,-0.0,-0.0,-0.0,-0.0,-0.0,-0.0,-0.0,-0.0,-0.0,-0.0,-0.0,-0.0,-0.0,-0.0,-0.0,-0.0,-0.0,-0.0,-0.0,-0.0,-0.0,-0.0,-0.0,-0.0,-0.0,-0.0,-0.0,-0.0,-0.0,-0.0,-0.0,-0.0,-0.0555,-0.2286,-0.4989,-0.6718,-0.6362,-0.65,-0.6651,-0.6528,-0.6404,-0.6252,-0.6033,-0.4474,-0.2466,-0.0149,-0.0,-0.0,-0.0,-0.0,-0.0,-0.0,-0.2674,-0.4662,0.0,0.0,0.0,0.0,0.0,0.0,0.0,0.0,0.0,0.0,0.0,0.0,0.0,0.0,0.0,0.0,0.0,0.0,0.0,0.0,0.0,0.0,0.0,0.0,0.0,0.0,0.6979,0.7218,0.7775,0.8103,0.811,0.8251,0.8316,0.8391,0.8667,0.881,0.8927,0.9323,0.9536,0.9603,1.0053,1.0173,0.9992,0.9126,0.8043,0.6539,0.2097,0.2224,0.6324,0.1977,-0.0,-0.0,-0.0,-0.0,-0.0,-0.0,-0.0,-0.0,-0.0,-0.0,-0.0,-0.0,-0.0,-0.0,-0.0,-0.0,-0.0,-0.0,-0.0,-0.0,-0.0,-0.0,-0.0,-0.0,-0.0,-0.0,-0.0,-0.0,-0.0,-0.0,-0.0,-0.0,-0.0,-0.0,-0.0,-0.0,-0.0,-0.0,-0.0,-0.0,-0.0,-0.0,-0.3401,-0.6048,-0.6525,-0.6664,-0.6402,-0.5601,-0.5445,-0.5676,-0.626,-0.5952,-0.459,-0.2016,-0.07,-0.0,-0.0,-0.0,-0.0,-0.0,-0.2753,-0.4439,-0.4895,0.0,0.0,0.0,0.0,0.0,0.0,0.0,0.0,0.0,0.0,0.0,0.0,0.0,0.0,0.0,0.0,0.0,0.0,0.0,0.0,0.0,0.0,0.0,0.6309,0.6926,0.7513,0.768,0.8149,0.8459,0.8326,0.8705,0.8964,0.9223,0.9599,0.9849,0.9849,1.0103,1.0246,1.0022,1.0158,1.0259,1.0306,0.7945,0.7854,0.995,0.3449,0.0248,-0.0,-0.0,-0.0,-0.0,-0.0,-0.0,-0.0,-0.0,-0.0,-0.0,-0.0,-0.0,-0.0,-0.0,-0.0,-0.0,-0.0,-0.0,-0.0,-0.0,-0.0,-0.0,-0.0,-0.0,-0.0,-0.0,-0.0,-0.0,-0.0,-0.0,-0.0,-0.0,-0.0,-0.0,-0.0,-0.0,-0.0,-0.0,-0.0,-0.0,-0.0,-0.0,-0.009,-0.018,-0.2069,0.0,-0.6789,-0.6936,-0.579,-0.3243,-0.3424,-0.4422,-0.6158,-0.6274,-0.6071,-0.5497,-0.2151,-0.0135,-0.0,-0.0,-0.0,-0.0,-0.0,-0.1017,-0.3127,0.0,0.0,0.0,0.0,0.0,0.0,0.0,0.0,0.0,0.0,0.0,0.0,0.0,0.0,0.0,0.0,0.0,0.0,0.0,0.0,0.0,0.0,0.721,0.7153,0.7619,0.8185,0.8736,0.9165,0.9427,0.9467,0.9767,0.9979,1.0055,1.0074,1.0204,1.0204,1.034,1.0414,1.017,1.0427,1.0551,1.0309,0.9791,0.9518,0.9829,0.8334,0.4844,-0.0,-0.0,-0.0,-0.0,-0.0,-0.0,-0.0,-0.0,-0.0,-0.0,-0.0,-0.0,-0.0,-0.0,-0.0,-0.0,-0.0,-0.0,-0.0,-0.0,-0.0,-0.0,-0.0,-0.0,-0.0,-0.0,-0.0,-0.0,-0.0,-0.0,-0.0,-0.0,-0.0,-0.0,-0.0,-0.0,-0.0,-0.0,-0.0,-0.0,-0.0,-0.0,-0.1169,-0.4604,-0.279,-0.251,-0.6605,-0.7029,-0.5425,-0.1259,-0.4057,-0.6158,-0.6251,-0.6274,-0.6251,-0.6027,-0.4691,-0.275,-0.0135,-0.0,-0.0,-0.0,-0.0,-0.1057,0.0,0.0,0.0,0.0,0.0,0.0,0.0,0.0,0.0,0.0,0.0,0.0,0.0,0.0,0.0,0.0,0.0,0.0,0.0,0.0,0.0,0.0,0.7617,0.8028,0.8191,0.8512,0.8925,0.9363,0.9707,0.9999,0.9946,1.0226,1.04,1.0432,1.0449,1.0449,1.0445,1.0561,1.0574,1.0449,1.0585,1.0721,1.0581,1.0449,1.0411,1.0198,1.0166,0.8112,0.4419,0.1429,-0.0,-0.0,-0.0,-0.0,-0.0,-0.0,-0.0,-0.0,0.0,0.0,0.0,0.0,-0.0,-0.0,-0.0,-0.0,-0.0,-0.0,-0.0,-0.0,-0.0,-0.0,-0.0,-0.0,-0.0,-0.0,-0.0,-0.0,-0.0,-0.0,-0.0,-0.0,-0.0,-0.0,-0.0,-0.0,-0.0,0.0,-0.0,-0.0,-0.0899,-0.3695,-0.3499,-0.3218,-0.4018,-0.5858,-0.6065,-0.3243,-0.5425,-0.6972,-0.648,-0.6404,0.0,0.0,0.0,-0.4004,-0.0135,-0.0,0.0,0.0,0.0,-0.1493,-0.442,-0.5671,0.0,0.0,-0.5841,-0.5805,0.0,0.0,0.0,0.0,0.0,0.0,0.0,0.0,0.0,0.0,0.0,0.0,0.0,0.0,0.0,0.0,0.8316,0.8808,0.9378,0.9549,0.9576,0.971,1.0019,1.0273,1.0119,1.03,1.0581,1.0581,1.0585,1.0585,1.0581,1.071,0.0,0.0,0.0,1.0891,1.0721,1.0585,1.0585,1.0714,1.0178,0.9949,0.9788,0.3894,0.0785,-0.0,-0.0,-0.0,-0.0,-0.0,-0.0,-0.0,-0.0,-0.0,-0.0,-0.0,-0.0,-0.0,-0.0,0.0,0.0,-0.0,-0.0,-0.0,-0.0,-0.0,-0.0,-0.0,-0.0,-0.0,-0.0,-0.0,-0.0,-0.0,-0.0,-0.0,-0.0,-0.0,-0.0,-0.0,-0.0,-0.0,-0.0,-0.0,-0.0,-0.0,-0.3575,-0.5001,-0.1257,-0.4512,-0.7082,-0.7082,-0.7072,0.0,-0.6694,-0.6682,-0.6419,-0.6099,-0.618,-0.4515,-0.062,-0.0137,-0.1868,-0.5852,-0.2515,-0.2357,-0.562,-0.61,-0.6155,-0.5941,-0.5864,-0.595,0.0,0.0,0.0,0.0,0.0,0.0,0.0,0.0,0.0,0.0,0.0,0.0,0.0,0.0,0.0,0.8618,0.91,0.9517,0.9873,1.0219,1.0361,1.0158,1.0321,1.0456,1.0347,1.0622,1.0717,1.0717,1.0721,1.0721,1.0717,1.0789,1.0776,1.0652,1.0936,1.0965,1.0721,1.0724,1.0721,1.0581,1.0471,0.0,0.6061,0.7843,0.5435,-0.0,-0.0,-0.0,-0.0,-0.0,-0.0,-0.0,-0.0,-0.0,-0.0,-0.0,-0.0,-0.0,-0.0,-0.0,-0.0,-0.0,-0.0,-0.0,-0.0,-0.0,0.0,-0.0,-0.0,-0.0,-0.0,-0.0,-0.0,-0.0,-0.0,-0.0,-0.0,-0.0,-0.0,-0.0,-0.0,-0.0,-0.0,-0.0,-0.0,-0.0,-0.0808,-0.2424,-0.5333,-0.6526,-0.7082,-0.7082,-0.7111,-0.6979,-0.6779,-0.6685,-0.6581,-0.6419,-0.6338,-0.5363,-0.3219,-0.1146,-0.1156,-0.3702,-0.4626,-0.3834,-0.1257,-0.4638,-0.5416,-0.374,-0.5398,-0.6251,0.0,0.0,0.0,0.0,0.0,0.0,0.0,0.0,0.0,0.0,0.0,0.7577,0.0,0.0,0.8767,0.9296,0.9696,1.0049,1.0344,1.0578,1.0612,1.0317,1.0541,1.0653,1.0477,1.0616,1.0721,1.0721,1.0721,1.0721,1.0721,1.0887,1.0866,1.0773,1.1121,1.1056,1.0836,1.0924,1.089,1.0608,1.0611,0.9695,0.7713,0.6076,0.3326,-0.0,-0.0,-0.0,-0.0,-0.0,-0.0,-0.0,-0.0,-0.0,-0.0,-0.0,-0.0,-0.0,-0.0,-0.0,-0.0,-0.0,-0.0,-0.0,-0.0,-0.0,-0.0,-0.0,-0.0,-0.0,-0.0,-0.0,-0.0,-0.0,-0.0,-0.0,-0.0,-0.0,-0.0,-0.0,-0.0,-0.0,-0.0,-0.0,-0.0,-0.0,-0.0,-0.1709,-0.6523,-0.7082,-0.7065,-0.7115,-0.7074,-0.7051,-0.6868,-0.6685,-0.6578,-0.6419,-0.6338,-0.5954,-0.5104,-0.3837,-0.3602,-0.4719,-0.5727,-0.5246,-0.3129,-0.4226,-0.4693,-0.4758,-0.5796,-0.6271,0.0,0.0,0.0,0.0,0.0,0.0,0.0,0.0,0.7233,0.7694,0.8113,0.8472,0.8893,0.9215,0.9551,0.9971,1.027,1.0534,1.0775,1.0833,1.0741,1.0446,1.0704,1.0829,1.0639,1.068,1.0744,1.0802,1.0751,1.0731,1.0761,1.0907,1.0978,1.0948,1.1145,1.1168,1.0863,1.1027,1.0557,0.9624,1.0398,1.0709,1.0402,0.3241,-0.0,-0.0,-0.0,-0.0,-0.0,-0.0,-0.0,-0.0,-0.0,-0.0,-0.0,-0.0,-0.0,-0.0,-0.0,-0.0,-0.0,-0.0,-0.0,-0.0,-0.0,-0.0,-0.0,-0.0,-0.0,-0.0,-0.0,-0.0,-0.0,-0.0,-0.0,-0.0,-0.0,-0.0,-0.0,-0.0,-0.0,-0.0,-0.0,-0.0,-0.0,-0.0,-0.0,-0.1709,-0.6523,-0.7065,-0.7121,-0.7058,-0.7139,-0.7051,-0.6871,-0.6685,-0.65,-0.6338,-0.6338,-0.6338,-0.6338,-0.6338,-0.6271,-0.6288,-0.6281,-0.6271,-0.6264,-0.453,-0.4608,-0.6264,-0.6271,-0.6271,0.6622,0.6511,0.6532,0.673,0.7065,0.7481,0.0,0.0,0.8615,0.9049,0.9362,0.953,0.9842,1.0141,1.0446,1.0772,1.0958,1.1077,1.1107,1.1229,1.1206,1.0907,1.0799,1.0836,1.1067,1.0867,1.0829,1.1094,1.087,1.0778,1.0914,1.106,1.108,1.0951,1.1352,1.1302,1.1044,1.1184,0.9462,0.5974,0.9137,1.0693,1.0528,0.3268,-0.0,-0.0,-0.0,-0.0,-0.0,-0.0,-0.0,-0.0,-0.0,-0.0,-0.0,-0.0,-0.0,-0.0,-0.0,-0.0,-0.0,-0.0,-0.0,-0.0,-0.0,-0.0,-0.0,-0.0,-0.0,-0.0,-0.0,-0.0,-0.0,-0.0,-0.0,-0.0,-0.0,-0.0,-0.0,-0.0,-0.0,-0.0,-0.0,-0.0,-0.0,-0.0,-0.0,-0.1709,-0.6523,-0.7108,-0.7061,-0.7143,-0.7139,-0.7051,-0.6871,-0.6852,-0.674,-0.65,-0.65,-0.6419,-0.6338,-0.6338,-0.6264,-0.6264,-0.6264,-0.6268,-0.6278,-0.6028,-0.6028,-0.6278,-0.6268,-0.6264,0.7154,0.6998,0.7093,0.0,0.7798,0.8277,0.8682,0.9001,0.9371,0.9727,0.9988,1.0321,1.0534,1.0741,1.0924,0.0,1.1053,1.1067,1.1151,1.0992,1.0853,1.0819,1.0609,1.0578,1.0877,1.0873,1.0867,1.0904,1.0873,1.0843,1.0816,1.0873,1.0958,1.107,1.1257,1.1348,1.1194,0.9169,0.8287,0.8423,0.573,0.4473,0.4348,0.1386,-0.0,-0.0,-0.0,-0.0,-0.0,-0.0,-0.0,-0.0,-0.0,-0.0,-0.0,-0.0,-0.0,-0.0,-0.0,-0.0,-0.0,-0.0,-0.0,-0.0,-0.0,-0.0,-0.0,-0.0,-0.0,-0.0,-0.0,-0.0,-0.0,-0.0,-0.0,-0.0,-0.0,-0.0,-0.0,-0.0,-0.0,-0.0,-0.0,-0.2629,-0.4663,-0.4663,-0.4638,-0.5334,-0.7031,-0.7282,-0.7231,-0.7139,-0.7139,-0.7051,-0.6871,-0.6915,-0.6857,-0.6602,-0.6602,-0.6585,-0.6444,-0.6434,-0.638,-0.6342,-0.6338,-0.6264,-0.6268,-0.6346,-0.6386,-0.6393,-0.6478,-0.6468,0.7358,0.0,0.0,0.8018,0.8574,0.9079,0.9313,0.9747,1.0161,1.0375,1.0744,1.1036,1.1067,1.1155,1.1226,1.1226,1.1138,1.1107,1.1212,1.0907,1.0673,1.066,1.0432,1.0348,1.0517,1.0711,1.0812,1.0785,1.0846,1.0856,1.0785,1.0782,1.088,1.1097,1.1189,1.1301,1.144,0.868,0.7511,0.7679,0.2425,-0.0,-0.0,-0.0,-0.0,-0.0,-0.0,-0.0,-0.0,-0.0,-0.0,-0.0,-0.0,-0.0,-0.0,-0.0,-0.0,-0.0,-0.0,-0.0,-0.0,-0.0,-0.0,-0.0,-0.0,-0.0,-0.0,-0.0,-0.0,-0.0,-0.0,-0.0,-0.0,-0.0,-0.0,-0.0,-0.0,-0.0,-0.0,-0.0,-0.0,-0.0552,-0.2207,-0.5553,-0.8052,-0.8032,-0.8026,-0.7868,-0.7439,-0.7372,-0.7234,-0.7139,-0.7139,-0.7051,-0.6959,-0.6959,-0.6868,-0.6776,-0.6776,-0.6721,-0.6565,-0.6552,-0.6475,-0.6386,-0.6339,-0.6339,-0.6383,-0.6441,-0.6495,-0.6536,-0.6651,-0.6641,0.0,0.0,0.7977,0.872,0.9351,0.9903,1.0344,1.0907,1.1341,1.1348,1.1589,1.1711,1.143,1.1382,1.1385,1.1385,1.1382,1.1379,1.1385,1.1246,1.0982,1.0551,1.0371,1.0226,0.0,1.0334,1.0626,1.0921,1.0809,1.0792,1.0934,1.0941,1.0945,1.0955,1.1114,1.1436,1.1622,1.1502,0.7742,0.0292,0.0144,-0.0,-0.0,-0.0,-0.0,-0.0,-0.0,-0.0,-0.0,-0.0,-0.0,-0.0,-0.0,-0.0,-0.0,-0.0,-0.0,-0.0,-0.0,-0.0,-0.0,-0.0,-0.0,-0.0,-0.0,-0.0,-0.0,-0.0,-0.0,-0.0,-0.0,-0.0,-0.0,-0.0,-0.0,-0.0,-0.0,-0.0,-0.0,-0.0,-0.0,-0.1794,-0.7659,-0.8332,-0.8036,-0.8261,-0.8144,-0.7832,-0.7409,-0.7217,-0.7139,-0.7139,-0.7139,-0.7139,-0.7051,-0.7051,-0.7051,-0.6868,-0.6868,-0.6867,-0.6668,-0.6658,-0.6699,-0.6688,-0.6539,-0.6539,-0.6685,-0.6542,-0.6549,-0.6695,-0.6698,-0.6698,0.777,0.0,0.8882,0.9639,1.0202,1.066,1.1009,1.1324,1.1514,1.1413,1.1233,1.1006,1.0707,1.0653,1.0653,1.0653,1.0819,1.0945,1.0945,1.0816,1.0517,0.9971,1.0039,0.0,0.0,0.0,1.0395,1.0497,1.0639,1.07,1.0649,1.0758,1.0867,1.0968,1.0905,1.1181,1.165,1.166,0.7648,-0.0,-0.0,-0.0,-0.0,-0.0,-0.0,-0.0,-0.0,-0.0,-0.0,-0.0,-0.0,-0.0,-0.0,-0.0,-0.0,-0.0,-0.0,-0.0,-0.0,-0.0,-0.0,-0.0,-0.0,-0.0,-0.0,-0.0,-0.0,-0.0,-0.0,-0.0,-0.0,-0.0,-0.0,-0.0,-0.0,-0.0,-0.0,-0.0,-0.1121,-0.5176,-0.5857,-0.6539,-0.8601,-0.8623,-0.8424,-0.8313,-0.8041,-0.7794,-0.7688,-0.7451,-0.7323,-0.7323,-0.7143,-0.7139,-0.7139,-0.7139,-0.7051,-0.7051,-0.7051,-0.6977,-0.682,-0.6813,-0.6749,-0.6702,-0.6651,-0.6651,-0.6702,-0.6753,-0.6803,-0.6854,-0.6949,-0.6943,0.8394,0.8981,0.9585,1.0395,1.0853,1.1172,1.1416,1.1548,1.1528,1.1216,1.0877,1.05,1.0042,0.9873,0.9836,0.9941,1.0117,1.0321,1.0411,1.0443,1.0212,0.9964,0.9914,0.9737,0.0,0.0,0.0,1.0209,1.0493,1.0626,1.0531,1.0683,1.0133,0.8979,1.0107,1.0912,1.1223,0.8778,0.4973,-0.0,-0.0,-0.0,-0.0,-0.0,-0.0,-0.0,-0.0,-0.0,-0.0,-0.0,-0.0,-0.0,-0.0,-0.0,-0.0,-0.0,-0.0,-0.0,-0.0,-0.0,-0.0,-0.0,-0.0,-0.0,-0.0,-0.0,-0.0,-0.0,-0.0,-0.0,-0.0,-0.0,-0.0,-0.0,-0.0,-0.0,-0.0,-0.0,-0.1795,-0.7794,-0.8947,-0.8937,-0.891,-0.8745,-0.8514,-0.8338,-0.8041,-0.7899,-0.7802,-0.7653,-0.7471,-0.7439,-0.7323,-0.7143,-0.7139,-0.7139,-0.7139,-0.7139,-0.7139,-0.7099,-0.7007,-0.7004,-0.6959,-0.6858,-0.6807,-0.6807,-0.6858,-0.6905,-0.6956,-0.7007,-0.7099,-0.7092,0.8967,0.9547,1.0107,1.0972,1.1301,1.1447,1.1575,1.1589,1.1402,1.0809,1.0527,1.0164,0.0,0.0,0.8998,0.9279,0.9378,0.9625,0.9972,0.9946,0.9995,0.0,0.0,0.0,0.0,0.0,0.0,1.0093,0.9996,1.0166,1.0444,1.0588,0.9163,0.5769,0.8614,1.0088,1.0216,0.3338,-0.0,-0.0,-0.0,-0.0,-0.0,-0.0,-0.0,-0.0,-0.0,-0.0,-0.0,-0.0,-0.0,-0.0,-0.0,-0.0,-0.0,-0.0,-0.0,-0.0,-0.0,-0.0,-0.0,-0.0,-0.0,-0.0,-0.0,-0.0,-0.0,-0.0,-0.0,-0.0,-0.0,-0.0,-0.0,-0.0,-0.0,-0.0,-0.0,-0.0,-0.1683,-0.7337,-0.8713,-0.8917,-0.8954,-0.8712,-0.8524,-0.8177,-0.7965,-0.7842,-0.7836,-0.7733,-0.7524,-0.7434,-0.7432,-0.7323,-0.7139,-0.7139,-0.7139,-0.7139,-0.7139,-0.7139,-0.7139,-0.7139,-0.7139,-0.7139,-0.7007,-0.7007,-0.7139,-0.7004,-0.7007,-0.7139,-0.7139,-0.7139,0.9778,1.048,1.1073,1.1416,1.1609,1.167,1.1491,1.1189,1.0809,1.0321,0.9568,0.8801,0.0,0.0,0.0,0.813,0.8971,0.0,0.9905,0.7977,0.0,0.6445,0.0,0.6273,0.5737,0.8106,0.0,0.9911,0.7614,0.6364,0.6435,0.9105,1.0283,0.9323,0.5049,0.2735,0.2707,0.0951,-0.0,-0.0,-0.0,-0.0,-0.0,-0.0,-0.0,-0.0,-0.0,-0.0,-0.0,-0.0,-0.0,-0.0,-0.0,-0.0,-0.0,-0.0,-0.0,-0.0,-0.0,-0.0,-0.0,-0.0,-0.0,-0.0,-0.0,-0.0,-0.0,-0.0,-0.0,-0.0,-0.0,-0.0,-0.0,-0.0,-0.0,-0.0,-0.0,-0.0,-0.0449,-0.202,-0.5824,-0.8853,-0.8944,-0.8826,-0.8112,-0.5807,-0.5758,-0.6567,-0.7743,-0.7836,-0.7677,-0.753,-0.7502,-0.7323,-0.7139,-0.7139,-0.7139,-0.7139,-0.7139,-0.7139,-0.7139,-0.7139,-0.7139,-0.7139,-0.7105,-0.7105,-0.7139,-0.7102,-0.7105,-0.7139,-0.7139,-0.7139,1.0463,1.1023,1.1443,1.1657,1.1674,1.1508,1.1016,1.0605,1.0086,0.9242,0.8496,0.0,0.7214,0.0,0.0,0.0,0.0,0.0,0.8983,0.7803,0.5933,0.0,0.2852,0.0,0.4465,0.7773,0.9831,0.9831,0.5467,0.2735,0.2758,0.4807,0.6065,0.6065,0.2034,-0.0,-0.0,-0.0,-0.0,-0.0,-0.0,-0.0,-0.0,-0.0,-0.0,-0.0,-0.0,-0.0,-0.0,-0.0,-0.0,-0.0,-0.0,-0.0,-0.0,-0.0,-0.0,-0.0,-0.0,-0.0,-0.0,-0.0,-0.0,-0.0,-0.0,-0.0,-0.0,-0.0,-0.0,-0.0,-0.0,-0.0,-0.0,-0.0,-0.0,-0.0,-0.0,-0.0,-0.0,-0.0,-0.2683,-0.5361,-0.6715,-0.8078,-0.8323,-0.6649,-0.5525,-0.5562,-0.7846,-0.7939,-0.7836,-0.763,-0.7502,-0.7415,-0.7139,-0.7139,-0.7139,-0.7139,-0.7139,-0.7139,-0.7139,-0.7139,-0.7139,-0.7139,-0.7139,-0.7139,-0.7139,-0.7139,-0.7139,-0.7139,-0.7139,-0.7139,1.1002,1.1335,1.1531,1.1748,1.1596,1.1196,1.0449,0.9951,0.9289,0.8041,0.0,0.7051,0.6488,0.6556,0.6724,0.6839,0.0,0.7147,0.6938,0.7378,0.5765,0.0643,-0.0,0.105,0.3635,0.6714,0.8513,0.8513,0.3175,-0.0,-0.0,-0.0,-0.0,-0.0,-0.0,-0.0,-0.0,-0.0,-0.0,-0.0,-0.0,-0.0,-0.0,-0.0,-0.0,-0.0,-0.0,-0.0,-0.0,-0.0,-0.0,-0.0,-0.0,-0.0,-0.0,-0.0,-0.0,-0.0,-0.0,-0.0,-0.0,-0.0,-0.0,-0.0,-0.0,-0.0,-0.0,-0.0,-0.0,-0.0,-0.0,-0.0,-0.0,-0.0,-0.0,-0.0,-0.0,-0.0,-0.0,-0.0,-0.0,-0.0785,-0.3482,-0.5971,-0.7682,-0.7682,-0.5887,-0.5512,-0.7955,-0.8141,-0.7935,-0.763,-0.7598,-0.7507,-0.7139,-0.7139,-0.7139,-0.7139,-0.7139,-0.7139,-0.7139,-0.7139,-0.7139,-0.7139,-0.7139,-0.7139,-0.7139,-0.7139,-0.7139,-0.7139,-0.7139,-0.7139,1.1216,1.1643,1.1898,1.1704,1.1525,1.1196,1.0449,0.9466,0.0,0.0,0.7007,0.6342,0.5983,0.6346,0.6865,0.7269,0.0,0.0,0.0,0.0,0.114,0.0,0.0,0.0,0.0788,0.133,0.0,0.0,0.067,-0.0,-0.0,-0.0,-0.0,-0.0,-0.0,-0.0,-0.0,-0.0,-0.0,-0.0,-0.0,-0.0,-0.0,-0.0,-0.0,-0.0,-0.0,-0.0,-0.0,-0.0,-0.0,-0.0,-0.0,-0.0,-0.0,-0.0,-0.0,-0.0,-0.0,-0.0,-0.0,-0.0,-0.0,-0.0,-0.0,-0.0,-0.0,-0.0,-0.0,-0.0,-0.0,-0.0,-0.0,-0.0,-0.0,-0.0,-0.0,-0.0,-0.0,-0.0,-0.0,-0.0112,-0.0673,-0.1234,-0.157,-0.157,-0.5092,-0.7852,-0.8002,-0.8041,-0.7935,-0.763,-0.7598,-0.7507,-0.7139,-0.7139,-0.7139,-0.7139,-0.7139,-0.7139,-0.7139,-0.7139,-0.7139,-0.7139,-0.7139,-0.7139,-0.7139,-0.7139,-0.7139,-0.7139,-0.7139,-0.7139,1.1385,1.1667,1.1799,1.1653,1.127,1.0666,0.9686,0.0,0.0,0.0,0.6264,0.5844,0.5616,0.0,0.0,0.0,0.0,0.0,0.0,0.0,0.0,0.0,0.0,0.0,0.0,-0.0,-0.0,-0.0,-0.0,-0.0,-0.0,-0.0,-0.0,-0.0,-0.0,-0.0,-0.0,-0.0,-0.0,-0.0,-0.0,-0.0,-0.0,-0.0,-0.0,-0.0,-0.0,-0.0,-0.0,-0.0,-0.0,-0.0,-0.0,-0.0,-0.0,-0.0,-0.0,-0.0,-0.0,-0.0,-0.0,-0.0,-0.0,-0.0,-0.0,-0.0,-0.0,-0.0,-0.0,-0.0,-0.0,-0.0,-0.0,-0.0,-0.0,-0.0,-0.0,-0.0,-0.0,-0.0,-0.0,-0.0,-0.0,-0.0,-0.0,-0.0,-0.3694,-0.688,-0.8019,-0.8144,-0.8041,-0.7733,-0.7691,-0.7598,-0.7323,-0.7234,-0.7231,-0.7139,-0.7139,-0.7139,-0.7139,-0.7139,-0.7139,-0.7139,-0.7139,-0.7139,-0.7139,-0.7139,-0.7139,-0.7139,-0.7139,-0.7139,1.1372,1.1552,1.1603,1.1538,1.0955,1.0107,0.9011,0.8058,0.0,0.0,0.5684,0.5504,0.5452,0.0,0.0,0.0,0.0,0.0,0.0,0.0,0.0,0.0,0.0,0.0,-0.0,-0.0,0.0,-0.0,-0.0,-0.0,-0.0,-0.0,-0.0,-0.0,-0.0,-0.0,-0.0,-0.0,-0.0,-0.0,-0.0,-0.0,-0.0,-0.0,-0.0,-0.0,-0.0,-0.0,-0.0,-0.0,-0.0,-0.0,-0.0,-0.0,-0.0,-0.0,-0.0,-0.0,-0.0,-0.0,-0.0,-0.0,-0.0,-0.0,-0.0,-0.0,-0.0,-0.0,-0.0,-0.0,-0.0,-0.0,-0.0,-0.0,-0.0,-0.0,-0.0,-0.0,-0.0,-0.0,-0.0,-0.0,-0.0,-0.0,-0.0,-0.0,-0.202,-0.4729,-0.7988,-0.8327,-0.8144,-0.7836,-0.7813,-0.7709,-0.7427,-0.7399,-0.7323,-0.7143,-0.7139,-0.7139,-0.7139,-0.7139,-0.7139,-0.7139,-0.7139,-0.7139,-0.7139,-0.7139,-0.7139,-0.7139,-0.7139,-0.7143,1.1229,1.1471,1.1552,1.1274,1.0643,0.9883,0.9096,0.0,0.0,0.6115,0.5674,0.5446,0.5428,0.5576,0.583,0.0,0.0,0.6784,0.0,0.0,0.0,0.0,0.0,0.0,-0.0,-0.0,-0.0,-0.0,-0.0,-0.0,-0.0,-0.0,-0.0,-0.0,-0.0,-0.0,-0.0,-0.0,-0.0,-0.0,-0.0,-0.0,-0.0,-0.0,-0.0,-0.0,-0.0,-0.0,-0.0,-0.0,-0.0,-0.0,-0.0,-0.0,-0.0,-0.0,-0.0,-0.0,-0.0,-0.0,-0.0,-0.0,-0.0,-0.0,-0.0,-0.0,-0.0,-0.0,-0.0,-0.0,-0.0,-0.0,-0.0,-0.0,-0.0,-0.0,-0.0,-0.0,-0.0,-0.0,-0.0,-0.0,-0.0,-0.0,-0.0,-0.0,-0.0224,-0.2455,-0.8084,-0.8377,-0.8041,-0.7939,-0.7888,-0.7753,-0.7553,-0.7458,-0.7415,-0.7415,-0.7231,-0.7139,-0.7139,-0.7139,-0.7139,-0.7139,-0.7139,-0.7139,-0.7139,-0.7139,-0.7139,-0.7139,-0.7139,-0.7064,1.0661,1.1107,1.1182,1.0955,1.0266,0.9452,0.8706,0.0,0.0,0.5983,0.561,0.5428,0.5369,0.5426,0.5583,0.0,0.0,0.0,0.0,0.0,0.0,0.0,0.0,0.0,0.0,0.0,-0.0,-0.0,-0.0,-0.0,-0.0,-0.0,-0.0,-0.0,-0.0,-0.0,-0.0,-0.0,-0.0,-0.0,-0.0,-0.0,-0.0,-0.0,-0.0,-0.0,-0.0,-0.0,-0.0,-0.0,-0.0,-0.0,-0.0,-0.0,-0.0,-0.0,-0.0,-0.0,-0.0,-0.0,-0.0,-0.0,-0.0,-0.0741,-0.4703,-0.309,-0.0,-0.0,-0.0,-0.0,-0.0,-0.0,-0.0,-0.0,-0.0,-0.0,-0.0,-0.0,-0.0,-0.0,-0.0,-0.0,-0.0,-0.0,-0.0,-0.0,-0.0,-0.0896,-0.324,-0.4954,-0.5854,-0.5651,-0.6945,-0.7935,-0.7836,-0.7721,-0.7526,-0.7439,-0.7231,-0.7139,-0.7139,-0.7139,-0.7139,-0.7139,-0.7139,-0.7139,-0.7139,-0.7139,-0.7139,-0.7139,-0.7139,-0.7064,0.8861,0.9913,1.0785,1.0575,0.9798,0.9007,0.0,0.0,0.6213,0.5766,0.5508,0.5355,0.5318,0.4948,0.4754,0.0,0.0,0.2764,0.0,0.0,0.0,0.0,0.0,0.0747,0.0,-0.0,-0.0,-0.0,-0.0,-0.0,-0.0,-0.0,-0.0,-0.0,-0.0,-0.0,-0.0,-0.0,-0.0,-0.0,-0.0,-0.0,-0.0,-0.0,-0.0,-0.0,-0.0,-0.0,-0.0,-0.0,-0.0,-0.0,-0.0,-0.0,-0.0,-0.0,-0.0,-0.0,-0.0,-0.0,-0.0,-0.0,-0.0,-0.1235,-0.7827,-0.6559,-0.2461,-0.0493,-0.0,-0.0,-0.0,-0.0,-0.0,-0.0,-0.0,-0.0,-0.0,-0.0,-0.0,-0.0,-0.0,-0.0,-0.0,-0.0,-0.0,-0.0,-0.0,-0.0,-0.0,-0.2643,-0.4356,-0.4051,-0.5648,-0.6948,-0.7253,-0.754,-0.7584,-0.7457,-0.7231,-0.7139,-0.7139,-0.7139,-0.7139,-0.7139,-0.7058,-0.7061,-0.7061,-0.7064,-0.7068,-0.7068,-0.7068,-0.7078,0.5516,0.7632,1.028,1.0127,0.939,0.852,0.0,0.0,0.5908,0.5457,0.5372,0.5332,0.5115,0.3813,0.3318,0.5117,0.5374,0.0,0.0,0.0,0.0,0.0,0.0,0.2596,0.0247,-0.0,-0.0,-0.0,-0.0,-0.0,-0.0,-0.0,-0.0,-0.0,-0.0,-0.0,-0.0,-0.0,-0.0,-0.0,-0.0,-0.0,-0.0,-0.0,-0.0,-0.0,-0.0,-0.0,-0.0,-0.0,-0.0,-0.0,-0.0,-0.0,-0.0,-0.0,-0.0,-0.0,-0.0,-0.0,-0.0,-0.0,-0.0,-0.1235,-0.7827,-0.9777,-0.8343,-0.1847,-0.0,-0.0,-0.0,-0.0,-0.0,-0.0,-0.0,-0.0,-0.0,-0.0,-0.0,-0.0,-0.0,-0.0,-0.0,-0.0,-0.0,-0.0,-0.0,-0.0,-0.0,-0.2643,-0.4356,-0.4051,-0.4051,-0.4457,-0.5376,-0.6853,-0.7684,-0.7638,-0.7323,-0.7139,-0.7139,-0.7139,-0.7139,-0.7139,-0.7074,-0.7084,-0.7084,-0.7094,-0.7101,-0.7101,-0.7101,-0.7115,0.5778,0.7111,0.8136,0.8161,0.7858,0.7343,0.686,0.0,0.5856,0.5277,0.5071,0.4832,0.4163,0.3299,0.2499,0.1826,0.1735,0.0,0.0,0.0,0.0,0.0,0.0,0.4465,0.0,0.0,-0.0,-0.0,-0.0,-0.0,-0.0,-0.0,-0.0,-0.0,-0.0,-0.0,-0.0,-0.0,-0.0,-0.0,-0.0,-0.0,-0.0,-0.0,-0.0,-0.0,-0.0,-0.0,-0.0,-0.0,-0.0,-0.0,-0.0,-0.0,-0.0,-0.0,-0.0,-0.0,-0.0,-0.0,-0.0,-0.0,-0.0,-0.037,-0.2471,-0.6185,-0.8421,-0.1851,-0.0,-0.0,-0.0,-0.0,-0.0,-0.0,-0.0,-0.0,-0.0,-0.0,-0.0,-0.0,-0.0,-0.0,-0.0,-0.0,-0.0,-0.0,-0.0,-0.0,-0.0,-0.0881,-0.1387,-0.132,-0.456,-0.6095,-0.456,-0.6445,-0.7584,-0.7638,-0.7323,-0.7139,-0.7139,-0.7139,-0.7058,-0.7074,-0.7081,-0.6269,-0.4734,-0.4736,-0.4739,-0.4739,-0.6385,-0.7128,0.0,0.667,0.6912,0.7158,0.6953,0.0,0.0,0.0,0.5543,0.503,0.4927,0.469,0.4038,0.3738,0.2978,0.1315,0.1123,0.0,0.0,0.0,0.0,0.0,0.0,0.0,0.0,0.0534,-0.0,-0.0,-0.0,-0.0,-0.0,-0.0,-0.0,-0.0,-0.0,-0.0,-0.0,-0.0,-0.0,-0.0,-0.0,-0.0,-0.0,-0.0,-0.0,-0.0,-0.0,-0.0,0.0,-0.0,-0.0,-0.0,-0.0,-0.0,-0.0,-0.0,-0.0,-0.0,-0.0,-0.0,-0.0,-0.0,-0.0,-0.0,-0.0,-0.2843,-0.5201,-0.1112,-0.0,-0.0,-0.0,-0.0,-0.0,-0.0,-0.0,-0.0,-0.0,-0.0,-0.0,-0.0,-0.0,-0.0,-0.0,-0.0,-0.0,-0.0,-0.0,-0.0,-0.0,-0.0,-0.0,-0.0,-0.4842,-0.7321,-0.5653,-0.6839,-0.7584,-0.7638,-0.7326,-0.7143,-0.7139,-0.7064,-0.7074,-0.7084,-0.7098,-0.6376,-0.4928,-0.3132,-0.2236,-0.2236,-0.3771,-0.4408,0.0,0.0,0.0,0.0,0.0,0.0,0.0,0.0,0.0,0.4731,0.4901,0.4957,0.4578,0.4765,0.444,0.3095,0.0,0.0,0.0,0.0,0.0,0.0,0.6983,0.0,0.423,0.1847,0.0403,0.0669,0.0537,0.0404,0.0404,0.0404,0.0269,-0.0,-0.0,-0.0,-0.0,-0.0,-0.0,-0.0,-0.0,-0.0,-0.0,-0.0,-0.0,-0.0,-0.0,-0.0,-0.0,-0.0,-0.0,-0.0,-0.0,-0.0,-0.0,-0.0,-0.0,-0.0,-0.0,-0.0,-0.0,-0.0,-0.0,-0.0,-0.0,-0.0,-0.0,-0.0,-0.0,-0.0,-0.0,-0.0,-0.0,-0.0,-0.0,-0.0,-0.0,-0.0,-0.0,-0.0,-0.0,-0.0,-0.0,-0.0,-0.0,-0.0,-0.0,-0.0,-0.0,-0.0,-0.0,-0.0,-0.4748,-0.8026,-0.8045,-0.7836,-0.7701,-0.761,-0.7439,-0.7234,-0.6877,-0.6818,-0.692,-0.7091,-0.6758,-0.6588,-0.6588,-0.2156,-0.0,-0.0,-0.0,-0.0,0.4581,0.0,0.4921,0.5029,0.5044,0.0,0.0,0.0,0.0,0.0,0.0,0.0,0.0,0.0,0.0,0.0,0.0,0.0,0.0,0.0,0.0,0.9001,0.8952,0.8759,0.8436,0.5609,0.477,0.7251,0.5137,0.3774,0.3774,0.3774,0.2641,0.0126,-0.0,-0.0,-0.0,-0.0,-0.0,-0.0,-0.0,-0.0,-0.0,-0.0,-0.0,-0.0,-0.0,-0.0,-0.0,-0.0,-0.0,-0.0,-0.0,-0.0,-0.0,-0.0,-0.0,-0.0,-0.0,-0.0,-0.0,-0.0,-0.0,-0.0,-0.0,-0.0,-0.0,-0.0,-0.0,-0.0,-0.0,-0.0,-0.0,-0.0,-0.0,-0.0,-0.0,-0.0,-0.0,-0.0,-0.0,-0.0,-0.0,-0.0,-0.0,-0.0,-0.0,-0.0,-0.0,-0.0,-0.0,-0.0,-0.4814,-0.8026,-0.8045,-0.7733,-0.7674,-0.7641,-0.7397,-0.6349,-0.4493,-0.4408,-0.523,-0.7058,-0.3509,-0.1707,-0.1707,-0.0539,-0.0,-0.0,-0.0,-0.0,0.4049,0.4301,0.4539,0.4575,0.4663,0.4697,0.0,0.0,0.0,0.0,0.0,0.0,0.0,0.0,0.0,0.0,0.5791,0.0,0.0,0.0,0.0,0.9245,0.9459,0.9645,0.9795,0.7241,0.6792,0.9558,0.8138,0.7107,0.7107,0.7107,0.6362,0.455,0.3067,0.1475,-0.0,-0.0,-0.0,-0.0,-0.0,-0.0,-0.0,-0.0,-0.0,-0.0,-0.0,-0.0,-0.0,-0.0,-0.0,-0.0,-0.0,-0.0,-0.0,-0.0,-0.0,-0.0,-0.0,-0.0,-0.0,-0.0,-0.0,-0.0,-0.0,-0.0,-0.0,-0.0,-0.0,-0.0,-0.0,-0.0,-0.0,-0.0,-0.0,-0.0,-0.0,-0.0,-0.0,-0.0,-0.0,-0.0,-0.0,-0.0,-0.0,-0.0,-0.0,-0.0,-0.0,-0.0,-0.0,-0.0,-0.2629,-0.5365,-0.7792,-0.7889,-0.7272,-0.6047,-0.6957,-0.6781,-0.5239,-0.3124,-0.2519,-0.3785,-0.1349,-0.0,-0.0,-0.0,-0.0,-0.0,-0.0,-0.0,0.3972,0.4253,0.4528,0.4592,0.4687,0.4684,0.0,0.0,0.0,0.0,0.0,0.0,0.0,0.0,0.0,0.0,0.0,0.0,0.779,0.8056,0.8448,0.9367,0.9502,0.9509,0.9771,0.8142,0.7782,0.97,0.9822,0.9822,0.9822,0.9822,0.9822,0.9822,0.7096,0.4291,0.1482,0.0494,-0.0,-0.0,-0.0,-0.0,-0.0,-0.0,-0.0,-0.0,-0.0,-0.0,-0.0,-0.0,-0.0,-0.0,-0.0,-0.0,-0.0,-0.0,-0.0,-0.0,-0.0,-0.0,-0.0,-0.0,-0.0,-0.0,-0.0,-0.0,-0.0,-0.0,-0.0,-0.0,-0.0,-0.0,-0.0,-0.0,-0.0,-0.0,-0.0,-0.0,-0.0,-0.0,-0.0,-0.0,-0.0,-0.0,-0.0,-0.0,-0.0,-0.0,-0.0,-0.0,-0.0,-0.0,-0.0,-0.1819,-0.6404,-0.7541,-0.7024,-0.4764,-0.5931,-0.6529,-0.608,-0.2146,-0.0,-0.0,-0.0,-0.0,-0.0,-0.0,-0.0,-0.0,-0.0,-0.0,0.3944,0.4331,0.4602,0.4328,0.4511,0.4657,0.0,0.0,0.0,0.0,0.0,0.0,0.0,0.0,0.0,0.0,0.0,0.7531,0.0,0.0,0.9133,0.9552,0.0,0.972,0.9562,0.9457,0.9464,0.9822,0.9822,0.9822,0.9822,0.9822,0.9822,0.9822,0.9281,0.8823,0.8332,0.2718,-0.0,-0.0,-0.0,-0.0,-0.0,-0.0,-0.0,-0.0,-0.0,-0.0,-0.0,-0.0,-0.0,-0.0,-0.0,-0.0,-0.0,-0.0,-0.0,-0.0,-0.0,-0.0,-0.0,-0.0,-0.0,-0.0,-0.0,-0.0,-0.0,-0.0,-0.0,-0.0,-0.0,-0.0,-0.0,-0.0,-0.0,-0.0,-0.0,-0.0,-0.0,-0.0,-0.0,-0.0,-0.0,-0.0,-0.0,-0.0,-0.0,-0.0,-0.0,-0.0,-0.0,-0.0,-0.0,-0.0303,-0.1111,-0.5379,-0.785,-0.7437,-0.3504,-0.1164,-0.1102,-0.0362,-0.0,-0.0,-0.0,-0.0,-0.0,-0.0,-0.0,-0.0,-0.0,-0.0,0.3744,0.4111,0.4419,0.4227,0.4718,0.5138,0.5044,0.0,0.0,0.0,0.0,0.0,0.0,0.0,0.0,0.698,0.0,0.8085,0.8685,0.8832,0.9116,0.9464,0.949,0.9572,0.9694,0.9697,0.9822,0.9822,0.9822,0.9822,0.9822,0.9822,0.9822,0.9822,0.9774,0.9824,0.9851,0.6815,0.3458,-0.0,-0.0,-0.0,-0.0,-0.0,-0.0,-0.0,-0.0,-0.0,-0.0,-0.0,-0.0,-0.0,-0.0,-0.0,-0.0,-0.0,-0.0,-0.0,-0.0,-0.0,-0.0,-0.0,-0.0,-0.0,-0.0,-0.0,-0.0,-0.0,-0.0,-0.0,-0.0,-0.0,-0.0,-0.0,-0.0,-0.0,-0.0,-0.0,-0.0,-0.0,-0.0,-0.0,-0.0,-0.0,-0.0,-0.0,-0.0,-0.0,-0.0,-0.0,-0.0,-0.0,-0.0,-0.0,-0.0,-0.2224,-0.3644,-0.3644,-0.1362,-0.0,-0.0,-0.0,-0.0,-0.0,-0.0,-0.0,-0.0,-0.0,-0.0,-0.0,-0.0,-0.0,0.3622,0.3931,0.4204,0.4237,0.0,0.5386,0.541,0.0,0.0,0.0,0.0,0.0,0.0,0.0,0.0,0.7749,0.8131,0.8593,0.8766,0.8945,0.9073,0.9447,0.9447,0.9572,0.9819,0.9822,0.9822,0.9822,0.9822,0.9822,0.9822,0.9822,0.9822,0.9822,0.901,0.8649,0.8619,0.9377,0.653,-0.0,-0.0,-0.0,-0.0,-0.0,-0.0,-0.0,-0.0,-0.0,-0.0,-0.0,-0.0,-0.0,-0.0,-0.0,-0.0,-0.0,-0.0,-0.0,-0.0,-0.0,-0.0,-0.0,-0.0,-0.0,-0.0,-0.0,-0.0,-0.0,-0.0,-0.0,-0.0,-0.0,-0.0,-0.0,-0.0,-0.0,-0.0,-0.0,-0.0,-0.0,-0.0,-0.0,-0.0,-0.0,-0.0,-0.0,-0.0,-0.0,-0.0,-0.0,-0.0,-0.0,-0.0,-0.0,-0.0,-0.0,-0.0,-0.0,-0.0,-0.0,-0.0,-0.0,-0.0,-0.0,-0.0,-0.0,-0.0,-0.0,-0.0,-0.0,-0.0,-0.0,0.3741,0.4009,0.4227,0.4412,0.0,0.0,0.545,0.5464,0.0,0.0,0.0,0.0,0.0,0.7018,0.7491,0.7936,0.8512,0.9023,0.9316,0.9572,0.9697,0.9819,0.9819,0.9819,0.9822,0.9822,0.9822,0.9822,0.9822,0.9822,0.9822,0.9822,0.9822,0.9822,0.6785,0.5251,0.5219,0.8301,0.6451,-0.0,-0.0,-0.0,-0.0,-0.0,-0.0,-0.0,-0.0,-0.0,-0.0,-0.0,-0.0,-0.0,-0.0,-0.0,-0.0,-0.0,-0.0,-0.0,-0.0,-0.0,-0.0,-0.0,-0.0,-0.0,-0.0,-0.0,-0.0,-0.0,-0.0,-0.0,-0.0,-0.0,-0.0,-0.0,-0.0,-0.0,-0.0,-0.0,-0.0,-0.0,-0.0,-0.0,-0.0,-0.0,-0.0,-0.0,-0.0,-0.0,-0.0,-0.0,-0.0,-0.0,-0.0,-0.0,-0.0,-0.0,-0.0,-0.0,-0.0,-0.0,-0.0,-0.0,-0.0,-0.0,-0.0,-0.0,-0.0,-0.0,-0.0,-0.0,-0.0,-0.0,0.367,0.4012,0.4372,0.4338,0.0,0.0,0.0,0.0,0.0,0.0,0.6978,0.0,0.0,0.0,0.7801,0.8221,0.8662,0.9042,0.9519,0.9572,0.9697,0.9822,0.9822,0.9822,0.9822,0.9697,0.9697,0.9697,0.9572,0.9569,0.9569,0.9569,0.9572,0.9822,0.8607,0.6978,0.4931,0.4082,0.2486,-0.0,-0.0,-0.0,-0.0,-0.0,-0.0,-0.0,-0.0,-0.0,-0.0,-0.0,-0.0,-0.0,-0.0,-0.0,-0.0,-0.0,-0.0,-0.0,-0.0,-0.0,-0.0,-0.0,-0.0,-0.0,-0.0,-0.0,-0.0,-0.0,-0.0,-0.0,-0.0,-0.0,-0.0,-0.0,-0.0,-0.0,-0.0,-0.0,-0.0,-0.0,-0.0,-0.0,-0.0,-0.0,-0.0,-0.0,-0.0,-0.0,-0.0,-0.0,-0.0,-0.0,-0.0,-0.0,-0.0,-0.0,-0.0,-0.0,-0.0,-0.0,-0.0,-0.0,-0.0,-0.0,-0.0,-0.0,-0.0,-0.0,-0.0,-0.0,-0.0,-0.0,0.3673,0.3978,0.4321,0.0,0.0,0.0,0.0,0.0,0.0,0.0,0.75,0.0,0.0,0.0,0.0,0.0,0.8706,0.9083,0.9486,0.9456,0.9572,0.9694,0.9697,0.9697,0.9697,0.9572,0.9496,0.9557,0.9422,0.9419,0.9419,0.9422,0.954,0.9665,0.9811,0.8696,0.6427,0.2166,-0.0,-0.0,-0.0,-0.0,-0.0,-0.0,-0.0,-0.0,-0.0,-0.0,-0.0,-0.0,-0.0,-0.0,-0.0,-0.0,-0.0,-0.0,-0.0,-0.0,-0.0,-0.0,-0.0,-0.0,-0.0,-0.0,-0.0,-0.0,-0.0,-0.0,-0.0,-0.0,-0.0,-0.0,-0.0,-0.0,-0.0,-0.0,-0.0,-0.0,-0.0,-0.0,-0.0,-0.0,-0.0,-0.0,-0.0,-0.0,-0.0,-0.0,-0.0,-0.0,-0.0,-0.0,-0.0,-0.0,-0.0,-0.0,-0.0,-0.0,-0.0,-0.0,-0.0,0.1437,0.1527,-0.0,-0.0,-0.0,-0.0,-0.0,-0.0,-0.0,-0.0,-0.0,0.3792,0.3907,0.0,0.0,0.0,0.0,0.0,0.0,0.0,0.0,0.0,0.7848,0.7807,0.7878,0.0,0.8255,0.8769,0.9168,0.9168,0.9322,0.9438,0.9438,0.9438,0.9438,0.9438,0.9438,0.9446,0.9443,0.9396,0.9396,0.9396,0.9511,0.9507,0.9503,0.9709,0.9756,0.9752,0.3255,-0.0,-0.0,-0.0,-0.0,-0.0,-0.0,-0.0,-0.0,-0.0,-0.0,-0.0,-0.0,-0.0,-0.0,-0.0,-0.0,-0.0,-0.0,-0.0,-0.0,-0.0,-0.0,-0.0,-0.0,-0.0,-0.0,-0.0,-0.0,-0.0,-0.0,-0.0,-0.0,-0.0,-0.0,-0.0,-0.0,-0.0,-0.0,-0.0,-0.0,-0.0,-0.0,-0.0,-0.0,-0.0,-0.0,-0.0,-0.0,-0.0,-0.0,-0.0,-0.0,-0.0,-0.0,-0.0,-0.0,-0.0,-0.0,-0.0,-0.0,-0.0,0.0095,0.009,0.4585,0.4855,0.018,-0.0,-0.0,-0.0,-0.0,-0.0,-0.0,-0.0,-0.0,0.3822,0.0,0.0,0.0,0.0,0.0,0.0,0.0,0.0,0.0,0.816,0.8011,0.8278,0.8255,0.0,0.8464,0.8709,0.894,0.9168,0.9209,0.9319,0.9436,0.9436,0.9436,0.9436,0.9201,0.9127,0.9293,0.9054,0.894,0.9054,0.9054,0.9106,0.9053,0.9166,0.7143,0.2929,0.0975,-0.0,-0.0,-0.0,-0.0,-0.0,-0.0,-0.0,-0.0,-0.0,-0.0,-0.0,-0.0,-0.0,-0.0,-0.0,-0.0,-0.0,-0.0,-0.0,-0.0,-0.0,-0.0,-0.0,-0.0,-0.0,-0.0,-0.0,-0.0,-0.0,-0.0,-0.0,-0.0,-0.0,-0.0,-0.0,-0.0,-0.0,-0.0,-0.0,-0.0,-0.0,-0.0,-0.0,-0.0,-0.0,-0.0,-0.0,-0.0,-0.0,-0.0,-0.0,-0.0,-0.0,-0.0,-0.0,-0.0,-0.0,-0.0,-0.0,-0.0,0.3566,0.5642,0.5628,0.339,0.2978,0.497,0.1741,-0.0,-0.0,-0.0,-0.0,-0.0,-0.0,-0.0,0.3907,0.0,0.0,0.0,0.0,0.0,0.0,0.0,0.0,0.0,0.0,0.8258,0.8556,0.8466,0.8407,0.854,0.8712,0.8826,0.894,0.9051,0.9054,0.9054,0.9054,0.9054,0.9054,0.8826,0.8838,0.8931,0.8692,0.8709,0.8712,0.7718,0.7183,0.7143,0.6037,0.3649,-0.0,-0.0,-0.0,-0.0,-0.0,-0.0,-0.0,-0.0,-0.0,-0.0,-0.0,-0.0,-0.0,-0.0,-0.0,-0.0,-0.0,-0.0,-0.0,-0.0,-0.0,-0.0,-0.0,-0.0,-0.0,-0.0,-0.0,-0.0,-0.0,-0.0,-0.0,-0.0,-0.0,-0.0,-0.0,-0.0,-0.0,-0.0,-0.0,-0.0,-0.0,-0.0,-0.0,-0.0,-0.0,-0.0,-0.0,-0.0,-0.0,-0.0,-0.0,-0.0,-0.0,-0.0,-0.0,-0.0,-0.0,-0.0,-0.0,-0.0,0.0909,0.303,0.6213,0.7974,0.8031,0.482,0.3407,0.4219,0.2411,0.0918,-0.0,-0.0,-0.0,-0.0,-0.0,-0.0,0.0,0.0,0.0,0.0,0.0,0.0,0.0,0.0,0.8326,0.8592,0.0,0.8589,0.8676,0.8579,0.8598,0.8709,0.8826,0.8826,0.8712,0.8666,0.8633,0.852,0.852,0.852,0.852,0.852,0.8521,0.8496,0.8441,0.8407,0.8407,0.6107,0.4647,0.414,0.1403,-0.0,-0.0,-0.0,-0.0,-0.0,-0.0,-0.0,-0.0,-0.0,-0.0,-0.0,-0.0,-0.0,-0.0,-0.0,-0.0,-0.0,0.0546,0.0771,0.067,0.0223,-0.0,-0.0,-0.0,-0.0,-0.0,-0.0,-0.0,-0.0,-0.0,-0.0,-0.0,-0.0,-0.0,-0.0,-0.0,-0.0,-0.0,-0.0,-0.0,-0.0,-0.0,-0.0,-0.0,-0.0,-0.0,-0.0,-0.0,-0.0,-0.0,-0.0,-0.0,-0.0,-0.0,-0.0,-0.0,-0.0,-0.0,-0.0,-0.0,0.0404,0.2827,0.7714,0.8022,0.8006,0.7975,0.7811,0.5534,0.0856,0.2425,0.2215,-0.0,-0.0,-0.0,-0.0,-0.0,-0.0,0.0,0.4372,0.0,0.0,0.0,0.0,0.0,0.0,0.8158,0.8339,0.8484,0.8639,0.8731,0.8665,0.8598,0.8598,0.8598,0.8598,0.8595,0.8533,0.8551,0.8547,0.8547,0.8547,0.8547,0.8442,0.839,0.8464,0.8264,0.8129,0.8129,0.7517,0.5347,0.1063,0.0375,-0.0,-0.0,-0.0,-0.0,-0.0,-0.0,-0.0,-0.0,-0.0,-0.0,-0.0,-0.0,-0.0,-0.0,-0.0,-0.0,0.0421,0.4592,0.6251,0.5723,0.1505,-0.0,-0.0,-0.0,-0.0,-0.0,-0.0,-0.0,-0.0,-0.0,-0.0,-0.0,-0.0,-0.0,-0.0,-0.0,-0.0,-0.0,-0.0,-0.0,-0.0,-0.0,-0.0,-0.0,-0.0,-0.0,-0.0,-0.0,-0.0,-0.0,-0.0,-0.0,-0.0,-0.0,-0.0,-0.0,-0.0,-0.0,-0.0,-0.0,0.384,0.679,0.7922,0.7999,0.7982,0.7972,0.7939,0.7403,0.6303,0.2654,0.0559,-0.0,-0.0,-0.0,-0.0,-0.0,-0.0,0.0,0.0,0.0,0.0,0.0,0.0,0.0,0.0,0.7838,0.8004,0.8352,0.8655,0.856,0.8573,0.8557,0.8477,0.8491,0.8401,0.8292,0.8238,0.8144,0.8041,0.8041,0.8041,0.8041,0.8038,0.8038,0.8041,0.7873,0.7806,0.7806,0.7708,0.6452,0.3686,0.2403,0.223,0.3375,0.2278,0.1695,0.1695,0.1724,0.1738,0.1644,0.0503,-0.0,-0.0,-0.0,-0.0,0.02,0.2748,0.3795,0.4005,0.5539,0.6912,0.7663,0.4834,0.2244,-0.0,-0.0,-0.0,-0.0,-0.0,-0.0,-0.0,-0.0,-0.0,-0.0,-0.0,-0.0,-0.0,-0.0,-0.0,-0.0,-0.0,-0.0,-0.0,-0.0,-0.0,-0.0,-0.0,-0.0,-0.0,-0.0,-0.0,-0.0,-0.0,-0.0,-0.0,-0.0,-0.0,-0.0,-0.0,-0.0,0.101,0.3644,0.6388,0.8019,0.8002,0.7982,0.7969,0.7959,0.8028,0.7426,0.6091,0.4559,0.2606,-0.0,-0.0,-0.0,-0.0,-0.0,-0.0,0.0,0.0,0.0,0.0,0.0,0.0,0.0,0.0,0.76,0.7743,0.8082,0.8333,0.8367,0.8403,0.8357,0.8313,0.8282,0.8107,0.8,0.7788,0.7687,0.7586,0.7583,0.7583,0.7583,0.7583,0.7583,0.7583,0.7611,0.7595,0.7595,0.7415,0.7427,0.7557,0.5094,0.4842,0.7117,0.5186,0.4231,0.4231,0.4244,0.4165,0.4184,0.2157,0.0988,0.0585,0.0585,0.058,0.0954,0.5441,0.7527,0.7746,0.5482,0.5928,0.7927,0.8027,0.5208,0.1273,0.0328,-0.0,-0.0,-0.0,-0.0,-0.0,-0.0,-0.0,-0.0,-0.0,-0.0,-0.0,-0.0,-0.0,-0.0,-0.0,-0.0,-0.0,-0.0,-0.0,-0.0,-0.0,-0.0,-0.0,-0.0,-0.0,-0.0,-0.0,-0.0,-0.0,-0.0,0.0808,0.1414,0.1411,0.1009,0.2527,0.6908,0.7717,0.8006,0.7975,0.7969,0.7962,0.8045,0.8017,0.6949,0.4776,0.5957,0.4444,-0.0,-0.0,-0.0,-0.0,-0.0,-0.0,0.0,0.0,0.0,0.0,0.0,0.0,0.0,0.0,0.7444,0.0,0.7743,0.7848,0.7879,0.7859,0.7893,0.7721,0.775,0.766,0.7619,0.7631,0.7631,0.7631,0.7631,0.7631,0.7631,0.7631,0.7631,0.7631,0.7464,0.7415,0.7415,0.7234,0.7166,0.7131,0.5484,0.5402,0.7075,0.6796,0.661,0.6613,0.6639,0.6662,0.6582,0.6315,0.5089,0.3146,0.3146,0.314,0.3134,0.3906,0.5553,0.762,0.7244,0.7346,0.7684,0.796,0.754,0.6228,0.1637,-0.0,-0.0,-0.0,-0.0,-0.0,-0.0,-0.0,-0.0,-0.0,-0.0,-0.0,-0.0,-0.0,-0.0,-0.0,-0.0,-0.0,-0.0,-0.0,-0.0,-0.0,-0.0,-0.0,-0.0,-0.0,-0.0,-0.0,-0.0,-0.0,-0.0,0.4051,0.6897,0.6939,0.4841,0.3736,0.452,0.6648,0.7979,0.7972,0.7955,0.7952,0.7969,0.8021,0.7794,0.7515,0.3278,0.0734,-0.0,-0.0,-0.0,-0.0,-0.0,-0.0,0.4017,0.0,0.0,0.0,0.0,0.0,0.0,0.0,0.7143,0.721,0.7322,0.7465,0.7658,0.7645,0.7691,0.7577,0.7502,0.7445,0.7478,0.7415,0.7323,0.7323,0.7323,0.7323,0.7323,0.7323,0.7323,0.7323,0.7234,0.7231,0.7231,0.7143,0.7061,0.7084,0.6435,0.6438,0.7091,0.7081,0.7074,0.7074,0.7138,0.7115,0.7083,0.7111,0.6518,0.5521,0.555,0.5522,0.5527,0.5681,0.6467,0.7626,0.7607,0.7746,0.7798,0.8004,0.6129,0.314,0.0802,-0.0,-0.0,-0.0,-0.0,-0.0,-0.0,-0.0,-0.0,-0.0,-0.0,-0.0,-0.0,-0.0,-0.0,-0.0,-0.0,-0.0,-0.0,-0.0,0.0847,0.3926,0.4461,0.3545,0.0557,-0.0,-0.0,-0.0,-0.0,0.1111,0.4051,0.6575,0.7979,0.8041,0.6945,0.6239,0.6221,0.7338,0.7955,0.7955,0.8045,0.8011,0.7953,0.6576,0.6461,0.7948,0.276,-0.0,-0.0,-0.0,-0.0,-0.0,-0.0,-0.0,0.0,0.0,0.0,0.0,0.0,0.0,0.0,0.0,0.6722,0.0,0.6898,0.7051,0.7322,0.7431,0.7458,0.7471,0.7431,0.7309,0.7354,0.7231,0.7139,0.7139,0.7075,0.7058,0.7132,0.7051,0.7051,0.7139,0.7139,0.7109,0.7034,0.7051,0.7061,0.6967,0.7075,0.7007,0.7024,0.7044,0.7139,0.7139,0.7139,0.7139,0.7139,0.7139,0.7125,0.7067,0.7138,0.7088,0.7098,0.7302,0.7353,0.7464,0.7571,0.7612,0.764,0.6407,0.3409,-0.0,-0.0,-0.0,-0.0,-0.0,-0.0,-0.0,-0.0,-0.0,-0.0,-0.0,-0.0,-0.0,-0.0,-0.0,-0.0,-0.0,-0.0,-0.0,-0.0,-0.0,0.1212,0.5172,0.711,0.67,0.2702,0.0873,-0.0,-0.0,0.1111,0.3441,0.7437,0.7989,0.8038,0.8038,0.8038,0.8038,0.8038,0.8038,0.8038,0.8038,0.8038,0.7984,0.7962,0.5379,0.5287,0.7944,0.2725,-0.0,-0.0,-0.0,-0.0,-0.0,-0.0,-0.0,0.0,0.0,0.0,0.0,0.0,0.0,0.0,0.0,0.6156,0.6437,0.6502,0.6556,0.6719,0.6976,0.7163,0.7156,0.716,0.7156,0.7143,0.7139,0.7139,0.7139,0.6984,0.6922,0.7115,0.6959,0.6959,0.7051,0.7139,0.7021,0.6909,0.6894,0.6817,0.6729,0.6865,0.6943,0.6943,0.7071,0.7139,0.7139,0.7139,0.7139,0.7139,0.7139,0.7058,0.7064,0.7058,0.7143,0.7146,0.7084,0.7098,0.7104,0.7141,0.7174,0.6557,0.2096,0.0284,-0.0,-0.0,-0.0,-0.0,-0.0,-0.0,-0.0,-0.0,-0.0,-0.0,-0.0,-0.0,-0.0,-0.0,-0.0,-0.0,-0.0,-0.0,-0.0,-0.0,-0.0,0.0101,0.0404,0.4524,0.7952,0.7675,0.3337,-0.0,-0.0,0.4356,0.7645,0.7955,0.7989,0.8038,0.8038,0.8038,0.8038,0.8038,0.8038,0.8038,0.8038,0.8038,0.7994,0.7986,0.5387,0.5289,0.7955,0.2727,-0.0,-0.0,-0.0,-0.0,-0.0,-0.0,-0.0,0.0,0.0,0.0,0.0,0.0,0.0,0.5548,0.5577,0.5657,0.5864,0.6057,0.6234,0.639,0.6661,0.6858,0.6858,0.682,0.684,0.6865,0.6858,0.6878,0.6853,0.6803,0.6754,0.6838,0.683,0.6779,0.6868,0.6868,0.6834,0.6802,0.6761,0.6802,0.6844,0.6902,0.6973,0.7065,0.7115,0.7139,0.7139,0.7048,0.7051,0.7136,0.7048,0.7054,0.7139,0.7139,0.7139,0.7143,0.7074,0.6177,0.5008,0.6483,0.5253,0.2367,0.0631,-0.0,-0.0,-0.0,-0.0,-0.0,-0.0,-0.0,-0.0,-0.0,-0.0,-0.0,-0.0,-0.0,-0.0,-0.0,-0.0,-0.0,-0.0,-0.0,-0.0,-0.0,-0.0,-0.0,-0.0,0.1511,0.3927,0.7397,0.639,0.3949,0.0505,0.3136,0.608,0.7782,0.7955,0.8038,0.8038,0.8038,0.8038,0.8038,0.8038,0.8038,0.8038,0.7952,0.7987,0.8018,0.7084,0.5405,0.2913,0.0993,-0.0,-0.0,-0.0,-0.0,-0.0,-0.0,-0.0,0.4439,0.0,0.0,0.0,0.0,0.5017,0.5325,0.0,0.506,0.5311,0.5521,0.5735,0.5989,0.6196,0.6393,0.659,0.6637,0.6555,0.6627,0.6624,0.6647,0.6625,0.6661,0.6637,0.6702,0.6654,0.6671,0.6671,0.6671,0.6676,0.6647,0.6644,0.6733,0.6848,0.6902,0.6973,0.7068,0.7068,0.7068,0.7068,0.6922,0.6905,0.6997,0.6902,0.6915,0.7101,0.7101,0.7068,0.7064,0.7084,0.6186,0.4748,0.4764,0.2785,-0.0,-0.0,-0.0,-0.0,-0.0,-0.0,-0.0,-0.0,-0.0,-0.0,-0.0,-0.0,-0.0,-0.0,-0.0,-0.0,-0.0,0.1362,0.2647,0.2715,0.1314,-0.0,-0.0,0.1212,0.1921,0.0303,-0.0,0.1716,0.7092,0.8042,0.6807,0.3224,0.4244,0.5972,0.7743,0.8038,0.8038,0.8038,0.8038,0.8038,0.8038,0.8038,0.8038,0.8038,0.7952,0.8007,0.799,0.8,0.5484,0.009,-0.0,-0.0,-0.0,-0.0,-0.0,-0.0,-0.0,-0.0,0.0,0.0,0.0,0.0,0.0,0.0,0.4897,0.0,0.4304,0.4802,0.4897,0.5036,0.5481,0.5562,0.5755,0.6342,0.6335,0.6302,0.6441,0.6464,0.6464,0.6464,0.6464,0.6568,0.6711,0.6537,0.6578,0.6659,0.6662,0.6659,0.65,0.6614,0.6682,0.6692,0.6844,0.6922,0.6922,0.6922,0.6922,0.6919,0.6766,0.6702,0.6805,0.6802,0.6899,0.701,0.701,0.7001,0.7074,0.7084,0.7104,0.6671,0.1885,-0.0,-0.0,-0.0,-0.0,-0.0,-0.0,-0.0,-0.0,-0.0,-0.0,-0.0,-0.0,-0.0,-0.0,-0.0,-0.0,-0.0,0.018,0.4064,0.8007,0.8021,0.4048,0.0202,-0.0,0.3632,0.5569,0.111,0.0202,0.1912,0.703,0.7902,0.8029,0.7952,0.8006,0.8026,0.8048,0.8038,0.8038,0.8038,0.8038,0.8038,0.8038,0.8038,0.8038,0.8038,0.8041,0.7955,0.7985,0.7818,0.5344,0.009,-0.0,-0.0,-0.0,-0.0,-0.0,-0.0,-0.0,-0.0,0.539,0.0,0.0,0.0,0.0,0.0,0.5167,0.0,0.408,0.4736,0.4624,0.4482,0.4877,0.4938,0.5101,0.5589,0.5908,0.6108,0.6146,0.6247,0.6318,0.6318,0.6318,0.6404,0.6421,0.6373,0.6342,0.6419,0.6419,0.6419,0.6342,0.6489,0.6589,0.6532,0.6685,0.6763,0.6763,0.6763,0.6763,0.6763,0.661,0.6682,0.6802,0.6695,0.5876,0.4534,0.4534,0.5507,0.7062,0.7066,0.7135,0.6614,0.1844,-0.0,-0.0,-0.0,-0.0,-0.0,-0.0,-0.0,-0.0,-0.0,-0.0,-0.0,-0.0,-0.0,-0.0,-0.0,-0.0,0.0809,0.424,0.6241,0.7435,0.7945,0.6845,0.4751,0.0846,0.1023,0.2739,0.5271,0.5814,0.5667,0.5198,0.6742,0.7965,0.8041,0.7959,0.7965,0.8041,0.8038,0.8038,0.8038,0.8038,0.8038,0.8038,0.7955,0.7955,0.8041,0.7979,0.7985,0.7955,0.4287,0.1541,-0.0,-0.0,-0.0,-0.0,-0.0,-0.0,-0.0,-0.0,-0.0,0.0,0.0,0.0,0.0,0.0,0.0,0.5303,0.4479,0.3837,0.4323,0.4242,0.4151,0.445,0.4507,0.4613,0.4996,0.5311,0.563,0.582,0.5922,0.5979,0.5979,0.6034,0.6071,0.6071,0.6071,0.6095,0.6159,0.6166,0.6217,0.6342,0.6427,0.6471,0.6471,0.662,0.6671,0.6607,0.6607,0.6576,0.6515,0.6448,0.6478,0.6599,0.6506,0.4854,0.2171,0.317,0.4918,0.71,0.71,0.5954,0.3869,0.104,-0.0,-0.0,-0.0,-0.0,-0.0,-0.0,-0.0,-0.0,-0.0,-0.0,-0.0,-0.0,-0.0,-0.0,-0.0,-0.0,0.0629,0.3424,0.5598,0.7232,0.7577,0.7791,0.7146,0.4002,0.1619,0.1554,0.7003,0.7842,0.7232,0.5889,0.6839,0.7852,0.7942,0.8038,0.7746,0.6914,0.7382,0.7872,0.7913,0.794,0.7885,0.7949,0.7965,0.7969,0.7962,0.7976,0.6966,0.4793,0.1634,-0.0,-0.0,-0.0,-0.0,-0.0,-0.0,-0.0,-0.0,-0.0,-0.0,0.0,0.0,0.0,0.0,0.6136,0.0,0.5353,0.4449,0.3701,0.3929,0.3904,0.3948,0.4298,0.4351,0.4404,0.4627,0.4894,0.5123,0.545,0.5559,0.5589,0.5589,0.5701,0.5779,0.5779,0.5779,0.5833,0.5969,0.5996,0.6118,0.6383,0.6396,0.6396,0.6396,0.6529,0.6536,0.64,0.6407,0.6352,0.6224,0.6231,0.6173,0.6064,0.6,0.3778,0.0151,0.2247,0.4406,0.6346,0.6346,0.3804,-0.0,-0.0,-0.0,-0.0,-0.0,-0.0,-0.0,-0.0,-0.0,-0.0,-0.0,-0.0,-0.0,-0.0,-0.0,-0.0,-0.0,-0.0,-0.0,-0.0,0.3129,0.6428,0.6972,0.7488,0.7915,0.8009,0.3785,0.1453,0.6145,0.7127,0.7384,0.7861,0.7746,0.7666,0.7534,0.7813,0.7295,0.5387,0.6627,0.7695,0.7733,0.778,0.768,0.755,0.7859,0.7955,0.7962,0.7483,0.4982,0.018,-0.0,-0.0,-0.0,-0.0,-0.0,-0.0,-0.0,-0.0,-0.0,-0.0,-0.0,0.0,0.0,0.0,0.6384,0.6116,0.0,0.5692,0.4734,0.4109,0.4857,0.4622,0.4467,0.5114,0.5259,0.5325,0.5634,0.576,0.5635,0.5109,0.5362,0.5589,0.5589,0.5613,0.563,0.563,0.563,0.5644,0.5674,0.5783,0.5871,0.5928,0.5932,0.5932,0.5932,0.5962,0.5962,0.5932,0.5939,0.5894,0.5864,0.5899,0.5361,0.4341,0.3923,0.236,-0.0,0.0527,0.0997,0.1415,0.1415,0.0799,-0.0,-0.0,-0.0,-0.0,-0.0,-0.0,-0.0,-0.0,-0.0,-0.0,-0.0,-0.0,-0.0,-0.0,-0.0,-0.0,-0.0,-0.0,-0.0,-0.0,0.0718,0.2332,0.6227,0.7161,0.7448,0.7915,0.3785,0.0272,0.1393,0.4962,0.7785,0.7694,0.7851,0.7229,0.5096,0.6663,0.7295,0.5369,0.637,0.7366,0.7729,0.7732,0.6911,0.4906,0.6776,0.8021,0.7986,0.3984,0.1104,-0.0,-0.0,-0.0,-0.0,-0.0,-0.0,-0.0,-0.0,-0.0,-0.0,-0.0,-0.0,0.6074,0.6923,0.7685,0.7115,0.6798,0.0,0.0,0.5745,0.5229,0.5677,0.536,0.5141,0.5525,0.55,0.546,0.5627,0.5707,0.5544,0.4908,0.5151,0.5333,0.5088,0.5026,0.5026,0.5026,0.5098,0.5203,0.5348,0.5569,0.5661,0.5586,0.5654,0.5661,0.5586,0.5583,0.563,0.5587,0.5636,0.561,0.558,0.5704,0.5367,0.4611,0.4386,0.3164,0.1279,0.0365,-0.0,-0.0,-0.0,-0.0,-0.0,-0.0,-0.0,-0.0,-0.0,-0.0,-0.0,-0.0,-0.0,-0.0,-0.0,-0.0,-0.0,-0.0,-0.0,-0.0,-0.0,-0.0,-0.0,-0.0,-0.0,0.0629,0.2971,0.3514,0.3605,0.3967,0.1889,-0.0,-0.0,0.2196,0.4362,0.5595,0.6786,0.7196,0.611,0.4865,0.3685,0.2686,0.5179,0.7192,0.7376,0.7423,0.7004,0.6074,0.4768,0.3974,0.399,0.1513,-0.0,-0.0,-0.0,-0.0,-0.0,-0.0,-0.0,-0.0,-0.0,-0.0,-0.0,-0.0,-0.0,0.6159,0.7178,0.8267,0.7924,0.7623,0.7306,0.0,0.0,0.0,0.6374,0.6155,0.6005,0.6054,0.5886,0.5701,0.5658,0.572,0.5621,0.5079,0.525,0.5271,0.4678,0.4634,0.4634,0.4634,0.4587,0.4714,0.4982,0.526,0.5362,0.524,0.5376,0.5406,0.5281,0.5277,0.5286,0.5303,0.5307,0.5274,0.5275,0.547,0.5451,0.5359,0.5379,0.4582,0.3109,0.1693,0.0647,-0.0,-0.0,0.0442,0.0994,0.0309,-0.0,-0.0,-0.0,-0.0,-0.0,-0.0,-0.0,-0.0,-0.0,-0.0,-0.0,-0.0,-0.0,-0.0,-0.0,-0.0,-0.0,-0.0,-0.0,-0.0,-0.0,-0.0,-0.0,-0.0,-0.0,-0.0,-0.0,-0.0,0.0729,0.285,0.4597,0.5874,0.6421,0.278,-0.0,-0.0,0.34,0.6071,0.7037,0.7135,0.6919,0.6504,0.2471,-0.0,-0.0,-0.0,-0.0,-0.0,-0.0,-0.0,-0.0,-0.0,-0.0,-0.0,-0.0,-0.0,-0.0,-0.0,-0.0,0.5669,0.6848,0.8129,0.7806,0.797,0.8123,0.7602,0.0,0.666,0.6944,0.0,0.7019,0.7238,0.0,0.0,0.6849,0.6836,0.6642,0.609,0.6078,0.5821,0.5139,0.504,0.504,0.504,0.4545,0.4365,0.4524,0.4697,0.4785,0.4769,0.4911,0.4989,0.4969,0.4969,0.4979,0.4941,0.4941,0.4947,0.4961,0.495,0.5049,0.5156,0.5296,0.5299,0.51,0.4904,0.2935,-0.0,-0.0,0.1914,0.4447,0.1229,-0.0,-0.0,-0.0,-0.0,-0.0,-0.0,-0.0,-0.0,-0.0,-0.0,-0.0,-0.0,-0.0,-0.0,-0.0,-0.0,-0.0,-0.0,-0.0,-0.0,-0.0,-0.0,-0.0,-0.0,-0.0,-0.0,-0.0,-0.0,0.009,0.0362,0.0633,0.0813,0.0906,0.0363,-0.0,-0.0,0.0447,0.2436,0.6679,0.7057,0.5415,0.1235,0.0375,-0.0,-0.0,-0.0,-0.0,-0.0,-0.0,-0.0,-0.0,-0.0,-0.0,-0.0,-0.0,-0.0,-0.0,-0.0,-0.0,0.6987,0.7511,0.8167,0.8733,0.827,0.7777,0.8384,0.7913,0.7503,0.7998,0.0,0.0,0.0,0.0,0.0,0.0,0.7134,0.681,0.6264,0.6477,0.629,0.5316,0.5208,0.5112,0.4889,0.4906,0.4737,0.4244,0.4659,0.4765,0.4307,0.4524,0.4616,0.4475,0.4475,0.4568,0.4653,0.4535,0.4592,0.4775,0.4779,0.484,0.4973,0.5135,0.5243,0.5209,0.5369,0.4549,0.3111,0.3111,0.3999,0.5248,0.3724,0.183,0.029,0.2775,0.3637,0.3281,0.0884,-0.0,-0.0,-0.0,-0.0,-0.0,-0.0,-0.0,-0.0,-0.0,-0.0,-0.0,-0.0,-0.0,-0.0,-0.0,-0.0,-0.0,-0.0,-0.0,-0.0,-0.0,-0.0,-0.0,-0.0,-0.0,-0.0,-0.0,-0.0,-0.0,-0.0,-0.0,0.081,0.2729,0.2981,0.2171,0.0184,-0.0,-0.0,-0.0,-0.0,-0.0,-0.0,-0.0,-0.0,-0.0,-0.0,-0.0,-0.0,-0.0,-0.0,-0.0,-0.0,-0.0,0.7343,0.7637,0.7995,0.9055,0.8556,0.8089,0.9123,0.8833,0.8471,0.8816,0.8758,0.0,0.0,0.0,0.7708,0.7533,0.0,0.6986,0.6489,0.6768,0.6634,0.5653,0.5567,0.5281,0.4674,0.4961,0.4835,0.3938,0.4427,0.4515,0.3961,0.4239,0.4355,0.42,0.4234,0.4358,0.4515,0.4346,0.4405,0.4632,0.4639,0.4698,0.4875,0.4979,0.4838,0.4479,0.4616,0.4962,0.5379,0.4895,0.4956,0.542,0.5379,0.3818,0.1976,0.5109,0.6335,0.5899,0.2796,0.0968,-0.0,-0.0,-0.0,-0.0,-0.0,-0.0,-0.0,-0.0,-0.0,-0.0,-0.0,-0.0,-0.0,-0.0,-0.0,-0.0,-0.0,-0.0,-0.0,-0.0,-0.0,-0.0,-0.0,-0.0,-0.0,-0.0,-0.0,-0.0,-0.0,-0.0,-0.0,-0.0,-0.0,-0.0,-0.0,-0.0,-0.0,-0.0,-0.0,-0.0,-0.0,-0.0,-0.0,-0.0,-0.0,-0.0,-0.0,-0.0,-0.0,-0.0,-0.0,-0.0,0.5752,0.6595,0.7464,0.8068,0.8947,0.9621,0.9673,0.9673,0.9586,0.923,0.9163,0.9038,0.8477,0.8357,0.8199,0.0,0.7506,0.0,0.0,0.6979,0.681,0.6221,0.6184,0.5701,0.4526,0.4443,0.4188,0.3636,0.377,0.3849,0.3799,0.4087,0.42,0.4197,0.4385,0.4512,0.4519,0.4519,0.4519,0.4519,0.4484,0.4598,0.4691,0.4823,0.4102,0.2771,0.2771,0.3794,0.5241,0.352,0.3837,0.5428,0.5428,0.5432,0.5582,0.6105,0.6312,0.6264,0.6126,0.3418,-0.0,-0.0,-0.0,-0.0,-0.0,-0.0,-0.0,-0.0,-0.0,-0.0,-0.0,-0.0,-0.0,-0.0,-0.0,-0.0,-0.0,-0.0,-0.0,-0.0,-0.0,-0.0,-0.0,-0.0,-0.0,-0.0,-0.0,-0.0,-0.0,-0.0,-0.0,-0.0,-0.0,-0.0,-0.0,-0.0,-0.0,-0.0,-0.0,-0.0,-0.0,-0.0,-0.0,-0.0,-0.0,-0.0,-0.0,-0.0,-0.0,-0.0,-0.0,-0.0,0.6703,0.6725,0.6789,0.7794,0.7866,0.7939,0.889,0.9101,0.9098,0.9164,0.8843,0.8563,0.8626,0.7704,0.0,0.0,0.0,0.7006,0.0,0.7116,0.7198,0.6793,0.6725,0.6428,0.5653,0.561,0.5178,0.422,0.4188,0.4044,0.3698,0.3839,0.3992,0.4043,0.4144,0.4263,0.4515,0.4368,0.4368,0.4519,0.4525,0.4532,0.4543,0.4639,0.4496,0.4212,0.3168,0.3708,0.5322,0.4706,0.4831,0.5428,0.5428,0.5498,0.5645,0.5904,0.6139,0.6318,0.6318,0.3532,-0.0,-0.0,-0.0,-0.0,-0.0,-0.0,-0.0,-0.0,-0.0,-0.0,-0.0,-0.0,-0.0,-0.0,-0.0,-0.0,-0.0,-0.0,-0.0,-0.0,-0.0,-0.0,-0.0,-0.0,-0.0,-0.0,-0.0,-0.0,-0.0,-0.0,-0.0,-0.0,-0.0,-0.0,-0.0,-0.0,-0.0,-0.0,-0.0,-0.0,-0.0,-0.0,-0.0,-0.0,-0.0,-0.0,-0.0,-0.0,-0.0,-0.0,-0.0,-0.0,0.6457,0.6442,0.6404,0.7232,0.72,0.7246,0.8258,0.8488,0.8453,0.8562,0.8177,0.7914,0.8122,0.7165,0.6467,0.0,0.0,0.664,0.0,0.7037,0.7077,0.6898,0.696,0.6725,0.5959,0.5873,0.5394,0.422,0.4136,0.3965,0.3622,0.3714,0.3863,0.4016,0.4023,0.4219,0.4515,0.4372,0.4372,0.4519,0.4522,0.4473,0.4484,0.4591,0.4742,0.4967,0.3958,0.4261,0.5428,0.5428,0.5428,0.5428,0.5428,0.5428,0.5571,0.5728,0.5098,0.4023,0.4023,0.2281,-0.0,-0.0,-0.0,-0.0,-0.0,-0.0,-0.0,-0.0,-0.0,-0.0,-0.0,-0.0,-0.0,-0.0,-0.0,-0.0,-0.0,-0.0,-0.0,-0.0,-0.0,-0.0,-0.0,-0.0,-0.0,-0.0,-0.0,-0.0,-0.0,-0.0,-0.0,-0.0,-0.0,-0.0,-0.0,-0.0,-0.0,-0.0,-0.0,0.0719,0.2426,0.0898,-0.0,-0.0,-0.0,-0.0,-0.0,-0.0,0.0899,0.2516,0.0809,-0.0]},{"header":{"parameterUnit":"m.s-1","parameterCategory":1,"la1":30.6,"la2":29.2853,"lo1":-89.7004,"lo2":-87.6739,"dy":0.0162,"dx":0.0183,"nx":112,"ny":82,"refTime":"2023-08-13T12:00:00:Z","depth":0,"parameterNumber":3,"parameterNumberName":"V-component_of_WINDS"},"data":[0.0,0.0,0.0,0.0,0.0,0.0,0.0,0.0,0.0,0.0,0.0,0.0,0.0,0.0,0.0,0.0,0.0,0.0,0.0,0.0,0.0,0.0,0.0,0.0,0.0,0.0,0.0,0.0,0.0,0.0,0.0,0.0,0.0,0.0,0.0,0.0,0.0,0.0,0.0,0.0,0.0,0.0,0.0,0.0,0.0,0.0,0.0,0.0,0.0,0.0,0.0,0.0,0.0,0.0,0.0,0.0,0.0,0.0,0.0,0.0,0.0,0.0,0.0,0.0,0.0,0.0,0.0,0.0,0.0,0.0,0.0,0.0,0.0,0.0,0.0,0.0,0.0,0.0,0.0,0.0,0.0,0.0,0.0,0.0,0.0,0.0,0.0,0.0,0.0,0.0,-2.383,-2.2046,-3.0042,-3.6862,-4.0207,-3.7416,-3.4279,-3.1364,0.0,0.0,0.0,0.0,0.0,0.0,0.0,0.0,0.0,0.0,0.0,0.0,0.0,0.0,0.0,0.0,0.0,0.0,0.0,0.0,0.0,0.0,0.0,0.0,0.0,0.0,0.0,0.0,0.0,0.0,0.0,0.0,0.0,0.0,0.0,0.0,0.0,0.0,0.0,0.0,0.0,0.0,0.0,0.0,0.0,0.0,0.0,0.0,0.0,0.0,0.0,0.0,0.0,0.0,0.0,0.0,0.0,0.0,0.0,0.0,0.0,0.0,0.0,0.0,0.0,0.0,0.0,0.0,0.0,0.0,0.0,0.0,0.0,0.0,0.0,0.0,0.0,0.0,0.0,0.0,0.0,0.0,0.0,0.0,0.0,0.0,0.0,0.0,0.0,0.0,0.0,0.0,0.0,0.0,0.0,0.0,0.0,0.0,0.0,0.0,0.0,0.0,0.0,0.0,-2.3065,-2.8313,-3.2858,-3.6864,-4.0216,-3.7442,-3.529,-3.4755,0.0,0.0,0.0,0.0,0.0,0.0,0.0,0.0,0.0,0.0,0.0,0.0,0.0,0.0,0.0,0.0,0.0,0.0,0.0,0.0,0.0,0.0,0.0,0.0,0.0,0.0,0.0,0.0,0.0,0.0,0.0,0.0,0.0,0.0,0.0,0.0,0.0,0.0,0.0,0.0,0.0,0.0,0.0,0.0,0.0,0.0,0.0,0.0,0.0,0.0,0.0,0.0,0.0,0.0,0.0,0.0,0.0,0.0,0.0,0.0,0.0,0.0,0.0,0.0,0.0,0.0,0.0,0.0,0.0,0.0,0.0,0.0,0.0,0.0,0.0,0.0,0.0,0.0,0.0,0.0,0.0,0.0,0.0,0.0,0.0,0.0,0.0,0.0,0.0,0.0,0.0,0.0,0.0,0.0,0.0,0.0,0.0,0.0,0.0,0.0,0.0,0.0,0.0,-2.1895,-2.4917,-2.9863,-3.3467,-3.6119,-3.7668,-3.6375,-3.4719,-3.2841,-2.8065,0.0,0.0,0.0,0.0,0.0,0.0,0.0,0.0,0.0,0.0,0.0,0.0,0.0,0.0,0.0,0.0,0.0,0.0,0.0,0.0,0.0,0.0,0.0,0.0,0.0,0.0,0.0,0.0,0.0,0.0,0.0,0.0,0.0,0.0,0.0,0.0,0.0,0.0,0.0,0.0,0.0,0.0,0.0,0.0,0.0,0.0,0.0,0.0,0.0,0.0,0.0,0.0,0.0,0.0,0.0,0.0,0.0,0.0,0.0,0.0,0.0,0.0,0.0,0.0,0.0,0.0,0.0,0.0,0.0,0.0,0.0,0.0,0.0,0.0,0.0,0.0,0.0,0.0,0.0,0.0,0.0,0.0,0.0,0.0,0.0,0.0,0.0,0.0,0.0,0.0,0.0,0.0,0.0,0.0,0.0,0.0,0.0,0.0,0.0,0.0,0.0,0.0,-2.3717,-2.6619,-3.0025,-3.3467,-3.5502,-3.5502,-3.4751,-3.3192,-3.0571,-2.7193,0.0,0.0,0.0,0.0,0.0,0.0,0.0,0.0,0.0,0.0,0.0,0.0,0.0,0.0,0.0,0.0,0.0,0.0,0.0,0.0,0.0,0.0,0.0,0.0,0.0,0.0,0.0,0.0,0.0,0.0,0.0,0.0,0.0,0.0,0.0,0.0,0.0,0.0,0.0,0.0,0.0,0.0,0.0,0.0,0.0,0.0,0.0,0.0,0.0,0.0,0.0,0.0,0.0,0.0,0.0,0.0,0.0,0.0,0.0,0.0,0.0,0.0,0.0,0.0,0.0,0.0,0.0,0.0,0.0,0.0,0.0,0.0,0.0,0.0,0.0,0.0,0.0,0.0,0.0,0.0,0.0,0.0,0.0,0.0,0.0,0.0,0.0,0.0,0.0,0.0,0.0,0.0,0.0,0.0,0.0,0.0,0.0,0.0,0.0,0.0,0.0,0.0,-2.5149,-2.6601,-3.0021,-3.3453,-3.5509,-3.5509,-3.2589,-3.0671,-3.0417,-2.7189,0.0,0.0,0.0,0.0,0.0,0.0,0.0,0.0,0.0,0.0,0.0,0.0,0.0,0.0,0.0,0.0,0.0,0.0,0.0,0.0,0.0,0.0,0.0,0.0,0.0,0.0,0.0,0.0,0.0,0.0,0.0,0.0,0.0,0.0,0.0,0.0,0.0,0.0,0.0,0.0,0.0,0.0,0.0,0.0,0.0,0.0,0.0,0.0,0.0,0.0,0.0,0.0,0.0,0.0,0.0,0.0,0.0,0.0,0.0,0.0,0.0,0.0,0.0,0.0,0.0,0.0,0.0,0.0,0.0,0.0,0.0,0.0,0.0,0.0,0.0,0.0,0.0,0.0,0.0,0.0,0.0,0.0,0.0,0.0,0.0,0.0,0.0,0.0,0.0,0.0,0.0,0.0,0.0,0.0,0.0,0.0,0.0,0.0,0.0,0.0,0.0,0.0,-2.4005,-2.661,-3.0021,-3.1549,-3.3166,-3.5328,-3.237,-2.8595,-2.4372,0.0,0.0,0.0,0.0,0.0,0.0,0.0,0.0,0.0,0.0,0.0,0.0,0.0,0.0,0.0,0.0,0.0,0.0,0.0,0.0,0.0,0.0,0.0,0.0,0.0,0.0,0.0,0.0,0.0,0.0,0.0,0.0,0.0,0.0,0.0,0.0,0.0,0.0,0.0,0.0,0.0,0.0,0.0,0.0,0.0,0.0,0.0,0.0,0.0,0.0,0.0,0.0,0.0,0.0,0.0,0.0,0.0,0.0,0.0,0.0,0.0,0.0,0.0,0.0,0.0,0.0,0.0,0.0,0.0,0.0,0.0,0.0,0.0,0.0,0.0,0.0,0.0,0.0,0.0,0.0,0.0,0.0,0.0,0.0,0.0,0.0,0.0,0.0,0.0,0.0,0.0,0.0,0.0,0.0,0.0,0.0,0.0,0.0,0.0,0.0,0.0,0.0,-2.0738,-2.3237,-2.6601,-3.0032,-3.039,-3.1333,-3.3685,-3.1746,-2.7953,-2.2242,0.0,0.0,0.0,0.0,0.0,0.0,0.0,0.0,0.0,0.0,0.0,0.0,0.0,0.0,0.0,0.0,0.0,0.0,0.0,0.0,0.0,0.0,0.0,0.0,0.0,0.0,0.0,0.0,0.0,0.0,0.0,0.0,0.0,0.0,0.0,0.0,0.0,0.0,0.0,0.0,0.0,0.0,0.0,0.0,0.0,0.0,0.0,0.0,0.0,0.0,0.0,0.0,0.0,0.0,0.0,0.0,0.0,0.0,0.0,0.0,0.0,0.0,0.0,0.0,0.0,0.0,0.0,0.0,0.0,0.0,0.0,0.0,0.0,0.0,0.0,0.0,0.0,0.0,0.0,0.0,0.0,0.0,0.0,0.0,0.0,0.0,0.0,0.0,0.0,0.0,0.0,0.0,0.0,0.0,0.0,0.0,0.0,0.0,0.0,0.0,0.0,0.0,-2.0738,-2.3237,-2.6593,-2.9976,-3.0375,-3.0398,-3.0398,-3.04,-2.8914,0.0,0.0,0.0,0.0,0.0,0.0,0.0,0.0,0.0,0.0,0.0,0.0,0.0,0.0,0.0,0.0,0.0,0.0,0.0,0.0,0.0,0.0,0.0,0.0,0.0,0.0,0.0,0.0,0.0,0.0,0.0,0.0,0.0,0.0,0.0,0.0,0.0,0.0,0.0,0.0,0.0,0.0,0.0,0.0,0.0,0.0,0.0,0.0,0.0,0.0,0.0,0.0,0.0,0.0,0.0,0.0,0.0,0.0,0.0,0.0,0.0,0.0,0.0,0.0,0.0,0.0,0.0,0.0,0.0,0.0,0.0,0.0,0.0,0.0,0.0,0.0,0.0,0.0,0.0,0.0,0.0,0.0,0.0,0.0,0.0,0.0,0.0,0.0,0.0,0.0,0.0,0.0,0.0,0.0,0.0,0.0,0.0,0.0,0.0,0.0,0.0,0.0,0.0,-2.0738,-2.3237,-2.5688,-2.6696,-2.8959,-3.0394,-3.041,-3.0406,-2.7937,-2.2133,0.0,0.0,0.0,0.0,0.0,0.0,0.0,0.0,0.0,0.0,0.0,0.0,0.0,0.0,0.0,0.0,0.0,0.0,0.0,0.0,0.0,0.0,0.0,0.0,0.0,0.0,0.0,0.0,0.0,0.0,0.0,0.0,0.0,0.0,0.0,0.0,0.0,0.0,0.0,0.0,0.0,0.0,0.0,0.0,0.0,0.0,0.0,0.0,0.0,0.0,0.0,0.0,0.0,0.0,0.0,0.0,0.0,0.0,0.0,0.0,0.0,0.0,0.0,0.0,0.0,0.0,0.0,0.0,0.0,0.0,0.0,0.0,0.0,0.0,0.0,0.0,0.0,0.0,0.0,0.0,0.0,0.0,0.0,0.0,0.0,0.0,0.0,0.0,0.0,0.0,0.0,0.0,0.0,0.0,0.0,0.0,0.0,0.0,0.0,0.0,0.0,0.0,-2.0839,-2.3281,-2.5313,-2.531,-2.8362,-3.0398,-3.041,-3.0402,-2.8134,-2.2791,0.0,0.0,0.0,0.0,0.0,0.0,0.0,0.0,0.0,0.0,0.0,0.0,0.0,0.0,0.0,0.0,0.0,0.0,0.0,0.0,0.0,0.0,0.0,0.0,0.0,0.0,0.0,0.0,0.0,0.0,0.0,0.0,0.0,0.0,0.0,0.0,0.0,0.0,0.0,0.0,0.0,0.0,0.0,0.0,0.0,0.0,0.0,0.0,0.0,0.0,0.0,0.0,0.0,0.0,0.0,0.0,0.0,0.0,0.0,0.0,0.0,0.0,0.0,0.0,0.0,0.0,0.0,0.0,0.0,0.0,0.0,0.0,0.0,0.0,0.0,0.0,0.0,0.0,0.0,0.0,0.0,0.0,0.0,0.0,0.0,0.0,0.0,0.0,0.0,0.0,0.0,0.0,0.0,0.0,0.0,0.0,0.0,0.0,0.0,0.0,0.0,0.0,-2.1449,-2.3559,-2.532,-2.5311,-2.8364,-3.0411,-3.0444,-3.046,-2.9094,-2.591,0.0,0.0,0.0,0.0,0.0,0.0,0.0,0.0,0.0,0.0,0.0,0.0,0.0,0.0,0.0,0.0,0.0,0.0,0.0,0.0,0.0,0.0,0.0,0.0,0.0,0.0,0.0,0.0,0.0,0.0,0.0,0.0,0.0,0.0,0.0,0.0,0.0,0.0,0.0,0.0,0.0,0.0,0.0,0.0,0.0,0.0,0.0,0.0,0.0,0.0,0.0,0.0,0.0,0.0,0.0,0.0,0.0,0.0,0.0,0.0,-3.207,-3.2422,0.0,0.0,0.0,0.0,0.0,0.0,0.0,0.0,0.0,0.0,0.0,0.0,0.0,0.0,0.0,0.0,0.0,0.0,0.0,0.0,0.0,0.0,0.0,0.0,0.0,0.0,0.0,0.0,0.0,0.0,0.0,0.0,0.0,0.0,0.0,0.0,0.0,0.0,0.0,0.0,-2.471,-2.5194,-2.5539,-2.5322,-2.8356,-3.0521,-3.0773,-3.0791,-2.9337,-2.5929,-2.6407,0.0,0.0,0.0,0.0,0.0,0.0,0.0,0.0,0.0,0.0,0.0,0.0,0.0,0.0,0.0,0.0,0.0,0.0,0.0,0.0,0.0,0.0,0.0,0.0,0.0,0.0,0.0,0.0,0.0,0.0,0.0,0.0,0.0,0.0,0.0,0.0,0.0,0.0,0.0,0.0,0.0,0.0,0.0,0.0,0.0,0.0,0.0,0.0,0.0,0.0,0.0,0.0,0.0,0.0,0.0,0.0,0.0,0.0,0.0,-3.3105,-3.1914,0.0,0.0,0.0,0.0,0.0,0.0,0.0,0.0,0.0,0.0,0.0,0.0,0.0,0.0,0.0,0.0,0.0,0.0,0.0,0.0,0.0,0.0,0.0,0.0,0.0,0.0,0.0,0.0,0.0,0.0,0.0,0.0,0.0,0.0,0.0,0.0,0.0,0.0,0.0,0.0,-2.5918,-2.5703,-2.6296,-2.7834,-2.9586,-3.0704,-3.0886,-3.0904,-2.9415,-2.5925,-2.5701,0.0,0.0,0.0,0.0,0.0,0.0,0.0,0.0,0.0,0.0,0.0,0.0,0.0,0.0,0.0,0.0,0.0,0.0,0.0,0.0,0.0,0.0,0.0,0.0,0.0,0.0,0.0,0.0,0.0,0.0,0.0,0.0,0.0,0.0,0.0,0.0,0.0,0.0,0.0,0.0,0.0,0.0,0.0,0.0,0.0,0.0,0.0,0.0,0.0,0.0,0.0,0.0,0.0,-3.8887,-3.8105,-3.8672,-3.8672,-4.0254,-4.2695,-3.7598,-3.4707,-3.3711,-3.5332,0.0,0.0,0.0,0.0,0.0,0.0,0.0,0.0,0.0,0.0,0.0,0.0,0.0,0.0,0.0,0.0,0.0,0.0,0.0,0.0,0.0,0.0,-3.1191,-3.2402,-3.2695,-3.2695,-3.2695,0.0,0.0,0.0,0.0,0.0,0.0,0.0,0.0,0.0,0.0,0.0,-2.6074,-2.6207,-2.7711,-3.0585,-3.0896,-3.0903,-3.0898,-3.0911,-2.9668,-2.6797,-2.6602,-2.6328,0.0,0.0,0.0,0.0,0.0,0.0,0.0,0.0,0.0,0.0,0.0,0.0,0.0,0.0,0.0,0.0,0.0,0.0,0.0,0.0,0.0,0.0,0.0,0.0,0.0,0.0,0.0,0.0,0.0,0.0,0.0,0.0,-2.7071,-3.0048,0.0,0.0,0.0,0.0,0.0,0.0,0.0,0.0,0.0,0.0,0.0,0.0,0.0,-3.3,-3.5976,-3.9,-4.0759,-4.123,-4.373,-4.6504,-4.9375,-4.9375,-4.9629,-5.0176,-5.2285,0.0,-4.3848,-3.8281,0.0,0.0,0.0,0.0,0.0,0.0,0.0,0.0,0.0,0.0,0.0,0.0,0.0,0.0,0.0,0.0,0.0,0.0,0.0,0.0,0.0,0.0,-3.2402,-3.8418,-3.9844,-3.9844,-3.9844,-3.5137,-3.2676,-3.8672,-3.5,-3.0898,0.0,0.0,0.0,0.0,0.0,0.0,-2.582,-2.8193,-3.0387,-3.0859,-3.0897,-3.0892,-3.0891,-3.0897,-3.0703,-3.0234,-3.0215,-2.8867,-2.582,-2.5703,0.0,0.0,0.0,0.0,0.0,0.0,0.0,0.0,0.0,0.0,0.0,0.0,0.0,0.0,0.0,0.0,0.0,0.0,0.0,0.0,0.0,0.0,0.0,0.0,0.0,0.0,0.0,0.0,0.0,-2.6247,-2.7273,-3.2636,-3.1571,-3.1156,0.0,0.0,0.0,0.0,0.0,0.0,0.0,0.0,0.0,-3.8208,-3.9127,-4.1207,-4.4624,-4.6163,-4.6924,-4.6969,-5.0441,-5.2871,-5.4316,-5.4316,-5.4316,-5.4414,-5.5937,-5.4883,-5.1543,-4.4648,-3.9492,-3.6191,0.0,0.0,0.0,0.0,-3.7676,-3.6289,-3.8242,-4.2441,-4.5976,-4.0156,0.0,0.0,0.0,0.0,0.0,0.0,0.0,-3.3574,-3.5508,-3.6348,-3.7441,-4.0488,-4.2676,-4.3535,-4.1621,-3.8828,-3.6445,-3.5586,-3.2969,-3.0898,-3.0898,-3.0898,0.0,0.0,0.0,-3.0314,-2.8656,-2.9877,-3.0895,-3.0907,-3.0895,-3.0899,-3.0898,-3.0898,-3.0059,-2.8105,-2.9824,-3.0215,-2.8691,-2.8613,-2.9336,0.0,0.0,0.0,0.0,0.0,0.0,0.0,0.0,0.0,0.0,0.0,0.0,0.0,0.0,0.0,0.0,0.0,0.0,0.0,0.0,0.0,0.0,0.0,0.0,0.0,0.0,0.0,0.0,-2.6599,-2.913,-3.5975,-3.3769,-3.2705,0.0,0.0,0.0,0.0,0.0,0.0,-3.6594,-3.7608,-3.9692,-4.3192,-4.6819,-5.0001,-5.2697,-5.257,-5.2578,-5.2762,-5.5198,-5.6442,-5.6601,-5.6601,-5.6601,-5.6601,-5.6601,-5.6601,-5.6133,-5.0098,-4.5098,-4.1445,-4.3144,-4.4394,-4.5019,-4.3183,-4.1055,-3.9473,-4.2363,-4.748,-5.1387,-4.3242,-4.4902,-4.9062,-4.3516,0.0,0.0,0.0,0.0,-3.4121,-3.668,-3.9902,-4.25,-4.25,-4.4453,-4.5351,-4.1933,-4.1191,-3.9687,-3.4531,-3.3535,-3.3242,-3.2363,-3.2207,0.0,-3.1032,-3.0905,-3.1178,-3.1987,-3.2089,-3.2077,-3.2083,-3.2089,-3.1715,-3.0843,-3.0855,-2.9785,-2.7187,-2.9473,-3.0898,-3.0898,-3.0898,-3.0898,-3.0898,0.0,0.0,0.0,0.0,0.0,0.0,0.0,0.0,0.0,0.0,0.0,0.0,0.0,0.0,0.0,0.0,0.0,0.0,0.0,0.0,0.0,0.0,0.0,0.0,0.0,0.0,0.0,0.0,0.0,-3.9429,-3.7288,0.0,0.0,0.0,0.0,-3.5494,-3.5331,-3.6712,-4.0082,-4.3342,-4.6857,-5.0732,-5.3694,-5.5581,-5.6328,-5.576,-5.5766,-5.6327,-5.5947,-5.6045,-5.6601,-5.6601,-5.6601,-5.6601,-5.6601,-5.6601,-5.6328,-5.2656,-5.2891,-5.5254,-5.2109,-5.0273,-4.9121,-4.6875,-4.6621,-4.7578,-4.8848,-5.2363,-5.5976,-5.3808,-5.0137,-4.6172,-4.418,-4.3457,0.0,0.0,-4.2031,-4.0723,-4.0898,-4.3476,-4.6035,-4.6035,-4.6172,-4.5351,-4.1933,-4.1191,-4.1094,-4.0742,-4.0684,-3.9629,-3.6309,0.0,-3.4635,-3.1398,-3.0901,-3.196,-3.4883,-3.5273,-3.5273,-3.527,-3.527,-3.3955,-3.0694,-3.072,-3.082,-3.0644,-3.0801,-3.0898,-3.0898,-3.0898,-3.0898,-3.0898,-3.0898,0.0,0.0,0.0,0.0,0.0,0.0,0.0,0.0,0.0,0.0,0.0,0.0,0.0,0.0,0.0,0.0,0.0,0.0,0.0,0.0,0.0,0.0,0.0,0.0,0.0,0.0,0.0,0.0,-3.9711,-3.7533,0.0,-3.8511,-3.8725,-3.9627,-4.1822,-4.403,-4.6738,-5.0102,-5.1433,-5.2742,-5.4124,-5.5171,-5.5807,-5.6016,-5.5807,-5.5988,-5.6588,-5.6386,-5.6388,-5.6595,-5.6606,-5.6601,-5.6601,-5.6601,-5.6601,-5.6504,-5.5254,-5.5488,-5.6328,-5.3613,-5.2754,-5.2832,-5.1074,-5.1289,-5.25,-5.291,-5.4121,-5.5273,-5.3926,-5.1719,-4.9473,-4.8848,-4.7129,-4.5371,-4.5371,-4.4941,-4.4473,-4.4473,-4.5391,-4.6308,-4.6308,-4.6308,-4.5976,-4.4746,-4.4473,-4.3828,-4.1621,-4.1191,-4.0801,-3.9551,-3.748,-3.6343,-3.7371,-3.7265,-3.6695,-3.5628,-3.5504,-3.633,-3.8493,-3.679,-3.5012,-3.3782,-3.3984,-3.4188,-3.4179,-3.2129,-3.0898,-3.0898,-3.0898,-3.0898,-3.0898,-3.3056,-3.3702,0.0,0.0,0.0,0.0,0.0,0.0,0.0,0.0,0.0,0.0,0.0,0.0,0.0,0.0,0.0,0.0,0.0,0.0,0.0,0.0,0.0,0.0,0.0,0.0,0.0,0.0,-3.6328,-4.3131,-4.2994,-4.3192,-4.5414,-4.5627,-4.6568,-4.8835,-5.1106,-5.336,-5.5577,-5.571,-5.6228,-5.7386,-5.6297,-5.6255,-5.7398,-5.7621,-5.723,-5.6301,-5.6504,-5.6597,-5.6601,-5.6606,-5.6601,-5.6601,-5.6601,-5.6601,-5.6601,-5.6601,-5.6601,-5.6445,-5.4941,-5.4805,-5.5351,-5.4375,-5.4629,-5.5469,-5.5469,-5.5273,-5.4863,-5.3808,-5.2734,-5.1738,-5.1172,-4.9336,-4.7363,-4.6973,-4.6601,-4.6308,-4.6308,-4.7168,-4.7734,-4.6562,-4.6308,-4.6308,-4.6308,-4.6308,-4.5625,-4.3359,-4.1992,-4.1191,-4.1191,-3.9277,-3.8535,-4.0859,-4.0933,-3.9876,-3.7483,-3.732,-3.8257,-4.0493,-3.874,-3.7423,-3.7409,-3.655,-3.5466,-3.4179,-3.2082,-3.0898,-3.0898,-3.0898,-3.0898,-3.0898,-3.3128,-3.3161,-3.0904,0.0,0.0,0.0,0.0,0.0,0.0,0.0,0.0,0.0,0.0,0.0,0.0,0.0,0.0,0.0,0.0,0.0,0.0,0.0,0.0,0.0,0.0,0.0,-3.7203,-3.9277,-4.3159,-4.9901,-5.3721,-5.5768,-5.5709,-5.575,-5.5808,-5.5865,-5.5861,-5.5857,-5.5857,-5.5871,-5.7373,-6.0702,-5.7607,-5.745,-6.0773,-6.1382,-5.9661,-5.572,-5.6398,-5.6738,-5.6758,-5.664,-5.6601,-5.6601,-5.6601,-5.6601,-5.6601,-5.6601,-5.6601,-5.6601,-5.6601,-5.6601,-5.6601,-5.6601,-5.6601,-5.6601,-5.6601,-5.6055,-5.5195,-5.4297,-5.3437,-5.2422,-5.0742,-5.0019,-4.9512,-4.8418,-4.7305,-4.6465,-4.6465,-4.8926,-5.0566,-4.7246,-4.6387,-4.6308,-4.6308,-4.6308,-4.6308,-4.6308,-4.3633,-4.1328,-4.1211,-4.1191,-4.1191,-4.1191,-4.1198,0.0,-4.0569,-4.09,-4.1197,-4.1201,-4.1206,-4.1209,-4.1202,-3.8001,-3.443,-3.0782,-3.0765,-3.0898,-3.0898,-3.0898,-3.0898,-3.0898,-3.0996,-3.1058,-3.1054,0.0,0.0,0.0,0.0,0.0,0.0,0.0,0.0,0.0,0.0,0.0,0.0,0.0,0.0,0.0,0.0,0.0,0.0,0.0,0.0,0.0,0.0,-4.0893,-4.0566,-4.2665,-4.5837,-5.0183,-5.4766,-5.7098,-5.5824,-5.6843,-5.8075,-5.929,-5.9406,-5.9383,-5.9383,-5.94,-5.9823,-6.0776,-5.99,-5.9838,-6.0792,-6.0957,-5.926,-5.5742,-5.8373,-5.9882,-6.0215,-5.7734,-5.6601,-5.6601,-5.6601,-5.6601,-5.6601,-5.6601,-5.6601,-5.6601,-5.6601,-5.6601,-5.6601,-5.6601,-5.6601,-5.6601,-5.6601,-5.6445,-5.5996,-5.4492,-5.3848,-5.332,-5.1582,-5.1016,-5.0879,-5.0547,-5.0234,-5.0,-5.0,-5.0703,-5.1152,-5.0215,-4.8105,-4.6308,-4.6308,-4.6308,-4.6308,-4.6308,-4.5547,-4.4101,-4.1621,-4.1191,-4.1194,-4.1208,-4.1195,-4.1037,-4.0559,-4.0904,-4.1207,-4.1192,-4.1187,-4.1202,-4.1208,-3.8001,-3.5449,-3.418,-3.1864,-3.0658,-3.0898,-3.0898,-3.0898,-3.0898,-3.332,-3.4593,0.0,0.0,0.0,0.0,0.0,0.0,0.0,0.0,0.0,0.0,0.0,0.0,0.0,0.0,0.0,0.0,0.0,0.0,0.0,0.0,0.0,0.0,-4.3201,-4.5528,-4.6451,-4.7664,-4.9356,-5.1777,-5.5763,-5.819,-5.7882,-5.8745,-5.9746,-6.0712,-6.0808,-6.0808,-6.0789,-6.1462,-6.1539,-6.0808,-6.0804,-6.08,-6.0785,-6.0808,-5.9804,-5.7838,-5.8399,-5.9607,-6.1267,-5.9533,-5.7949,-5.6601,-5.6601,-5.6601,-5.6601,-5.6601,-5.6601,-5.6601,0.0,0.0,0.0,0.0,-5.6601,-5.6601,-5.6601,-5.6367,-5.5898,-5.4863,-5.4043,-5.3281,-5.2422,-5.1797,-5.1406,-5.1406,-5.1406,-5.1406,-5.1406,-5.1406,-5.1406,-5.1406,-4.9883,-4.8437,-4.8437,-4.7305,-4.6308,-4.6308,-4.6308,0.0,-4.1797,-4.1191,-4.1201,-4.1202,-4.1023,-4.0889,-4.0799,-4.1029,-4.1196,-4.1201,-4.1207,-4.1112,-4.0916,-3.7762,0.0,0.0,0.0,-3.2036,-3.0957,-3.0898,0.0,0.0,0.0,-3.6004,-3.5999,-3.5804,0.0,0.0,-3.3994,-3.3782,0.0,0.0,0.0,0.0,0.0,0.0,0.0,0.0,0.0,0.0,0.0,0.0,0.0,0.0,0.0,0.0,-4.7163,-4.9952,-5.3183,-5.347,-5.3624,-5.4374,-5.6819,-5.9015,-6.0468,-6.0734,-6.0785,-6.0785,-6.0804,-6.0804,-6.0785,-6.2329,0.0,0.0,0.0,-6.0988,-6.08,-6.0804,-6.0804,-6.0762,-5.7723,-5.7901,-6.0938,-6.1459,-5.9936,-5.6894,-5.6894,-5.6855,-5.6797,-5.6797,-5.6719,-5.6601,-5.6601,-5.6601,-5.6601,-5.6601,-5.6601,-5.6601,-5.6601,0.0,0.0,-5.5254,-5.4121,-5.2793,-5.2949,-5.2246,-5.1406,-5.1406,-5.1406,-5.1406,-5.1406,-5.1406,-5.1406,-5.1406,-5.1406,-5.1406,-5.1406,-4.9023,-4.6758,-4.6367,-4.6308,-4.5332,-4.2305,-4.1465,-4.1191,-4.1191,-4.0859,-4.0729,-4.1153,-4.1199,-4.1212,-4.1212,-4.1155,0.0,-4.0545,-3.7416,-3.5498,-3.5495,-3.5501,-3.4294,-3.1595,-3.1484,-3.2896,-3.5933,-3.5967,-3.5958,-3.599,-3.5971,-3.5823,-3.5502,-3.5515,-3.5085,0.0,0.0,0.0,0.0,0.0,0.0,0.0,0.0,0.0,0.0,0.0,0.0,0.0,0.0,0.0,-4.8875,-5.1606,-5.3972,-5.5992,-5.7953,-5.8761,-5.7607,-5.8531,-5.93,-5.9438,-6.0242,-6.0781,-6.0781,-6.08,-6.08,-6.0781,-6.1978,-6.2714,-6.2814,-6.2825,-6.2185,-6.08,-6.0819,-6.08,-6.0785,-6.015,0.0,-6.1538,-6.1651,-6.0596,-5.8691,-5.8691,-5.8418,-5.7969,-5.7969,-5.7422,-5.6601,-5.6601,-5.6601,-5.6601,-5.6601,-5.6601,-5.6601,-5.6601,-5.6035,-5.5254,-5.5058,-5.4121,-5.293,-5.2012,-5.1582,0.0,-5.1406,-5.1406,-5.1406,-5.1406,-5.1406,-5.1406,-5.1406,-5.1406,-5.1406,-5.1406,-5.0879,-4.9609,-4.6836,-4.6308,-4.6094,-4.543,-4.3027,-4.1191,-4.1191,-4.1125,-4.11,-4.1199,-4.1205,-4.1212,-4.1212,-4.085,-4.0616,-4.0511,-3.7435,-3.5508,-3.5498,-3.5493,-3.5357,-3.5028,-3.5001,-3.5313,-3.5982,-3.5737,-3.5732,-3.5994,-3.5834,-3.5705,-3.5585,-3.5589,-3.5449,0.0,0.0,0.0,0.0,0.0,0.0,0.0,0.0,0.0,0.0,0.0,-4.297,0.0,0.0,-4.9721,-5.2722,-5.4991,-5.6992,-5.8665,-5.9992,-6.0185,-5.8511,-5.9781,-6.0416,-5.9415,-6.0204,-6.08,-6.08,-6.08,-6.08,-6.08,-6.1743,-6.2421,-6.2694,-6.307,-6.2704,-6.1454,-6.1954,-6.1762,-6.0939,-6.0958,-6.121,-6.1707,-6.1694,-6.0925,-5.9609,-5.9609,-5.9023,-5.8066,-5.7637,-5.7441,-5.7383,-5.6816,-5.6601,-5.6601,-5.6601,-5.6601,-5.6601,-5.6601,-5.6308,-5.5781,-5.4785,-5.4648,-5.4785,-5.4199,-5.2773,-5.1758,-5.3516,-5.2754,-5.1406,-5.1406,-5.1406,-5.1406,-5.1406,-5.1406,-5.1406,-5.1406,-5.1406,-5.0898,-4.918,-4.7461,-4.6308,-4.6308,-4.4883,-4.3164,-4.1465,-4.1191,-4.1195,-4.1186,-4.1212,-4.1116,-4.087,-4.0639,-4.0504,-4.0496,-3.7435,-3.5489,-3.5498,-3.5493,-3.5579,-3.5751,-3.5752,-3.5776,-3.5843,-3.5656,-3.5631,-3.5762,-3.5708,-3.5649,-3.5542,-3.5586,-3.5565,0.0,0.0,0.0,0.0,0.0,0.0,0.0,0.0,-4.2653,-4.4198,-4.6009,-4.8048,-5.0433,-5.226,-5.4164,-5.6549,-5.8242,-5.9742,-6.1108,-6.1435,-6.0916,-5.9242,-6.0704,-6.1416,-6.0339,-6.0569,-6.0935,-6.1262,-6.0973,-6.0858,-6.1031,-6.1858,-6.2262,-6.2089,-6.3205,-6.3339,-6.2401,-6.3344,-6.3087,-6.1636,-6.1312,-6.1516,-6.2163,-6.1849,-6.1289,-6.0566,-6.0215,-5.9433,-5.8301,-5.7324,-5.7461,-5.8183,-5.7051,-5.6601,-5.6601,-5.6601,-5.6601,-5.6601,-5.6601,-5.6601,-5.6367,-5.4961,-5.5,-5.5723,-5.6387,-5.4648,-5.3008,-5.5801,-5.457,-5.2246,-5.1582,-5.1406,-5.1406,-5.1406,-5.1406,-5.1406,-5.1406,-5.1406,-5.1406,-5.1406,-4.918,-4.707,-4.6406,-4.6308,-4.5351,-4.2617,-4.1621,-4.1195,-4.1186,-4.1116,-4.0908,-4.0543,-4.0489,-4.0504,-4.0515,-3.7435,-3.5504,-3.5493,-3.5493,-3.5493,-3.5493,-3.5493,-3.5565,-3.5661,-3.5622,-3.5565,-3.5526,-3.5611,-3.5601,-3.5526,-3.5565,-3.5565,-4.1229,-4.1109,-4.067,-4.3723,-4.3987,-4.4116,0.0,0.0,-4.949,-5.3359,-5.3781,-5.4049,-5.5818,-5.7511,-5.9242,-6.1089,-6.2147,-6.282,-6.2993,-6.3685,-6.3551,-6.1858,-6.1243,-6.1454,-6.2762,-6.1627,-6.1416,-6.2916,-6.1647,-6.1127,-6.1897,-6.2724,-6.2839,-6.2108,-6.4378,-6.4922,-6.344,-6.4248,-6.4268,-6.3489,-6.2065,-6.2232,-6.3766,-6.2356,-6.2051,-6.2578,-6.1035,-6.0273,-6.0019,-5.8672,-5.8183,-5.8183,-5.7051,-5.6601,-5.6601,-5.6601,-5.6601,-5.6601,-5.6601,-5.6601,-5.6562,-5.6367,-5.4355,-5.2558,-5.5664,-5.6328,-5.6094,-5.6484,-5.6328,-5.5312,-5.2207,-5.1406,-5.1406,-5.1406,-5.1406,-5.1406,-5.1406,-5.1406,-5.1406,-5.1406,-5.1094,-4.9863,-4.6816,-4.6308,-4.6172,-4.5781,-4.3144,-4.1195,-4.1186,-4.0831,-4.0562,-4.0508,-4.0489,-4.0504,-4.0515,-3.7425,-3.5499,-3.5504,-3.5504,-3.5498,-3.5493,-3.5493,-3.5526,-3.5526,-3.5526,-3.5545,-3.5603,-3.5547,-3.5547,-3.5603,-3.5545,-3.5526,-4.1636,-4.1821,-4.1825,0.0,-4.5984,-4.7547,-4.924,-5.1048,-5.3145,-5.5878,-5.7379,-5.8531,-5.9742,-6.0916,-6.1954,0.0,-6.2685,-6.2762,-6.3243,-6.2339,-6.155,-6.1358,-6.0165,-5.9992,-6.1685,-6.1666,-6.1627,-6.1839,-6.1666,-6.1493,-6.1339,-6.1666,-6.2147,-6.2781,-6.3839,-6.4359,-6.4306,-6.5238,-6.5139,-6.3979,-6.3884,-6.3965,-6.4189,-6.352,-6.3144,-6.289,-6.1152,-6.039,-6.0293,-5.8887,-5.8515,-5.8672,-5.7187,-5.6601,-5.6601,-5.6601,-5.6601,-5.6601,-5.6601,-5.6601,-5.6601,-5.6601,-5.5605,-5.4707,-5.6152,-5.6601,-5.6601,-5.6601,-5.6601,-5.5801,-5.2305,-5.1406,-5.1406,-5.1406,-5.1406,-5.1406,-5.1406,-5.1406,-5.1406,-5.1406,-5.1406,-5.0312,-4.6894,-4.6293,-4.6309,-4.6309,-4.5074,-4.3443,-4.1459,-4.0781,-4.0492,-4.0489,-4.0489,-4.0504,-4.0515,-3.9219,-3.8396,-3.8421,-3.8421,-3.7829,-3.6546,-3.6488,-3.618,-3.5512,-3.5493,-3.5526,-3.5545,-3.5988,-3.6219,-3.6257,-3.6738,-3.668,-4.1204,0.0,0.0,-4.547,-4.8625,-5.1491,-5.2818,-5.528,-5.7627,-5.8838,-6.0935,-6.2589,-6.2762,-6.3262,-6.3666,-6.3666,-6.3166,-6.2993,-6.3589,-6.1858,-6.0531,-6.0454,-5.9165,-5.8684,-5.9646,-6.0742,-6.132,-6.1166,-6.1512,-6.157,-6.1166,-6.1146,-6.1704,-6.2935,-6.3455,-6.4089,-6.4878,-6.5935,-6.5921,-6.4879,-6.5365,-6.5273,-6.4648,-6.4238,-6.3535,-6.2578,-6.1308,-6.0762,-6.0683,-5.9668,-5.9492,-5.9668,-5.7461,-5.6601,-5.6601,-5.6601,-5.6601,-5.6601,-5.6601,-5.6601,-5.6601,-5.6601,-5.6601,-5.6601,-5.6601,-5.6601,-5.6601,-5.6601,-5.5918,-5.457,-5.2051,-5.1406,-5.1406,-5.1406,-5.1406,-5.1406,-5.1406,-5.1406,-5.1406,-5.1406,-5.1406,-5.0602,-4.8133,-4.6918,-4.6257,-4.6142,-4.6103,-4.5199,-4.2736,-4.128,-4.0511,-4.0489,-4.0489,-4.0504,-4.05,-4.05,-4.0496,-4.0492,-4.0492,-3.9629,-3.7714,-3.7637,-3.7194,-3.6219,-3.5949,-3.5949,-3.6199,-3.6526,-3.6834,-3.7065,-3.7719,-3.7661,0.0,0.0,-4.524,-4.9452,-5.3029,-5.6165,-5.8665,-6.1858,-6.432,-6.4359,-6.5724,-6.6417,-6.482,-6.4551,-6.457,-6.457,-6.4551,-6.4532,-6.457,-6.3782,-6.2281,-5.9838,-5.8819,-5.7992,0.0,-5.8607,-6.0262,-6.1935,-6.13,-6.1204,-6.2012,-6.205,-6.207,-6.2127,-6.3844,-6.4859,-6.5084,-6.6076,-6.6661,-6.6816,-6.5996,-6.5586,-6.5508,-6.4082,-6.2812,-6.1738,-6.168,-6.166,-6.166,-6.1601,-6.1601,-6.1289,-5.793,-5.6601,-5.6601,-5.6601,-5.6601,-5.6601,-5.6601,-5.6601,-5.6601,-5.6601,-5.6601,-5.6601,-5.6601,-5.6601,-5.6601,-5.6601,-5.418,-5.1523,-5.1426,-5.1406,-5.1406,-5.1406,-5.1406,-5.1406,-5.1406,-5.1406,-5.1406,-5.1406,-5.1406,-5.1375,-5.1247,-4.8488,-4.6161,-4.5685,-4.5607,-4.5582,-4.5494,-4.2556,-4.0489,-4.0489,-4.0489,-4.0489,-4.0504,-4.0504,-4.0504,-4.0496,-4.0496,-3.9961,-3.8806,-3.8748,-3.8484,-3.793,-3.7084,-3.7084,-3.7911,-3.7103,-3.7142,-3.7969,-3.7988,-3.7988,-4.4066,0.0,-5.0375,-5.4664,-5.7857,-6.0454,-6.2435,-6.4224,-6.5301,-6.4724,-6.3705,-6.2416,-6.0723,-6.0416,-6.0416,-6.0416,-6.1358,-6.207,-6.207,-6.1339,-5.9646,-5.6549,-5.6934,0.0,0.0,0.0,-5.8954,-5.9531,-6.0339,-6.0685,-6.0396,-6.1012,-6.1627,-6.2204,-6.3464,-6.4229,-6.4424,-6.5295,-6.5846,-6.6035,-6.5742,-6.5508,-6.5293,-6.3984,-6.3418,-6.3359,-6.2207,-6.1699,-6.1699,-6.1699,-6.0351,-5.8203,-5.7051,-5.6601,-5.6601,-5.6601,-5.6601,-5.6601,-5.6601,-5.6601,-5.6601,-5.6601,-5.6601,-5.6601,-5.6601,-5.6601,-5.6601,-5.6601,-5.5762,-5.4316,-5.1992,-5.1406,-5.1406,-5.1406,-5.1406,-5.1406,-5.1406,-5.1406,-5.1394,-5.14,-5.1406,-5.1402,-5.1395,-5.0182,-4.8393,-4.5973,-4.5605,-4.4776,-4.2514,-4.1207,-4.0495,-4.0495,-4.0508,-4.0489,-4.0489,-4.0489,-4.0504,-4.0504,-4.0504,-4.0081,-3.9176,-3.9138,-3.8772,-3.8007,-3.7719,-3.7719,-3.8007,-3.8296,-3.8584,-3.8873,-3.9411,-3.9373,-4.7605,-5.0933,-5.4357,-5.8954,-6.155,-6.3358,-6.4743,-6.5493,-6.5378,-6.3608,-6.1685,-5.955,-5.6953,-5.5992,-5.578,-5.6376,-5.7376,-5.8531,-5.9804,-5.9223,-5.7915,-5.5797,-5.6222,-5.5936,0.0,0.0,0.0,-5.7896,-5.9511,-6.0262,-5.9723,-6.0589,-6.1376,-6.193,-6.2924,-6.3503,-6.3647,-6.4503,-6.5005,-6.5137,-6.4922,-6.4844,-6.4824,-6.3437,-6.3008,-6.3301,-6.2187,-6.1015,-5.9883,-5.9883,-5.8574,-5.6601,-5.6601,-5.6601,-5.6601,-5.6601,-5.6601,-5.6601,-5.6601,-5.6601,-5.6601,-5.6601,-5.6601,-5.6601,-5.6601,-5.6601,-5.6601,-5.6601,-5.6601,-5.6074,-5.3848,-5.2324,-5.1719,-5.2969,-5.2305,-5.1406,-5.1406,-5.1406,-5.1394,-5.1385,-5.1395,-5.1337,-5.1183,-5.0895,-4.9547,-4.6108,-4.5605,-4.4797,-4.2612,-4.2321,-4.1838,-4.0633,-4.0495,-4.0508,-4.0489,-4.0489,-4.0489,-4.0489,-4.0489,-4.0258,-3.9738,-3.9719,-3.9469,-3.8892,-3.8604,-3.8604,-3.8892,-3.9161,-3.945,-3.9738,-4.0258,-4.0219,-5.0856,-5.4145,-5.7319,-6.2224,-6.4089,-6.4916,-6.5647,-6.5724,-6.4666,-6.13,-5.9704,-5.7646,0.0,0.0,-5.1029,-5.2626,-5.3183,-5.4587,-5.8036,-5.7882,-5.7418,0.0,0.0,0.0,0.0,0.0,0.0,-5.7242,-5.8943,-5.9945,-5.9996,-6.0823,-6.1311,-6.1311,-6.2278,-6.2808,-6.2728,-6.3701,-6.418,-6.416,-6.3672,-6.3691,-6.4101,-6.2441,-6.1699,-6.1699,-6.1699,-5.9765,-5.6601,-5.6601,-5.6601,-5.6601,-5.6601,-5.6601,-5.6601,-5.6601,-5.6601,-5.6601,-5.6601,-5.6601,-5.6601,-5.6601,-5.6601,-5.6601,-5.6601,-5.6601,-5.6601,-5.6601,-5.6601,-5.6601,-5.6601,-5.4141,-5.25,-5.5801,-5.4062,-5.168,-5.168,-5.1523,-5.1398,-5.1393,-5.1376,-5.1222,-5.0779,-5.0702,-4.9605,-4.6374,-4.5757,-4.564,-4.5601,-4.5599,-4.4366,-4.1111,-4.0595,-4.0495,-4.0489,-4.0489,-4.0489,-4.0489,-4.0489,-4.0489,-4.0489,-4.0489,-4.0489,-4.0489,-3.9738,-3.9738,-4.0489,-3.9719,-3.9738,-4.0489,-4.0489,-4.0489,-5.5453,-5.9435,-6.2801,-6.4743,-6.584,-6.6186,-6.5166,-6.3455,-6.13,-5.8531,-5.426,-4.9913,0.0,0.0,0.0,-4.8582,-5.2897,0.0,-5.8404,-5.9585,0.0,-5.7688,0.0,-5.8453,-5.6977,-5.7675,0.0,-5.8443,-5.8826,-5.9308,-5.9968,-6.0925,-6.145,-6.1465,-6.2413,-6.2635,-6.1992,-6.2239,-6.2363,-6.2383,-6.3515,-6.3476,-6.2344,-6.1894,-6.1699,-6.1699,-6.1699,-5.9765,-5.6601,-5.6601,-5.6601,-5.6601,-5.6601,-5.6601,-5.6601,-5.6601,-5.6601,-5.6601,-5.6601,-5.6601,-5.6601,-5.6601,-5.6601,-5.6601,-5.6601,-5.6601,-5.6601,-5.6601,-5.6601,-5.6601,-5.6601,-5.5937,-5.5508,-5.6387,-5.5918,-5.5273,-5.5273,-5.3223,-5.1404,-5.1406,-5.1114,-5.0856,-5.0721,-5.0702,-5.0505,-4.9996,-4.7759,-4.5998,-4.5657,-4.5601,-4.5271,-4.4405,-4.2011,-4.0495,-4.0489,-4.0489,-4.0489,-4.0489,-4.0489,-4.0489,-4.0489,-4.0489,-4.0489,-4.0489,-4.0296,-4.0296,-4.0489,-4.0277,-4.0296,-4.0489,-4.0489,-4.0489,-5.9338,-6.2512,-6.4897,-6.6109,-6.6205,-6.5263,-6.2474,-6.0146,-5.7203,-5.2414,-4.8182,0.0,-4.0912,0.0,0.0,0.0,0.0,0.0,-5.6715,-5.8288,-5.8921,0.0,-5.9385,0.0,-5.8364,-5.9041,-5.9545,-5.9545,-5.9495,-5.9664,-6.0152,-6.1081,-6.1577,-6.1577,-6.2135,-6.2187,-6.1699,-6.1699,-6.1699,-6.1719,-6.2695,-6.2656,-6.1699,-6.1699,-6.1699,-6.1621,-6.0117,-5.8379,-5.6601,-5.6601,-5.6601,-5.6601,-5.6601,-5.6601,-5.6601,-5.6601,-5.6601,-5.6601,-5.6601,-5.6601,-5.6601,-5.6601,-5.6601,-5.6601,-5.6601,-5.6601,-5.6601,-5.6601,-5.6601,-5.6601,-5.6601,-5.6601,-5.6601,-5.6601,-5.6601,-5.6172,-5.4648,-5.2773,-5.1406,-5.1406,-5.1199,-5.1008,-5.1005,-5.1005,-5.1104,-5.1368,-4.8495,-4.6131,-4.5659,-4.5603,-4.5601,-4.5596,-4.2547,-4.0499,-4.0489,-4.0489,-4.0489,-4.0489,-4.0489,-4.0489,-4.0489,-4.0489,-4.0489,-4.0489,-4.0489,-4.0489,-4.0489,-4.0489,-4.0489,-4.0489,-4.0489,-4.0489,-6.2397,-6.4282,-6.5397,-6.6628,-6.5763,-6.3493,-5.9261,-5.6434,-5.2683,-4.5605,0.0,-3.9988,-3.6796,-3.718,-3.9133,-4.2579,0.0,-4.9289,-5.4541,-5.604,-5.7249,-5.8981,-5.9902,-6.0127,-5.944,-6.0095,-6.0576,-6.0576,-6.0581,-6.0566,-6.0566,-6.1406,-6.1875,-6.1875,-6.1758,-6.1699,-6.1699,-6.1699,-6.1699,-6.1699,-6.1699,-6.1699,-6.1699,-6.1699,-6.1699,-6.1504,-5.8086,-5.6601,-5.6601,-5.6601,-5.6601,-5.6601,-5.6601,-5.6601,-5.6601,-5.6601,-5.6601,-5.6601,-5.6601,-5.6601,-5.6601,-5.6601,-5.6601,-5.6601,-5.6601,-5.6601,-5.6601,-5.6601,-5.6601,-5.6601,-5.6601,-5.6601,-5.6601,-5.6601,-5.625,-5.5078,-5.2051,-5.1406,-5.1406,-5.1406,-5.1406,-5.14,-5.1406,-5.1412,-5.1402,-5.1402,-4.8826,-4.6569,-4.5699,-4.5587,-4.5584,-4.5596,-4.2549,-4.0502,-4.0489,-4.0489,-4.0489,-4.0489,-4.0489,-4.0489,-4.0489,-4.0489,-4.0489,-4.0489,-4.0489,-4.0489,-4.0489,-4.0489,-4.0489,-4.0489,-4.0489,-4.0489,-6.3608,-6.6032,-6.7475,-6.6378,-6.5359,-6.3493,-5.9261,-5.3683,0.0,0.0,-3.9738,-3.5968,-3.393,-3.5988,-3.8931,-4.1755,0.0,0.0,0.0,0.0,-5.8036,0.0,0.0,0.0,-6.021,-6.0962,0.0,0.0,-6.1461,-6.1465,-6.1465,-6.2305,-6.2773,-6.2773,-6.207,-6.1699,-6.1699,-6.1699,-6.1699,-6.1699,-6.1699,-6.1699,-6.1699,-6.1699,-6.1699,-6.1504,-5.8086,-5.6601,-5.6601,-5.6601,-5.6601,-5.6601,-5.6601,-5.6601,-5.6601,-5.6601,-5.6601,-5.6601,-5.6601,-5.6601,-5.6601,-5.6601,-5.6601,-5.6601,-5.6601,-5.6601,-5.6601,-5.6601,-5.6601,-5.6601,-5.6601,-5.6601,-5.6601,-5.6601,-5.4394,-5.2148,-5.1523,-5.1406,-5.1406,-5.1406,-5.1406,-5.1406,-5.1402,-5.1391,-5.1402,-5.1402,-5.0564,-4.8885,-4.5969,-4.5605,-4.5584,-4.5596,-4.2549,-4.0502,-4.0489,-4.0489,-4.0489,-4.0489,-4.0489,-4.0489,-4.0489,-4.0489,-4.0489,-4.0489,-4.0489,-4.0489,-4.0489,-4.0489,-4.0489,-4.0489,-4.0489,-4.0489,-6.457,-6.6167,-6.6917,-6.609,-6.3916,-6.0492,-5.4934,0.0,0.0,0.0,-3.5526,-3.3141,-3.1852,0.0,0.0,0.0,0.0,0.0,0.0,0.0,0.0,0.0,0.0,0.0,0.0,-6.1191,-6.1699,-6.1699,-6.1699,-6.1699,-6.1699,-6.2109,-6.2324,-6.2324,-6.1914,-6.1699,-6.1699,-6.1699,-6.1699,-6.1699,-6.1699,-6.1699,-6.1699,-6.1699,-6.1699,-6.1504,-5.8086,-5.6601,-5.6601,-5.6601,-5.6601,-5.6601,-5.6601,-5.6601,-5.6601,-5.6601,-5.6601,-5.6601,-5.6601,-5.6601,-5.6601,-5.6601,-5.6601,-5.6601,-5.6601,-5.6601,-5.6601,-5.6601,-5.6601,-5.6601,-5.6601,-5.6601,-5.6601,-5.6601,-5.3945,-5.1406,-5.1406,-5.1406,-5.1406,-5.1406,-5.1406,-5.1406,-5.1406,-5.1406,-5.1406,-5.1406,-5.1215,-4.9741,-4.6065,-4.5607,-4.5605,-4.5599,-4.2533,-4.0504,-4.0495,-4.0511,-4.0492,-4.0489,-4.0489,-4.0489,-4.0489,-4.0489,-4.0489,-4.0489,-4.0489,-4.0489,-4.0489,-4.0489,-4.0489,-4.0489,-4.0489,-4.0489,-6.4493,-6.5513,-6.5801,-6.5436,-6.2127,-5.7319,-5.1106,-4.5701,0.0,0.0,-3.2237,-3.1218,-3.0533,0.0,0.0,0.0,0.0,0.0,0.0,0.0,0.0,0.0,0.0,0.0,-6.0273,-6.1152,0.0,-6.1699,-6.1699,-6.1777,-6.1973,-6.1797,-6.1797,-6.1973,-6.1797,-6.1699,-6.1699,-6.1699,-6.1699,-6.1699,-6.1699,-6.1699,-6.1699,-6.1699,-6.1308,-6.0508,-5.8535,-5.7285,-5.6601,-5.6601,-5.6601,-5.6601,-5.6601,-5.6601,-5.6601,-5.6601,-5.6601,-5.6601,-5.6601,-5.6601,-5.6601,-5.6601,-5.6601,-5.6601,-5.6601,-5.6601,-5.6601,-5.6601,-5.6601,-5.6601,-5.6601,-5.6601,-5.6601,-5.6601,-5.3945,-5.1406,-5.1406,-5.1406,-5.1406,-5.1406,-5.1406,-5.1406,-5.1406,-5.1406,-5.1406,-5.1406,-5.1406,-5.0266,-4.7101,-4.605,-4.5607,-4.5601,-4.3205,-4.1596,-4.1588,-4.0918,-4.0495,-4.0508,-4.0489,-4.0489,-4.0489,-4.0489,-4.0489,-4.0489,-4.0489,-4.0489,-4.0489,-4.0489,-4.0489,-4.0489,-4.0489,-4.0508,-6.2098,-6.4238,-6.5513,-6.3935,-6.0358,-5.6049,-5.1587,0.0,0.0,-3.468,-3.2179,-3.0494,-3.0398,-3.1225,-3.3064,0.0,0.0,-4.1658,0.0,0.0,0.0,0.0,0.0,0.0,-5.9844,-6.1055,-6.1699,-6.1699,-6.1699,-6.2051,-6.2832,-6.2129,-6.2051,-6.2851,-6.2109,-6.1699,-6.1699,-6.1699,-6.1699,-6.1699,-6.1699,-6.1699,-6.1699,-6.1699,-6.0019,-5.7226,-6.0019,-5.9473,-5.6601,-5.6601,-5.6601,-5.6601,-5.6601,-5.6601,-5.6601,-5.6601,-5.6601,-5.6601,-5.6601,-5.6601,-5.6601,-5.6601,-5.6601,-5.6601,-5.6601,-5.6601,-5.6601,-5.6601,-5.6601,-5.6601,-5.6601,-5.6601,-5.6601,-5.6601,-5.3945,-5.1406,-5.1406,-5.1406,-5.1406,-5.1406,-5.1406,-5.1406,-5.1406,-5.1406,-5.1406,-5.1406,-5.1406,-5.1113,-5.0331,-4.7509,-4.5605,-4.5603,-4.5315,-4.512,-4.5134,-4.2297,-4.0499,-4.0499,-4.0492,-4.0489,-4.0489,-4.0489,-4.0489,-4.0489,-4.0489,-4.0489,-4.0489,-4.0489,-4.0489,-4.0489,-4.0489,-4.0581,-5.97,-6.2199,-6.3416,-6.2127,-5.8223,-5.3606,-4.9375,0.0,0.0,-3.393,-3.1814,-3.0398,-3.0448,-3.0775,-3.166,0.0,0.0,0.0,0.0,0.0,0.0,0.0,0.0,0.0,0.0,0.0,-6.1699,-6.1699,-6.1699,-6.1855,-6.2207,-6.1894,-6.1855,-6.2207,-6.1875,-6.1699,-6.1699,-6.1699,-6.1699,-6.1699,-6.1699,-6.1172,-6.0195,-6.0195,-5.8887,-5.668,-5.8047,-5.7851,-5.6601,-5.6601,-5.6601,-5.6601,-5.6601,-5.6601,-5.6601,-5.6601,-5.6601,-5.6601,-5.6601,-5.6601,-5.6601,-5.6601,-5.6601,-5.6597,-5.6602,-5.6595,-5.6601,-5.6601,-5.6601,-5.6601,-5.6601,-5.6601,-5.6601,-5.6601,-5.3945,-5.1406,-5.1406,-5.1406,-5.1406,-5.1406,-5.1406,-5.1406,-5.1406,-5.1406,-5.1406,-5.1406,-5.1406,-5.132,-5.1147,-4.8144,-4.6016,-4.6021,-4.5785,-4.5584,-4.5601,-4.4352,-4.2681,-4.0633,-4.0492,-4.0489,-4.0489,-4.0489,-4.0489,-4.0489,-4.0489,-4.0489,-4.0489,-4.0489,-4.0489,-4.0489,-4.0489,-4.0581,-5.5943,-5.9235,-6.1166,-5.9973,-5.6282,-5.1741,0.0,0.0,-3.5238,-3.2699,-3.1237,-3.0371,-3.016,-3.0381,-3.0886,0.0,0.0,-3.4166,0.0,0.0,0.0,0.0,0.0,-5.7085,0.0,-6.041,-6.1699,-6.1699,-6.1699,-6.1699,-6.1699,-6.1699,-6.1699,-6.1699,-6.1699,-6.1465,-6.0976,-6.1445,-6.1699,-6.1699,-6.1699,-6.082,-5.9219,-5.9355,-5.8398,-5.6601,-5.6601,-5.6601,-5.6601,-5.6601,-5.6601,-5.6601,-5.6601,-5.6601,-5.6601,-5.6601,-5.6601,-5.6601,-5.6601,-5.6601,-5.6601,-5.6601,-5.6601,-5.6607,-5.659,-5.6476,-5.6372,-5.6541,-5.6601,-5.6601,-5.6601,-5.6601,-5.6601,-5.6601,-5.3945,-5.1406,-5.1406,-5.1406,-5.1406,-5.1406,-5.1406,-5.1406,-5.1406,-5.1406,-5.1406,-5.1406,-5.1406,-5.1406,-5.1406,-4.8404,-4.6299,-4.6307,-4.6002,-4.5804,-4.5796,-4.5671,-4.4138,-4.0729,-4.0492,-4.0489,-4.0489,-4.0489,-4.0489,-4.0489,-4.0543,-4.0562,-4.0562,-4.0581,-4.06,-4.06,-4.06,-4.0658,-5.0363,-5.5178,-5.9053,-5.7434,-5.4648,-5.0913,0.0,0.0,-3.3506,-3.0948,-3.0467,-3.0237,-2.9382,-2.9973,-3.0916,-3.1857,-3.3458,0.0,0.0,0.0,0.0,0.0,0.0,-5.662,-5.662,-5.9707,-6.1699,-6.1699,-6.1699,-6.1699,-6.1699,-6.1699,-6.1699,-6.1699,-6.1699,-6.0898,-5.9238,-6.0879,-6.1699,-6.1699,-6.1699,-6.082,-5.9219,-5.9746,-5.875,-5.6601,-5.6601,-5.6601,-5.6601,-5.6601,-5.6601,-5.6601,-5.6601,-5.6601,-5.6601,-5.6601,-5.6601,-5.6601,-5.6601,-5.6601,-5.6601,-5.6601,-5.6601,-5.6607,-5.659,-5.6167,-5.5825,-5.6434,-5.6601,-5.6601,-5.6601,-5.6601,-5.6601,-5.6601,-5.3945,-5.1406,-5.1406,-5.1406,-5.1406,-5.1406,-5.1406,-5.1406,-5.1406,-5.1406,-5.1406,-5.1406,-5.1406,-5.1406,-5.1406,-4.8404,-4.6299,-4.6307,-4.6307,-4.629,-4.629,-4.5858,-4.4141,-4.0715,-4.0495,-4.0489,-4.0489,-4.0489,-4.0489,-4.0489,-4.0639,-4.0696,-4.0696,-4.0754,-4.0793,-4.0793,-4.0793,-4.087,-4.6222,-5.2253,-5.6112,-5.1526,-4.9616,-4.7028,-3.9923,0.0,-3.1988,-2.9929,-2.9132,-2.8876,-2.9157,-2.9523,-3.0072,-3.0962,-3.3099,0.0,0.0,0.0,0.0,0.0,0.0,-6.0088,0.0,0.0,-6.1699,-6.1699,-6.1699,-6.1699,-6.1699,-6.1699,-6.1699,-6.1699,-6.1699,-6.1445,-6.0918,-6.1426,-6.1699,-6.1699,-6.0918,-6.0078,-5.9199,-5.8769,-5.7851,-5.6601,-5.6601,-5.6601,-5.6601,-5.6601,-5.6601,-5.6601,-5.6601,-5.6601,-5.6601,-5.6601,-5.6601,-5.6601,-5.6601,-5.6601,-5.6601,-5.6601,-5.6601,-5.66,-5.6606,-5.6479,-5.6347,-5.6552,-5.6601,-5.6601,-5.6601,-5.6601,-5.5996,-5.3613,-5.2207,-5.1406,-5.1406,-5.1406,-5.1406,-5.1406,-5.1406,-5.1406,-5.1406,-5.1406,-5.1406,-5.1406,-5.1406,-5.1406,-5.1406,-5.0461,-4.8886,-4.6544,-4.6299,-4.63,-4.6299,-4.5858,-4.4138,-4.0715,-4.0495,-4.0489,-4.0489,-4.0489,-4.0543,-4.0639,-4.0677,-4.0731,-4.0761,-4.078,-4.08,-4.08,-4.0891,-4.0947,0.0,-4.6003,-4.8415,-4.3952,-4.1551,0.0,0.0,0.0,-3.0278,-2.8525,-2.8305,-2.8404,-2.8287,-2.888,-2.9577,-3.0127,-3.2148,0.0,0.0,0.0,0.0,0.0,0.0,0.0,0.0,-6.1248,-6.1699,-6.1699,-6.1699,-6.1699,-6.1699,-6.1699,-6.1699,-6.1699,-6.0449,-6.039,-6.1699,-6.0859,-6.0527,-6.0742,-6.0039,-5.9355,-5.8691,-5.8496,-5.7734,-5.6621,-5.7051,-5.6992,0.0,-5.6601,-5.6601,-5.6601,-5.6601,-5.6601,-5.6601,-5.6601,-5.6601,-5.6601,-5.6601,-5.6601,-5.6601,-5.6601,-5.6601,-5.6601,-5.6601,-5.6608,-5.6597,-5.661,-5.6601,-5.6601,-5.6601,-5.5625,-5.4082,-5.1914,-5.1406,-5.1406,-5.1406,-5.1406,-5.1406,-5.1406,-5.1406,-5.1406,-5.1406,-5.1406,-5.1406,-5.1406,-5.1406,-5.1406,-5.1406,-5.1406,-5.0586,-4.8457,-4.7056,-4.6221,-4.6041,-4.5761,-4.4138,-4.0715,-4.0515,-4.0508,-4.0489,-4.0581,-4.0639,-4.0696,-4.0773,-4.0833,-4.0876,-4.0935,-4.0955,-4.0955,-4.1038,-4.1073,0.0,0.0,0.0,0.0,0.0,0.0,0.0,0.0,0.0,-2.6832,-2.7794,-2.8478,-2.6997,-2.8095,-2.9274,-2.9447,0.0,0.0,0.0,0.0,0.0,0.0,-5.9002,0.0,-5.8656,-6.044,-6.16,-6.1363,-6.156,-6.1698,-6.1698,-6.1698,-6.1581,-6.1348,-5.8262,-5.8125,-6.1308,-5.9473,-5.873,-5.914,-5.918,-5.873,-5.793,-5.8672,-5.8125,-5.666,-5.7715,-5.7578,-5.6601,-5.6601,-5.6601,-5.6601,-5.6601,-5.6601,-5.6601,-5.6601,-5.6601,-5.6601,-5.6601,-5.6601,-5.6601,-5.6601,-5.6601,-5.6601,-5.6601,-5.6601,-5.6601,-5.6601,-5.6601,-5.6601,-5.6601,-5.4004,-5.1406,-5.1406,-5.1406,-5.1406,-5.1406,-5.1406,-5.1406,-5.1406,-5.1406,-5.1406,-5.1406,-5.1406,-5.1406,-5.1406,-5.1406,-5.1406,-5.1406,-5.1406,-5.1308,-5.1055,-4.8204,-4.6103,-4.5624,-4.5601,-4.4237,-4.1058,-4.0633,-4.0511,-4.0554,-4.0742,-4.0804,-4.0735,-4.093,-4.1017,-4.1017,-4.1135,-4.1191,-4.1191,-4.1191,-4.1191,-2.7373,0.0,-2.8266,-2.7811,-2.755,0.0,0.0,0.0,0.0,0.0,0.0,0.0,0.0,0.0,0.0,0.0,0.0,0.0,0.0,0.0,0.0,-5.4516,-5.6522,-5.6908,-5.6443,-5.9619,-6.0613,-5.8005,-6.023,-6.1701,-6.1701,-6.1701,-6.0489,-5.7871,-5.7012,-5.6992,-5.7793,-5.9863,-6.0098,-5.8515,-5.8984,-5.873,-5.7871,-5.7422,-5.6992,-5.6601,-5.6875,-5.6855,-5.6601,-5.6601,-5.6601,-5.6601,-5.6601,-5.6601,-5.6601,-5.6601,-5.6601,-5.6601,-5.6601,-5.6601,-5.6601,-5.6601,-5.6601,-5.6601,-5.6601,-5.6601,-5.6601,-5.6601,-5.6601,-5.6601,-5.6601,-5.4004,-5.1406,-5.1406,-5.1406,-5.1406,-5.1406,-5.1406,-5.1406,-5.1406,-5.1406,-5.1406,-5.1406,-5.1406,-5.1406,-5.1406,-5.1406,-5.1406,-5.1406,-5.1406,-5.0391,-4.7773,-4.6784,-4.6103,-4.5624,-4.5599,-4.5252,-4.4465,-4.195,-4.066,-4.1024,-4.1073,-4.1114,-4.1078,-4.114,-4.1156,-4.1156,-4.1188,-4.1191,-4.1191,-4.1191,-4.1191,-2.3878,-2.4707,-2.5418,-2.5947,-2.6447,-2.664,0.0,0.0,0.0,0.0,0.0,0.0,0.0,0.0,0.0,0.0,-3.0868,0.0,0.0,0.0,0.0,-5.4514,-5.4339,-5.4009,-5.5549,-5.7928,-5.8474,-5.6363,-5.7907,-5.8948,-5.8948,-5.8948,-5.809,-5.6242,-5.6186,-5.6328,-5.6601,-5.8437,-5.914,-5.8711,-5.8223,-5.7754,-5.7285,-5.6816,-5.6601,-5.6601,-5.6601,-5.6601,-5.6601,-5.6601,-5.6601,-5.6601,-5.6601,-5.6601,-5.6601,-5.6601,-5.6601,-5.6601,-5.6601,-5.6601,-5.6601,-5.6601,-5.6601,-5.6601,-5.6601,-5.6601,-5.6601,-5.6601,-5.6601,-5.623,-5.4629,-5.2812,-5.1406,-5.1406,-5.1406,-5.1406,-5.1406,-5.1406,-5.1406,-5.1406,-5.1406,-5.1406,-5.1406,-5.1406,-5.1406,-5.1406,-5.1406,-5.1406,-5.1406,-5.0039,-4.8359,-4.6504,-4.6293,-4.6193,-4.5945,-4.5909,-4.5912,-4.5932,-4.2718,-4.1639,-4.3455,-4.2032,-4.1192,-4.1194,-4.1208,-4.1191,-4.1191,-4.1191,-4.1191,-4.1191,-4.1191,-4.1191,-2.2524,-2.412,-2.5678,-2.6381,-2.6582,-2.6563,0.0,0.0,0.0,0.0,0.0,0.0,0.0,0.0,0.0,0.0,0.0,0.0,-3.5503,-3.916,-4.4498,-5.3126,-5.2546,-5.2585,-5.5415,-5.6151,-5.6261,-5.5724,-5.5703,-5.5703,-5.5703,-5.5703,-5.5703,-5.5703,-5.5781,-5.6086,-5.6602,-5.6599,-5.7344,-5.8789,-5.7305,-5.6601,-5.6601,-5.6601,-5.6601,-5.6601,-5.6601,-5.6601,-5.6601,-5.6601,-5.6601,-5.6601,-5.6601,-5.6601,-5.6601,-5.6601,-5.6601,-5.6601,-5.6601,-5.6504,-5.6426,-5.6562,-5.6484,-5.6367,-5.6543,-5.6601,-5.6601,-5.6601,-5.6601,-5.5801,-5.2305,-5.1406,-5.1406,-5.1406,-5.1406,-5.1406,-5.1406,-5.1406,-5.1406,-5.1406,-5.1406,-5.1406,-5.1406,-5.1406,-5.1406,-5.1406,-5.1406,-5.1406,-5.1406,-4.8418,-4.6308,-4.6308,-4.6308,-4.6292,-4.6297,-4.6304,-4.6306,-4.6298,-4.3583,-4.3043,-4.5415,-4.2739,-4.1191,-4.1191,-4.1191,-4.1191,-4.1191,-4.1191,-4.1191,-4.1191,-4.1191,-4.1191,-2.237,-2.4562,-2.6101,-2.486,-2.5582,-2.6409,0.0,0.0,0.0,0.0,0.0,0.0,0.0,0.0,0.0,0.0,0.0,-3.2298,0.0,0.0,-4.5399,-4.6948,0.0,-5.5126,-5.5649,-5.5766,-5.5805,-5.5703,-5.5703,-5.5703,-5.5703,-5.5703,-5.5703,-5.5703,-5.6212,-5.6503,-5.6597,-5.6595,-5.6738,-5.6992,-5.6738,-5.6601,-5.6601,-5.6601,-5.6601,-5.6601,-5.6601,-5.6601,-5.6601,-5.6601,-5.6601,-5.6601,-5.6601,-5.6601,-5.6601,-5.6601,-5.6601,-5.6601,-5.6601,-5.6113,-5.5625,-5.6367,-5.5957,-5.5332,-5.6308,-5.6601,-5.6601,-5.6601,-5.6601,-5.5801,-5.2305,-5.1406,-5.1406,-5.1406,-5.1406,-5.1406,-5.1406,-5.1406,-5.1406,-5.1406,-5.1406,-5.1406,-5.1406,-5.1406,-5.1406,-5.1406,-5.1406,-5.1406,-5.1406,-4.8418,-4.6308,-4.6308,-4.6308,-4.6307,-4.6295,-4.631,-4.6292,-4.6301,-4.5804,-4.4457,-4.2075,-4.1483,-4.1191,-4.1191,-4.1191,-4.1191,-4.1191,-4.1191,-4.1191,-4.1191,-4.1191,-4.1191,-2.1235,-2.3312,-2.5063,-2.4283,-2.6755,-2.914,-2.8245,0.0,0.0,0.0,0.0,0.0,0.0,0.0,0.0,-3.7659,0.0,-4.3096,-4.803,-5.0087,-5.1048,-5.1064,-5.3818,-5.5707,-5.5686,-5.5705,-5.5703,-5.5703,-5.5703,-5.5703,-5.5703,-5.5703,-5.5703,-5.5703,-5.6148,-5.6436,-5.659,-5.6524,-5.6535,-5.6601,-5.6601,-5.6601,-5.6601,-5.6601,-5.6601,-5.6601,-5.6601,-5.6074,-5.5195,-5.5195,-5.5195,-5.5293,-5.623,-5.6601,-5.6523,-5.5918,-5.6074,-5.6465,-5.5527,-5.5234,-5.5293,-5.5215,-5.5058,-5.5117,-5.625,-5.6601,-5.6211,-5.4316,-5.3789,-5.3848,-5.4141,-5.2812,-5.1406,-5.1406,-5.1406,-5.1406,-5.1406,-5.1406,-5.1406,-5.1406,-5.1406,-5.1406,-5.1406,-5.1406,-5.1406,-5.1406,-5.1406,-5.0723,-4.8887,-4.7266,-4.6308,-4.6308,-4.6308,-4.6308,-4.6308,-4.6294,-4.6302,-4.6302,-4.4569,-4.2832,-4.1269,-4.1191,-4.1191,-4.1191,-4.1191,-4.1191,-4.1191,-4.1191,-4.1191,-4.1191,-4.1191,-4.1191,-2.0542,-2.2293,-2.4149,-2.4341,0.0,-3.0544,-3.0679,0.0,0.0,0.0,0.0,0.0,0.0,0.0,0.0,-4.2324,-4.7948,-5.2762,-5.5345,-5.5692,-5.5711,-5.5708,-5.5708,-5.5707,-5.5684,-5.5703,-5.5703,-5.5703,-5.5703,-5.5703,-5.5703,-5.5703,-5.5703,-5.5703,-5.6097,-5.6194,-5.6001,-5.6037,-5.6223,-5.6601,-5.6601,-5.6601,-5.6601,-5.6601,-5.6484,-5.6308,-5.6308,-5.543,-5.4004,-5.4004,-5.4004,-5.4121,-5.5469,-5.5996,-5.5898,-5.5019,-5.5234,-5.5801,-5.4453,-5.4297,-5.4609,-5.4141,-5.4043,-5.4316,-5.5605,-5.5703,-5.4824,-5.2148,-5.1406,-5.2012,-5.4687,-5.3398,-5.1406,-5.1406,-5.1406,-5.1406,-5.1406,-5.1406,-5.1406,-5.1406,-5.1406,-5.1406,-5.1406,-5.1406,-5.1406,-5.1406,-5.1406,-5.0449,-4.7832,-4.748,-4.748,-4.748,-4.6777,-4.6308,-4.6308,-4.6308,-4.6308,-4.6308,-4.3086,-4.1191,-4.1191,-4.1191,-4.1191,-4.1191,-4.1191,-4.1191,-4.1191,-4.1191,-4.1191,-4.1191,-4.1191,-4.1191,-2.1216,-2.2735,-2.4283,-2.5024,0.0,0.0,-3.091,-3.0987,0.0,0.0,0.0,0.0,0.0,-3.93,-4.5995,-4.9406,-5.2993,-5.5403,-5.5671,-5.5707,-5.5705,-5.5684,-5.5684,-5.5684,-5.5703,-5.5703,-5.5703,-5.5703,-5.5703,-5.5703,-5.5703,-5.5703,-5.5703,-5.5703,-5.6272,-5.5808,-5.4202,-5.4725,-5.5544,-5.6601,-5.6601,-5.6601,-5.6601,-5.6601,-5.6152,-5.539,-5.539,-5.4863,-5.4004,-5.4004,-5.4004,-5.4004,-5.4141,-5.4199,-5.418,-5.4101,-5.4121,-5.418,-5.4043,-5.3516,-5.3008,-5.3769,-5.293,-5.1973,-5.3672,-5.3066,-5.1719,-5.1465,-5.1406,-5.1465,-5.1719,-5.1582,-5.1406,-5.1406,-5.1406,-5.1406,-5.1406,-5.1406,-5.1406,-5.1406,-5.1406,-5.1406,-5.1406,-5.1406,-5.1406,-5.1406,-5.1406,-5.1308,-5.1055,-5.1035,-5.1035,-5.1035,-4.8183,-4.6308,-4.6308,-4.6308,-4.6308,-4.6308,-4.3086,-4.1191,-4.1191,-4.1191,-4.1191,-4.1191,-4.1191,-4.1191,-4.1191,-4.1191,-4.1191,-4.1191,-4.1191,-4.1191,-2.0812,-2.2754,-2.4793,-2.4601,0.0,0.0,0.0,0.0,0.0,0.0,-3.8116,0.0,0.0,0.0,-4.4239,-4.9795,-5.1761,-5.3321,-5.5399,-5.5707,-5.5705,-5.5703,-5.5703,-5.5703,-5.5703,-5.5705,-5.5705,-5.5705,-5.5707,-5.5688,-5.5688,-5.5688,-5.5707,-5.5703,-5.5923,-5.4851,-5.2405,-5.336,-5.422,-5.498,-5.498,-5.498,-5.498,-5.498,-5.4805,-5.4492,-5.4492,-5.4004,-5.3183,-5.3183,-5.2871,-5.2441,-5.2988,-5.3516,-5.3926,-5.3398,-5.3535,-5.3848,-5.2754,-5.2519,-5.2656,-5.2441,-5.1933,-5.1523,-5.2187,-5.1914,-5.1406,-5.1406,-5.1406,-5.1406,-5.1406,-5.1406,-5.1406,-5.1406,-5.1406,-5.1406,-5.1406,-5.1406,-5.1406,-5.1406,-5.1406,-5.1406,-5.1406,-5.1406,-5.1406,-5.1406,-5.1406,-5.1406,-5.1406,-5.1406,-5.1406,-5.1406,-4.834,-4.6308,-4.6308,-4.6308,-4.6308,-4.6308,-4.3086,-4.1191,-4.1191,-4.1191,-4.1191,-4.1191,-4.1191,-4.1191,-4.1191,-4.1191,-4.1191,-4.1191,-4.1191,-4.1191,-2.0831,-2.2562,-2.4505,0.0,0.0,0.0,0.0,0.0,0.0,0.0,-4.1476,0.0,0.0,0.0,0.0,0.0,-5.001,-5.151,-5.3799,-5.5033,-5.5707,-5.5686,-5.5705,-5.5705,-5.5705,-5.5707,-5.5264,-5.4203,-5.4127,-5.4108,-5.4108,-5.4127,-5.4107,-5.4124,-5.4257,-5.3398,-5.1416,-5.2221,-5.2812,-5.3183,-5.293,-5.3223,-5.4004,-5.4004,-5.3848,-5.3594,-5.3594,-5.3105,-5.2285,-5.2285,-5.1933,-5.1465,-5.2051,-5.2656,-5.3105,-5.2519,-5.2676,-5.3008,-5.1816,-5.1797,-5.2187,-5.1582,-5.1406,-5.1406,-5.1406,-5.1406,-5.1406,-5.1406,-5.1406,-5.1406,-5.1406,-5.1406,-5.1406,-5.1406,-5.1406,-5.1406,-5.1406,-5.1406,-5.1406,-5.1406,-5.1406,-5.1406,-5.1406,-5.1406,-5.1406,-5.1406,-5.1406,-5.1406,-5.1406,-5.1406,-5.0996,-4.9902,-4.7695,-4.6308,-4.6308,-4.6308,-4.6308,-4.6308,-4.3769,-4.1953,-4.123,-4.1147,-4.1143,-4.1191,-4.1152,-4.1152,-4.1191,-4.1191,-4.1191,-4.1191,-4.1191,-4.1191,-2.1504,-2.2158,0.0,0.0,0.0,0.0,0.0,0.0,0.0,0.0,0.0,-4.4509,-4.1121,-4.053,0.0,-4.509,-4.8491,-5.0701,-5.0701,-5.355,-5.5651,-5.5651,-5.5651,-5.5651,-5.5651,-5.5651,-5.4262,-5.0949,-5.0699,-5.0699,-5.0699,-5.0698,-5.0678,-5.0659,-5.1137,-5.1387,-5.1367,-5.1381,-5.1387,-5.1367,-5.0566,-5.1523,-5.3965,-5.3965,-5.3496,-5.2695,-5.2695,-5.2207,-5.1406,-5.1406,-5.1406,-5.1387,-5.1406,-5.1406,-5.1406,-5.1406,-5.1406,-5.1406,-5.1387,-5.1387,-5.1406,-5.1406,-5.1406,-5.1406,-5.1406,-5.1406,-5.1406,-5.1406,-5.1406,-5.1406,-5.1406,-5.1406,-5.1406,-5.1406,-5.1406,-5.1406,-5.1406,-5.1406,-5.1406,-5.1406,-5.1406,-5.1406,-5.1406,-5.1406,-5.1406,-5.1406,-5.1406,-5.1406,-5.1406,-5.1406,-5.0098,-4.668,-4.6308,-4.6308,-4.6308,-4.6308,-4.6308,-4.6308,-4.5234,-4.3594,-4.1328,-4.1034,-4.1022,-4.121,-4.1074,-4.1074,-4.1191,-4.1191,-4.1191,-4.1191,-4.1191,-4.1191,-2.1677,0.0,0.0,0.0,0.0,0.0,0.0,0.0,0.0,0.0,-4.5127,-4.1698,-4.069,-4.2467,0.0,-4.8624,-5.0029,-5.0702,-5.0701,-5.1567,-5.2182,-5.2181,-5.2181,-5.2181,-5.2181,-5.2183,-5.176,-5.0758,-5.0702,-5.0702,-5.0702,-5.0702,-4.974,-4.7683,-5.0066,-5.0828,-4.966,-4.9639,-4.9824,-5.0195,-4.957,-5.0293,-5.2148,-5.1582,-5.1484,-5.1797,-5.1797,-5.1641,-5.1406,-5.1406,-5.1074,-5.0605,-5.1172,-5.1406,-5.1406,-5.1406,-5.1406,-5.1328,-5.0742,-5.0937,-5.1406,-5.1406,-5.1406,-5.1406,-5.1406,-5.1406,-5.1406,-5.1406,-5.1406,-5.1406,-5.1406,-5.1406,-5.1406,-5.1406,-5.1406,-5.1406,-5.1406,-5.1406,-5.1406,-5.1406,-5.1406,-5.1406,-5.1406,-5.1406,-5.1406,-5.1406,-5.1406,-5.1406,-5.1406,-5.1406,-5.0098,-4.668,-4.6308,-4.6308,-4.6308,-4.6308,-4.6308,-4.6308,-4.5309,-4.4349,-4.3485,-4.307,-4.2591,-4.1992,-4.1976,-4.1738,-4.1191,-4.1191,-4.1191,-4.1191,-4.1191,-4.1191,-2.2158,0.0,0.0,0.0,0.0,0.0,0.0,0.0,0.0,0.0,0.0,-4.4554,-4.4537,-4.6243,-4.8297,-5.0355,-5.0702,-5.0702,-5.0702,-5.0682,-5.0702,-5.0702,-5.0702,-5.0702,-5.0702,-5.0702,-5.0125,-4.8779,-4.9933,-5.0683,-5.0702,-5.0883,-4.954,-4.6407,-4.8296,-4.9103,-4.8555,-4.8535,-4.8828,-4.9375,-4.8691,-4.9082,-5.0391,-4.9902,-5.0137,-5.0918,-5.0918,-5.0723,-5.041,-5.041,-5.0332,-5.0254,-5.0723,-5.1113,-5.1406,-5.1406,-5.1406,-5.1328,-5.084,-5.0566,-5.0527,-5.1172,-5.1406,-5.1406,-5.1406,-5.1406,-5.1406,-5.1406,-5.1406,-5.1094,-4.9726,-5.0371,-5.1406,-5.1406,-5.1406,-5.1406,-5.1406,-5.1406,-5.1406,-5.1406,-5.1406,-5.1406,-5.1406,-5.1406,-5.1406,-5.1406,-5.0234,-4.9375,-4.9375,-4.9375,-4.8574,-4.6523,-4.6308,-4.6308,-4.6308,-4.6308,-4.628,-4.6229,-4.5653,-4.522,-4.4972,-4.4014,-4.3284,-4.2839,-4.2451,-4.208,-4.168,-4.1367,-4.1191,-4.1191,-4.1191,-4.1191,0.0,0.0,0.0,0.0,0.0,0.0,0.0,0.0,-4.2831,-4.9355,0.0,-5.0644,-5.049,-5.0586,-5.0702,-5.0683,-5.0702,-5.0702,-5.0702,-5.0433,-5.024,-5.024,-5.024,-5.024,-5.024,-5.024,-4.8951,-4.584,-4.8489,-5.0239,-5.0239,-5.0649,-4.9391,-4.6162,-4.5916,-4.6426,-4.7676,-4.7598,-4.7812,-4.8359,-4.7676,-4.7773,-4.8555,-4.8711,-4.9258,-5.0078,-5.0078,-4.959,-4.8789,-4.8867,-4.9316,-4.9961,-5.0036,-5.0502,-5.1148,-5.1152,-5.1152,-5.1152,-5.1113,-5.0137,-4.9121,-5.0488,-5.1152,-5.1406,-5.1406,-5.1406,-5.1348,-5.1016,-5.0937,-5.0293,-4.748,-4.8848,-5.1016,-5.1328,-5.1406,-5.1406,-5.1406,-5.1406,-5.1308,-5.0996,-5.1191,-5.1406,-5.1406,-5.1406,-5.1289,-5.0976,-4.8281,-4.6308,-4.6308,-4.6308,-4.6308,-4.6308,-4.6308,-4.6308,-4.6308,-4.6287,-4.6222,-4.6097,-4.6084,-4.5988,-4.5815,-4.4297,-4.3497,-4.3585,-4.2705,-4.2266,-4.2285,-4.1562,-4.1191,-4.1191,-4.1191,-4.1191,0.0,-2.4793,0.0,0.0,0.0,0.0,0.0,0.0,-4.5683,-4.9834,-5.0701,-5.0279,-4.8894,-4.9779,-5.0702,-5.0702,-5.0702,-5.0702,-5.0682,-4.8394,-4.6704,-4.6685,-4.6685,-4.6685,-4.6685,-4.6684,-4.6396,-4.5667,-4.6279,-4.67,-4.67,-4.6802,-4.6038,-4.4304,-4.2987,-4.3262,-4.5312,-4.4433,-4.4062,-4.4199,-4.5117,-4.5664,-4.5898,-4.7266,-4.8359,-4.918,-4.918,-4.8691,-4.793,-4.8613,-4.8613,-4.8221,-4.8808,-4.9135,-4.9278,-4.9274,-4.9277,-4.9238,-4.8867,-4.8808,-4.873,-4.7715,-4.9219,-5.1406,-5.1406,-5.1406,-5.084,-4.8144,-4.7402,-4.7851,-4.9805,-4.8867,-4.8066,-5.0762,-5.1406,-5.1406,-5.1406,-5.1406,-5.0605,-4.793,-4.9551,-5.1406,-5.1406,-5.1406,-5.0488,-4.7793,-4.6777,-4.6308,-4.6308,-4.6308,-4.6308,-4.6308,-4.6308,-4.6308,-4.6308,-4.6208,-4.6124,-4.6102,-4.595,-4.5853,-4.5796,-4.5603,-4.4842,-4.3471,-4.3395,-4.2731,-4.1465,-4.1289,-4.1191,-4.1191,-4.1191,-4.1191,0.0,0.0,0.0,0.0,0.0,0.0,0.0,0.0,-4.5026,-4.7197,-4.8604,-4.9086,-4.7933,-4.801,-4.8529,-4.9335,-4.8778,-4.8259,-4.8257,-4.6721,-4.5607,-4.5605,-4.5605,-4.5605,-4.5605,-4.5586,-4.5586,-4.5605,-4.4088,-4.3167,-4.3167,-4.3165,-4.3173,-4.3222,-4.2315,-4.2559,-4.4109,-4.3475,-4.315,-4.315,-4.3872,-4.4224,-4.4305,-4.6149,-4.6992,-4.7031,-4.7031,-4.6543,-4.58,-4.6599,-4.6917,-4.6958,-4.7687,-4.8415,-4.9073,-4.9079,-4.8952,-4.8887,-4.9433,-4.8769,-4.7519,-4.6601,-4.7519,-4.8965,-4.8965,-4.8965,-4.8594,-4.6797,-4.6308,-4.6719,-4.8496,-4.7637,-4.6758,-4.8535,-5.0215,-5.1406,-5.1406,-5.1406,-5.0879,-4.9082,-5.0176,-5.1406,-5.1406,-5.1406,-5.0234,-4.6816,-4.6308,-4.6308,-4.6308,-4.6308,-4.6308,-4.6308,-4.6308,-4.6297,-4.6302,-4.6181,-4.6065,-4.5969,-4.5853,-4.5776,-4.5719,-4.5528,-4.4977,-4.4034,-4.3374,-4.2616,-4.1777,-4.1387,-4.1191,-4.1191,-4.1191,-4.1191,0.0,0.0,0.0,0.0,0.0,0.0,0.0,0.0,-4.3104,-4.3912,-4.5836,-4.7259,-4.6856,-4.5897,-4.5647,-4.7144,-4.6376,-4.5395,-4.4799,-4.4737,-4.4735,-4.4732,-4.4713,-4.4713,-4.4713,-4.4713,-4.4713,-4.4713,-4.2091,-4.0485,-4.0485,-4.0499,-4.1072,-4.2319,-4.2252,-4.2498,-4.3108,-4.3009,-4.2956,-4.2956,-4.3092,-4.3257,-4.3451,-4.4909,-4.5263,-4.4723,-4.4723,-4.4313,-4.37,-4.4316,-4.498,-4.5676,-4.6317,-4.7424,-4.8675,-4.8619,-4.853,-4.8616,-5.0038,-4.8672,-4.6308,-4.6308,-4.6308,-4.6308,-4.6308,-4.6308,-4.6308,-4.6308,-4.6308,-4.6308,-4.6308,-4.6308,-4.6308,-4.6308,-4.8457,-5.0527,-5.0527,-5.0976,-5.1406,-5.1406,-5.1406,-5.1406,-5.1406,-5.0918,-4.9551,-4.6738,-4.6308,-4.6308,-4.6308,-4.6301,-4.6267,-4.6189,-4.6258,-4.6279,-4.6225,-4.6116,-4.5988,-4.5815,-4.5776,-4.5738,-4.5624,-4.4895,-4.45,-4.451,-4.3066,-4.2287,-4.2187,-4.1523,-4.1191,-4.1191,-4.1191,-4.1191,0.0,0.0,0.0,0.0,0.0,0.0,0.0,0.0,-4.222,0.0,-4.3912,-4.4509,-4.4682,-4.4011,-4.3647,-4.4352,-4.5101,-4.4581,-4.1613,-4.1174,-4.1174,-4.1174,-4.1174,-4.1174,-4.1174,-4.1174,-4.1174,-4.1174,-4.0768,-4.0499,-4.0499,-4.0511,-4.0642,-4.0966,-4.0963,-4.1033,-4.1174,-4.1161,-4.1152,-4.1171,-4.1919,-4.2666,-4.339,-4.2897,-4.3001,-4.3617,-4.3617,-4.3539,-4.3461,-4.3556,-4.3652,-4.3775,-4.3879,-4.4495,-4.531,-4.5143,-4.5671,-4.6518,-4.6866,-4.668,-4.6308,-4.6308,-4.6308,-4.6308,-4.6308,-4.6308,-4.6308,-4.6308,-4.6308,-4.6308,-4.6308,-4.6308,-4.6308,-4.6308,-4.6641,-4.6973,-4.6973,-4.9316,-5.1406,-5.1406,-5.1406,-5.1406,-5.1406,-4.8945,-4.6836,-4.6367,-4.6308,-4.6308,-4.6308,-4.6307,-4.6148,-4.5746,-4.6055,-4.6177,-4.5891,-4.5849,-4.5834,-4.5796,-4.5699,-4.568,-4.5776,-4.4359,-4.3645,-4.3734,-4.2843,-4.2044,-4.1367,-4.125,-4.1191,-4.1191,-4.1191,-4.1191,-2.194,0.0,0.0,0.0,0.0,0.0,0.0,0.0,-4.0508,-4.0893,-4.1527,-4.2335,-4.3431,-4.3355,-4.3069,-4.297,-4.3657,-4.333,-4.0844,-4.0499,-4.0495,-4.0495,-4.0495,-4.0495,-4.0495,-4.0495,-4.0495,-4.0495,-4.0511,-4.0492,-4.0492,-4.0508,-4.0562,-4.0696,-4.0626,-4.0646,-4.0735,-4.0677,-4.0639,-4.0639,-4.1004,-4.1405,-4.1767,-4.1386,-4.174,-4.2652,-4.2156,-4.1943,-4.1981,-4.2434,-4.2637,-4.2703,-4.3143,-4.3376,-4.3665,-4.4818,-4.5034,-4.491,-4.595,-4.6308,-4.6308,-4.6308,-4.6308,-4.6308,-4.6308,-4.6308,-4.6308,-4.6308,-4.6308,-4.6308,-4.6308,-4.6308,-4.6308,-4.6308,-4.6308,-4.6308,-4.6308,-4.748,-4.8547,-4.8533,-4.8545,-4.915,-5.1071,-5.0156,-4.8516,-4.6582,-4.6308,-4.6295,-4.6307,-4.6056,-4.5834,-4.5605,-4.5785,-4.5847,-4.5711,-4.5684,-4.5699,-4.5699,-4.5624,-4.5432,-4.5105,-4.4003,-4.3231,-4.2883,-4.2117,-4.1543,-4.1191,-4.1191,-4.1191,-4.1191,-4.1191,-4.1191,0.0,0.0,0.0,0.0,0.0,0.0,0.0,0.0,-3.8123,0.0,-3.9123,-3.9988,-4.1527,-4.2143,-4.2297,-4.1838,-4.2143,-4.1986,-4.0668,-4.0492,-4.0489,-4.0489,-4.0123,-4.0027,-4.045,-4.0504,-4.0504,-4.0489,-4.0489,-4.0315,-3.9892,-3.9988,-4.0046,-4.0023,-4.0123,-4.0254,-4.035,-4.0466,-4.0489,-4.0489,-4.0489,-4.0489,-4.0489,-4.0489,-4.0927,-4.1671,-4.1004,-4.0716,-4.0773,-4.1412,-4.17,-4.18,-4.2396,-4.2626,-4.278,-4.4186,-4.4557,-4.4414,-4.4844,-4.5,-4.5,-4.5,-4.5586,-4.6133,-4.5273,-4.5605,-4.6308,-4.6308,-4.6308,-4.6308,-4.6308,-4.6308,-4.6308,-4.6308,-4.6308,-4.6308,-4.6308,-4.6308,-4.6293,-4.6294,-4.6194,-4.6926,-4.9496,-5.0012,-4.9238,-4.668,-4.6295,-4.6298,-4.6301,-4.5892,-4.5586,-4.5586,-4.5586,-4.5586,-4.5586,-4.5586,-4.5586,-4.5586,-4.5586,-4.5278,-4.4587,-4.3812,-4.3055,-4.2347,-4.1571,-4.1191,-4.1191,-4.1191,-4.1191,-4.1191,-4.1191,-4.1191,0.0,0.0,0.0,0.0,0.0,0.0,0.0,0.0,-3.4911,-3.6507,-3.6873,-3.718,-3.8104,-3.9565,-4.0623,-4.0585,-4.0604,-4.0585,-4.0508,-4.0489,-4.0489,-4.0489,-3.9108,-3.8762,-4.0354,-4.05,-4.05,-4.0504,-4.0489,-3.9815,-3.8208,-3.8608,-3.8661,-3.8161,-3.8931,-3.9373,-3.9373,-4.0104,-4.0489,-4.0489,-4.0489,-4.0489,-4.0489,-4.0489,-4.0543,-4.0581,-4.0543,-4.0508,-4.0527,-4.0696,-4.0773,-4.0812,-4.1024,-4.1751,-4.2604,-4.1744,-4.3456,-4.5703,-4.2558,-4.1465,-4.1465,-4.1465,-4.3652,-4.5703,-4.2441,-4.373,-4.6308,-4.6308,-4.6308,-4.6308,-4.6308,-4.6308,-4.6308,-4.6308,-4.6308,-4.6308,-4.6308,-4.6308,-4.6308,-4.6307,-4.593,-4.568,-4.5866,-4.6266,-4.6504,-4.6328,-4.6299,-4.6307,-4.6294,-4.5892,-4.5586,-4.5586,-4.5586,-4.5586,-4.5586,-4.5586,-4.5586,-4.5586,-4.5586,-4.5336,-4.4722,-4.387,-4.3075,-4.2405,-4.161,-4.1191,-4.1191,-4.1191,-4.1191,-4.1191,-4.1191,-4.1191,0.0,0.0,0.0,0.0,0.0,0.0,-2.7891,-3.0093,-3.2083,-3.3256,-3.4353,-3.5353,-3.6238,-3.7777,-3.8892,-3.8892,-3.9176,-3.9292,-3.8931,-3.8892,-3.9008,-3.9369,-3.8584,-3.782,-3.7348,-3.9234,-4.0511,-4.0496,-4.0496,-3.9769,-3.8089,-3.7858,-3.8089,-3.8815,-3.9142,-3.9546,-4.0065,-4.0354,-4.0489,-4.0489,-3.9969,-3.9988,-4.0469,-3.9969,-4.0008,-4.0489,-4.0489,-4.0489,-4.0508,-4.0639,-4.0725,-4.0787,-4.0935,-4.1288,-4.1691,-4.1323,-4.1973,-4.2851,-4.1621,-4.1191,-4.1191,-4.1191,-4.2031,-4.2793,-4.1562,-4.2051,-4.3027,-4.3027,-4.4609,-4.6308,-4.6308,-4.6308,-4.6308,-4.6308,-4.6308,-4.6308,-4.6308,-4.6308,-4.6308,-4.6308,-4.6167,-4.6044,-4.605,-4.6201,-4.6297,-4.6306,-4.63,-4.6183,-4.5888,-4.5699,-4.5586,-4.5586,-4.5586,-4.5586,-4.5586,-4.5586,-4.5586,-4.5586,-4.568,-4.5297,-4.4339,-4.4103,-4.3238,-4.1656,-4.1355,-4.1191,-4.1191,-4.1191,-4.1191,-4.1191,-4.1191,-4.1191,-2.0661,0.0,0.0,0.0,0.0,-2.3354,-2.4786,0.0,-2.8698,-3.0121,-3.1314,-3.2526,-3.3968,-3.5141,-3.6257,-3.7373,-3.7642,-3.7656,-3.7584,-3.7565,-3.77,-3.806,-3.7777,-3.7166,-3.6161,-3.7738,-3.8825,-3.8825,-3.8825,-3.8349,-3.7224,-3.7204,-3.7704,-3.8834,-3.9142,-3.9546,-4.0085,-4.0085,-4.0085,-4.0085,-3.9258,-3.9161,-3.9681,-3.9142,-3.9219,-3.9762,-3.9762,-4.0085,-4.0581,-4.0696,-4.0783,-4.0877,-4.1013,-4.1117,-4.1191,-4.1191,-4.1191,-4.1191,-4.1191,-4.1191,-4.1191,-4.1191,-4.1191,-4.1191,-4.1191,-4.1191,-4.1191,-4.1191,-4.2832,-4.459,-4.459,-4.4588,-4.4883,-4.6033,-4.6309,-4.6308,-4.6308,-4.6293,-4.6308,-4.6307,-4.6308,-4.6257,-4.6078,-4.62,-4.624,-4.6098,-4.6192,-4.6138,-4.5657,-4.5586,-4.5586,-4.5586,-4.5586,-4.5586,-4.5586,-4.5586,-4.5586,-4.5586,-4.568,-4.5413,-4.4741,-4.4243,-4.3109,-4.123,-4.1191,-4.1191,-4.1191,-4.1191,-4.1191,-4.1191,-4.1191,-4.1191,0.0,0.0,0.0,0.0,0.0,0.0,-2.2321,0.0,-2.4726,-2.7236,-2.7775,-2.8563,-3.1083,-3.1545,-3.2641,-3.5968,-3.593,-3.5738,-3.6526,-3.6661,-3.6661,-3.6661,-3.6661,-3.6781,-3.7113,-3.6152,-3.5489,-3.5494,-3.5513,-3.5494,-3.5504,-3.6575,-3.7416,-3.795,-3.8815,-3.9258,-3.9258,-3.9258,-3.9258,-3.9238,-3.8373,-3.8007,-3.8108,-3.8089,-3.8151,-3.8289,-3.8289,-3.9204,-4.0639,-4.0696,-4.0812,-4.0964,-4.1109,-4.1172,-4.1191,-4.1191,-4.1191,-4.1191,-4.1191,-4.1191,-4.1191,-4.1191,-4.1191,-4.1191,-4.1191,-4.1191,-4.1191,-4.1191,-4.1191,-4.1191,-4.1191,-4.1265,-4.2176,-4.549,-4.6268,-4.6269,-4.6172,-4.6146,-4.6189,-4.6256,-4.6249,-4.6093,-4.5673,-4.5986,-4.6123,-4.568,-4.5988,-4.6103,-4.5643,-4.5586,-4.5586,-4.5586,-4.5586,-4.5586,-4.5586,-4.5586,-4.5586,-4.5586,-4.5605,-4.5699,-4.5873,-4.4335,-4.2753,-4.123,-4.1191,-4.1191,-4.1191,-4.1191,-4.1191,-4.1191,-4.1191,-4.1191,-2.0656,0.0,0.0,0.0,0.0,0.0,-2.0532,0.0,-2.2564,-2.3811,-2.4648,-2.5746,-2.7659,-2.8005,-2.8929,-3.1698,-3.3506,-3.4641,-3.4853,-3.543,-3.5834,-3.5834,-3.5834,-3.5858,-3.5955,-3.5685,-3.5512,-3.5498,-3.5498,-3.5498,-3.5512,-3.6339,-3.6897,-3.7046,-3.7911,-3.8354,-3.8354,-3.8354,-3.8354,-3.8354,-3.7488,-3.7416,-3.8089,-3.7493,-3.763,-3.8307,-3.8307,-3.8574,-3.9054,-3.9073,-3.9458,-4.0063,-4.0212,-4.0644,-4.1191,-4.1191,-4.1191,-4.1191,-4.1191,-4.1191,-4.1191,-4.1191,-4.1191,-4.1191,-4.1191,-4.1191,-4.1191,-4.1191,-4.1191,-4.1203,-4.1208,-4.3046,-4.5035,-4.5642,-4.58,-4.52,-4.3078,-4.2605,-4.3234,-4.5378,-4.4918,-4.4543,-4.5623,-4.5795,-4.5757,-4.5605,-4.5719,-4.5757,-4.5605,-4.5586,-4.5586,-4.5586,-4.5586,-4.5586,-4.5586,-4.5699,-4.5699,-4.5605,-4.5834,-4.5873,-4.5699,-4.556,-4.4133,-4.1269,-4.1191,-4.1191,-4.1191,-4.1191,-4.1191,-4.1191,-4.1191,-4.1191,0.0,0.0,0.0,0.0,0.0,0.0,-1.979,-2.0413,-2.1218,-2.1981,-2.2613,-2.3543,-2.5236,-2.5563,-2.6159,-2.7975,-3.0121,-3.1929,-3.3006,-3.3583,-3.391,-3.391,-3.4218,-3.443,-3.443,-3.443,-3.4564,-3.493,-3.4968,-3.5257,-3.5968,-3.6449,-3.6699,-3.6699,-3.7546,-3.7834,-3.7469,-3.7469,-3.7296,-3.6949,-3.6108,-3.5825,-3.6041,-3.5979,-3.6258,-3.6811,-3.717,-3.7353,-3.7398,-3.7398,-3.8132,-3.9282,-3.9732,-4.0117,-4.0508,-4.1016,-4.1191,-4.1191,-4.1191,-4.1191,-4.1191,-4.1191,-4.1191,-4.1191,-4.1191,-4.1191,-4.1191,-4.1191,-4.1191,-4.1206,-4.1206,-4.2524,-4.3801,-4.3525,-4.3626,-4.3281,-4.1565,-4.1199,-4.1885,-4.4214,-4.3915,-4.3801,-4.5499,-4.5761,-4.5697,-4.5622,-4.5586,-4.5081,-4.3655,-4.4113,-4.4643,-4.4874,-4.5028,-4.5295,-4.5661,-4.5757,-4.5776,-4.5738,-4.4664,-4.3983,-4.3762,-4.4032,-4.3242,-4.123,-4.1191,-4.1191,-4.1191,-4.1191,-4.1191,-4.1191,-4.1191,-4.1191,0.0,0.0,0.0,0.0,-1.9916,0.0,-1.9979,-2.0279,-2.0727,-2.1201,-2.1325,-2.1833,-2.3477,-2.3765,-2.4053,-2.4965,-2.6406,-2.833,-3.091,-3.1525,-3.1698,-3.1698,-3.2333,-3.2776,-3.2776,-3.2776,-3.3083,-3.3853,-3.4007,-3.4699,-3.6199,-3.6276,-3.6276,-3.6276,-3.7026,-3.7065,-3.6295,-3.6334,-3.6026,-3.5295,-3.4461,-3.3717,-3.3121,-3.4026,-3.4501,-3.4687,-3.5476,-3.5883,-3.5988,-3.5988,-3.6973,-3.8535,-3.9316,-3.9609,-3.9726,-4.0801,-4.1191,-4.1191,-4.1191,-4.1191,-4.1191,-4.1191,-4.1191,-4.1191,-4.1191,-4.1191,-4.1191,-4.1191,-4.1191,-4.1191,-4.1191,-4.0896,-4.0588,-4.0577,-4.0902,-4.12,-4.1201,-4.1194,-4.1615,-4.304,-4.3166,-4.3538,-4.5161,-4.5676,-4.5808,-4.5632,-4.5466,-4.4187,-4.0916,-4.1842,-4.3088,-4.3855,-4.4124,-4.4696,-4.5728,-4.5736,-4.5699,-4.5738,-4.2986,-4.1322,-4.121,-4.1191,-4.1191,-4.1191,-4.1191,-4.1191,-4.1191,-4.1191,-4.1191,-4.1191,-4.1191,-4.1191,0.0,0.0,0.0,-2.1901,-2.2241,0.0,-2.1061,-2.1577,-2.1903,-2.0427,-2.0221,-2.0575,-2.151,-2.1696,-2.2182,-2.3695,-2.4227,-2.5418,-2.8253,-3.041,-3.1698,-3.1698,-3.1833,-3.1929,-3.1929,-3.1929,-3.2006,-3.2179,-3.2795,-3.3295,-3.3622,-3.3641,-3.3641,-3.3641,-3.3814,-3.3814,-3.3641,-3.4116,-3.4302,-3.4129,-3.3032,-3.2471,-3.2425,-3.3147,-3.3746,-3.4238,-3.4508,-3.5142,-3.6007,-3.6007,-3.6612,-3.7578,-3.7734,-3.9043,-4.0879,-4.1113,-4.1191,-4.1191,-4.1191,-4.1191,-4.1191,-4.1191,-4.1191,-4.1191,-4.1191,-4.1191,-4.1191,-4.1191,-4.1191,-4.1191,-4.1191,-4.1126,-4.1067,-4.1054,-4.1139,-4.1187,-4.12,-4.1194,-4.1503,-4.2555,-4.2721,-4.3052,-4.4198,-4.5103,-4.5642,-4.5615,-4.4583,-4.3018,-4.0781,-4.0795,-4.1777,-4.3835,-4.3299,-4.3636,-4.5714,-4.5336,-4.4914,-4.4722,-4.3352,-4.2153,-4.123,-4.1191,-4.1191,-4.1191,-4.1191,-4.1191,-4.1191,-4.1191,-4.1191,-4.1191,-4.1191,-4.1191,-2.3485,-2.3004,-2.2967,-2.2229,-2.241,0.0,0.0,-2.2017,-2.2205,-2.1186,-2.0724,-2.0619,-2.0984,-2.0708,-2.0739,-2.1563,-2.2067,-2.2873,-2.4394,-2.6814,-2.843,-2.8494,-2.8506,-2.8506,-2.8506,-2.8909,-2.9506,-3.0333,-3.1583,-3.2102,-3.1679,-3.2064,-3.2102,-3.1679,-3.166,-3.1929,-3.2512,-3.28,-3.3082,-3.3345,-3.2769,-3.2073,-3.1322,-3.171,-3.213,-3.2553,-3.3455,-3.418,-3.4707,-3.4707,-3.5469,-3.6641,-3.6641,-3.7441,-3.8711,-3.957,-4.0449,-4.1191,-4.1191,-4.1191,-4.1191,-4.1191,-4.1191,-4.1191,-4.1191,-4.1191,-4.1191,-4.1191,-4.1191,-4.1191,-4.1191,-4.1191,-4.1206,-4.1201,-4.1198,-4.121,-4.1196,-4.1207,-4.1348,-4.1816,-4.1896,-4.2393,-4.3981,-4.409,-4.4183,-4.4899,-4.4422,-4.3202,-4.0986,-4.0707,-4.1312,-4.2925,-4.264,-4.3007,-4.4628,-4.4432,-4.4314,-4.4489,-4.3333,-4.2207,-4.123,-4.1191,-4.1191,-4.1191,-4.1191,-4.1191,-4.1191,-4.1191,-4.1191,-4.1191,-4.1191,-4.1191,-2.425,-2.3662,-2.3345,-2.2534,-2.2617,-2.2824,0.0,0.0,0.0,-2.2229,-2.1642,-2.1116,-2.0939,-2.0358,-1.9882,-1.9732,-2.0283,-2.0797,-2.0956,-2.2742,-2.4278,-2.4936,-2.5004,-2.5004,-2.5004,-2.5687,-2.6736,-2.8255,-2.9833,-3.041,-2.9717,-3.0487,-3.066,-2.9948,-2.9929,-3.0364,-3.1272,-3.1291,-3.1515,-3.195,-3.2254,-3.1723,-3.039,-3.0506,-3.0656,-3.0879,-3.2299,-3.2923,-3.293,-3.293,-3.3747,-3.5044,-3.537,-3.5703,-3.6172,-3.7578,-3.9414,-4.1191,-4.1191,-4.1191,-4.1191,-4.1191,-4.1191,-4.1191,-4.1191,-4.1191,-4.1191,-4.1191,-4.1191,-4.1191,-4.1191,-4.1191,-4.1191,-4.1191,-4.1191,-4.1191,-4.1191,-4.1191,-4.1191,-4.1191,-4.1191,-4.1751,-4.3481,-4.284,-4.2467,-4.3612,-4.3877,-4.3203,-4.1152,-4.0914,-4.1235,-4.2052,-4.2075,-4.2487,-4.352,-4.3524,-4.3652,-4.4141,-4.3066,-4.2031,-4.123,-4.1191,-4.1191,-4.1191,-4.1191,-4.1191,-4.1191,-4.1191,-4.1191,-4.1191,-4.1191,-4.1191,-2.531,-2.5118,-2.5206,-2.4386,-2.5277,-2.5761,-2.357,0.0,-2.4015,-2.2365,0.0,-2.1603,-2.0726,0.0,0.0,-1.9475,-1.9438,-1.9567,-1.9767,-2.0036,-2.1167,-2.3667,-2.3968,-2.3968,-2.3968,-2.4226,-2.4755,-2.5659,-2.664,-2.714,-2.7044,-2.7852,-2.8294,-2.8179,-2.8179,-2.8236,-2.8382,-2.8382,-2.842,-2.8497,-2.9985,-3.0582,-3.0406,-3.0421,-3.0441,-3.0475,-3.0962,-3.119,-3.1172,-3.1172,-3.1289,-3.1642,-3.3122,-3.4648,-3.6016,-3.6211,-3.8379,-4.1191,-4.1191,-4.1191,-4.1191,-4.1191,-4.1191,-4.1191,-4.1191,-4.1191,-4.1191,-4.1191,-4.1191,-4.1191,-4.1191,-4.1191,-4.1191,-4.1191,-4.1191,-4.1191,-4.1191,-4.1191,-4.1191,-4.1191,-4.1191,-4.1289,-4.1522,-4.1421,-4.1379,-4.1533,-4.158,-4.1426,-4.0957,-4.0954,-4.1315,-4.217,-4.1613,-4.1838,-4.3537,-4.2987,-4.2578,-4.2656,-4.248,-4.2031,-4.123,-4.1191,-4.1191,-4.1191,-4.1191,-4.1191,-4.1191,-4.1191,-4.1191,-4.1191,-4.1191,-4.1191,-2.5627,-2.556,-2.5706,-2.5726,-2.6432,-2.6683,-2.4875,-2.4906,-2.493,-2.3562,0.0,0.0,0.0,0.0,0.0,0.0,-1.9601,-1.9365,-1.9569,-1.9499,-1.995,-2.132,-2.1487,-2.1711,-2.2282,-2.2359,-2.2774,-2.3765,-2.4542,-2.48,-2.4428,-2.5659,-2.6178,-2.5707,-2.5707,-2.5909,-2.639,-2.6391,-2.6381,-2.6408,-2.7101,-2.7448,-2.7503,-2.9498,-3.051,-3.0714,-3.0845,-3.0897,-3.0898,-3.0898,-3.0895,-3.0945,-3.146,-3.2233,-3.328,-3.5262,-3.6931,-3.8474,-4.0498,-4.1191,-4.1191,-4.1191,-4.1191,-4.1191,-4.1191,-4.1191,-4.1191,-4.1191,-4.1191,-4.1191,-4.1191,-4.1191,-4.1191,-4.1191,-4.1191,-4.1191,-4.1191,-4.1191,-4.1191,-4.1191,-4.1191,-4.1191,-4.1191,-4.1191,-4.1191,-4.1191,-4.1191,-4.1172,-4.1074,-4.1094,-4.1261,-4.1629,-4.1338,-4.1427,-4.2187,-4.1914,-4.1699,-4.1699,-4.1699,-4.1543,-4.1211,-4.1191,-4.1191,-4.1191,-4.1191,-4.1191,-4.1191,-4.1191,-4.1191,-4.1191,-4.1191,-4.1191,-2.6035,-2.5991,-2.6149,-2.6297,-2.673,-2.6876,-2.5943,-2.5836,-2.569,-2.4725,-2.4061,0.0,0.0,0.0,-2.1035,-2.0558,0.0,-1.9592,-1.9536,-1.938,-1.9405,-1.9713,-1.9738,-2.0059,-2.087,-2.0864,-2.1154,-2.2053,-2.2777,-2.2959,-2.2466,-2.4043,-2.4697,-2.4129,-2.4322,-2.4716,-2.5284,-2.5293,-2.5303,-2.5302,-2.534,-2.5349,-2.5376,-2.7879,-2.9706,-3.0888,-3.0887,-3.0893,-3.0902,-3.0904,-3.0854,-3.0737,-3.0506,-3.0543,-3.1187,-3.4704,-3.593,-3.6222,-3.8766,-4.032,-4.1191,-4.1191,-4.1191,-4.1191,-4.1191,-4.1191,-4.1191,-4.1191,-4.1191,-4.1191,-4.1191,-4.1191,-4.1191,-4.1191,-4.1191,-4.1191,-4.1191,-4.1191,-4.1191,-4.1191,-4.1191,-4.1191,-4.1191,-4.1191,-4.1191,-4.1191,-4.1191,-4.1191,-4.1191,-4.1191,-4.1191,-4.1191,-4.1191,-4.1191,-4.1191,-4.1191,-4.1191,-4.1191,-4.1191,-4.1191,-4.1191,-4.1191,-4.1191,-4.1191,-4.1191,-4.1191,-4.1191,-4.1191,-4.1191,-4.1191,-4.1191,-4.1191,-2.6772,-2.6698,-2.6914,-2.5983,-2.6169,-2.6615,-2.6576,-2.6576,-2.6337,-2.5531,-2.5348,-2.4832,-2.329,-2.296,-2.2373,0.0,-2.0484,0.0,0.0,-1.9305,-1.9365,-1.9582,-1.9614,-1.972,-2.0002,-2.0041,-2.0135,-2.0361,-2.1111,-2.1554,-2.1543,-2.3178,-2.4129,-2.411,-2.487,-2.5264,-2.5303,-2.5303,-2.5303,-2.5303,-2.5428,-2.5427,-2.5311,-2.5405,-2.7449,-3.0892,-3.0892,-3.0901,-3.0906,-3.0894,-3.0699,-3.0398,-3.0398,-3.0417,-3.0867,-3.4622,-3.5795,-3.5526,-3.5649,-3.8109,-4.1191,-4.1191,-4.1191,-4.1191,-4.1191,-4.1191,-4.1191,-4.1191,-4.1191,-4.1191,-4.1191,-4.1191,-4.1191,-4.1191,-4.1191,-4.1191,-4.1191,-4.1191,-4.1191,-4.1191,-4.1191,-4.1191,-4.1191,-4.1191,-4.1191,-4.1191,-4.1191,-4.1191,-4.1191,-4.1191,-4.1191,-4.1191,-4.1191,-4.1191,-4.1191,-4.1191,-4.1191,-4.1191,-4.1191,-4.1191,-4.1191,-4.1191,-4.1191,-4.1191,-4.1191,-4.1191,-4.1191,-4.1191,-4.1191,-4.1191,-4.1191,-4.1191,-2.7656,-2.8013,-2.8278,-2.8342,-2.8606,-2.8627,-2.7772,-2.7601,-2.719,-2.57,-2.5502,-2.5227,-2.4026,-2.3537,0.0,0.0,0.0,-2.1402,0.0,-2.052,-1.9911,-1.9453,-1.9394,-1.9495,-1.9713,-1.9726,-1.9843,-2.0069,-2.0355,-2.0563,-2.0708,-2.1773,-2.2639,-2.3225,-2.3505,-2.4178,-2.5284,-2.4774,-2.4774,-2.5303,-2.5341,-2.538,-2.5437,-2.534,-2.7229,-3.0452,-2.8359,-2.8648,-3.0575,-3.0577,-3.0499,-3.0398,-3.0398,-3.0405,-3.0835,-3.436,-3.5726,-3.5834,-3.5834,-3.6686,-3.8144,-4.0449,-4.1191,-4.0762,-3.8457,-3.7754,-3.8242,-4.0547,-4.1191,-4.1191,-4.1191,-4.1191,-4.1191,-4.1191,-4.1191,-4.1191,-4.1191,-4.1191,-4.1191,-4.1191,-4.1191,-4.1191,-4.1191,-4.1191,-4.1191,-4.1191,-4.1191,-4.1191,-4.1191,-4.1191,-4.1191,-4.1191,-4.1191,-4.1191,-4.1191,-4.1191,-4.1191,-4.1191,-4.1191,-4.1191,-4.1191,-4.1191,-4.1191,-4.1191,-4.1191,-4.1191,-4.1191,-4.1191,-4.1191,-4.1191,-4.1191,-4.1191,-2.8536,-2.876,-2.8888,-2.9276,-2.9425,-2.9333,-2.88,-2.8428,-2.7867,-2.6749,-2.6133,-2.5683,-2.5372,-2.4582,-2.3927,0.0,0.0,-2.2416,0.0,-2.1186,-2.0409,-1.9893,-1.9519,-1.9394,-1.9643,-1.9669,-1.9786,-2.0069,-2.0106,-2.0161,-2.0285,-2.1062,-2.1908,-2.2774,-2.3109,-2.3928,-2.5284,-2.4793,-2.4793,-2.5303,-2.5322,-2.537,-2.5428,-2.5389,-2.6553,-2.8536,-2.7727,-2.8511,-3.0398,-3.0398,-3.0398,-3.0398,-3.0398,-3.0398,-3.0809,-3.4231,-3.5712,-3.6006,-3.6006,-3.6002,-3.6367,-3.8613,-3.9355,-3.8926,-3.668,-3.5996,-3.6465,-3.8711,-4.0234,-4.1191,-4.1191,-4.0273,-3.9668,-4.0918,-4.1191,-4.1191,-4.1191,-4.1191,-4.1191,-4.1191,-4.1191,-4.1191,-4.1191,-4.1191,-4.1191,-4.1191,-4.1191,-4.1191,-4.1191,-4.1191,-4.1191,-4.1191,-4.1191,-4.1191,-4.1191,-4.1191,-4.1191,-4.1191,-4.1191,-4.1185,-4.1139,-4.1162,-4.1465,-4.2031,-4.1484,-4.1484,-4.209,-4.1484,-4.1182,-4.1134,-4.1183,-4.1172]}]]